[[{"header":{"parameterUnit":"m.s-1","parameterCategory":1,"la1":30.6,"la2":29.2853,"lo1":-89.7004,"lo2":-87.6739,"dy":0.0162,"dx":0.0183,"nx":112,"ny":82,"refTime":"2023-04-10T12:00:00:Z","depth":0,"parameterNumber":2,"parameterNumberName":"U-component_of_WINDS"},"data":[0.0,0.0,0.0,0.0,0.0,0.0,0.0,0.0,0.0,0.0,0.0,0.0,0.0,0.0,0.0,0.0,0.0,0.0,0.0,0.0,0.0,0.0,0.0,0.0,0.0,0.0,0.0,0.0,0.0,0.0,0.0,0.0,0.0,0.0,0.0,0.0,0.0,0.0,0.0,0.0,0.0,0.0,0.0,0.0,0.0,0.0,0.0,0.0,0.0,0.0,0.0,0.0,0.0,0.0,0.0,0.0,0.0,0.0,0.0,0.0,0.0,0.0,0.0,0.0,0.0,0.0,0.0,0.0,0.0,0.0,0.0,0.0,0.0,0.0,0.0,0.0,0.0,0.0,0.0,0.0,0.0,0.0,0.0,0.0,0.0,0.0,0.0,0.0,0.0,0.0,-4.6317,-4.9544,-5.0471,-5.0855,-5.0801,-5.0748,-4.9265,-4.5915,0.0,0.0,0.0,0.0,0.0,0.0,0.0,0.0,0.0,0.0,0.0,0.0,0.0,0.0,0.0,0.0,0.0,0.0,0.0,0.0,0.0,0.0,0.0,0.0,0.0,0.0,0.0,0.0,0.0,0.0,0.0,0.0,0.0,0.0,0.0,0.0,0.0,0.0,0.0,0.0,0.0,0.0,0.0,0.0,0.0,0.0,0.0,0.0,0.0,0.0,0.0,0.0,0.0,0.0,0.0,0.0,0.0,0.0,0.0,0.0,0.0,0.0,0.0,0.0,0.0,0.0,0.0,0.0,0.0,0.0,0.0,0.0,0.0,0.0,0.0,0.0,0.0,0.0,0.0,0.0,0.0,0.0,0.0,0.0,0.0,0.0,0.0,0.0,0.0,0.0,0.0,0.0,0.0,0.0,0.0,0.0,0.0,0.0,0.0,0.0,0.0,0.0,0.0,0.0,-4.8558,-5.0511,-5.0775,-5.081,-5.0801,-5.074,-4.9268,-4.5915,0.0,0.0,0.0,0.0,0.0,0.0,0.0,0.0,0.0,0.0,0.0,0.0,0.0,0.0,0.0,0.0,0.0,0.0,0.0,0.0,0.0,0.0,0.0,0.0,0.0,0.0,0.0,0.0,0.0,0.0,0.0,0.0,0.0,0.0,0.0,0.0,0.0,0.0,0.0,0.0,0.0,0.0,0.0,0.0,0.0,0.0,0.0,0.0,0.0,0.0,0.0,0.0,0.0,0.0,0.0,0.0,0.0,0.0,0.0,0.0,0.0,0.0,0.0,0.0,0.0,0.0,0.0,0.0,0.0,0.0,0.0,0.0,0.0,0.0,0.0,0.0,0.0,0.0,0.0,0.0,0.0,0.0,0.0,0.0,0.0,0.0,0.0,0.0,0.0,0.0,0.0,0.0,0.0,0.0,0.0,0.0,0.0,0.0,0.0,0.0,0.0,0.0,0.0,-4.8168,-5.0051,-5.0821,-5.0869,-5.0846,-5.0801,-5.073,-4.9267,-4.5915,-4.5711,0.0,0.0,0.0,0.0,0.0,0.0,0.0,0.0,0.0,0.0,0.0,0.0,0.0,0.0,0.0,0.0,0.0,0.0,0.0,0.0,0.0,0.0,0.0,0.0,0.0,0.0,0.0,0.0,0.0,0.0,0.0,0.0,0.0,0.0,0.0,0.0,0.0,0.0,0.0,0.0,0.0,0.0,0.0,0.0,0.0,0.0,0.0,0.0,0.0,0.0,0.0,0.0,0.0,0.0,0.0,0.0,0.0,0.0,0.0,0.0,0.0,0.0,0.0,0.0,0.0,0.0,0.0,0.0,0.0,0.0,0.0,0.0,0.0,0.0,0.0,0.0,0.0,0.0,0.0,0.0,0.0,0.0,0.0,0.0,0.0,0.0,0.0,0.0,0.0,0.0,0.0,0.0,0.0,0.0,0.0,0.0,0.0,0.0,0.0,0.0,0.0,0.0,-4.9115,-5.046,-5.0859,-5.0905,-5.0863,-5.0801,-5.0729,-4.9274,-4.5915,-4.5711,0.0,0.0,0.0,0.0,0.0,0.0,0.0,0.0,0.0,0.0,0.0,0.0,0.0,0.0,0.0,0.0,0.0,0.0,0.0,0.0,0.0,0.0,0.0,0.0,0.0,0.0,0.0,0.0,0.0,0.0,0.0,0.0,0.0,0.0,0.0,0.0,0.0,0.0,0.0,0.0,0.0,0.0,0.0,0.0,0.0,0.0,0.0,0.0,0.0,0.0,0.0,0.0,0.0,0.0,0.0,0.0,0.0,0.0,0.0,0.0,0.0,0.0,0.0,0.0,0.0,0.0,0.0,0.0,0.0,0.0,0.0,0.0,0.0,0.0,0.0,0.0,0.0,0.0,0.0,0.0,0.0,0.0,0.0,0.0,0.0,0.0,0.0,0.0,0.0,0.0,0.0,0.0,0.0,0.0,0.0,0.0,0.0,0.0,0.0,0.0,0.0,0.0,-4.8469,-4.9158,-5.0724,-5.0905,-5.0863,-5.0801,-5.0729,-4.9274,-4.5915,-4.5711,0.0,0.0,0.0,0.0,0.0,0.0,0.0,0.0,0.0,0.0,0.0,0.0,0.0,0.0,0.0,0.0,0.0,0.0,0.0,0.0,0.0,0.0,0.0,0.0,0.0,0.0,0.0,0.0,0.0,0.0,0.0,0.0,0.0,0.0,0.0,0.0,0.0,0.0,0.0,0.0,0.0,0.0,0.0,0.0,0.0,0.0,0.0,0.0,0.0,0.0,0.0,0.0,0.0,0.0,0.0,0.0,0.0,0.0,0.0,0.0,0.0,0.0,0.0,0.0,0.0,0.0,0.0,0.0,0.0,0.0,0.0,0.0,0.0,0.0,0.0,0.0,0.0,0.0,0.0,0.0,0.0,0.0,0.0,0.0,0.0,0.0,0.0,0.0,0.0,0.0,0.0,0.0,0.0,0.0,0.0,0.0,0.0,0.0,0.0,0.0,0.0,0.0,-4.9316,-5.0198,-5.084,-5.0905,-5.0863,-5.0801,-5.0729,-4.9274,-4.5915,0.0,0.0,0.0,0.0,0.0,0.0,0.0,0.0,0.0,0.0,0.0,0.0,0.0,0.0,0.0,0.0,0.0,0.0,0.0,0.0,0.0,0.0,0.0,0.0,0.0,0.0,0.0,0.0,0.0,0.0,0.0,0.0,0.0,0.0,0.0,0.0,0.0,0.0,0.0,0.0,0.0,0.0,0.0,0.0,0.0,0.0,0.0,0.0,0.0,0.0,0.0,0.0,0.0,0.0,0.0,0.0,0.0,0.0,0.0,0.0,0.0,0.0,0.0,0.0,0.0,0.0,0.0,0.0,0.0,0.0,0.0,0.0,0.0,0.0,0.0,0.0,0.0,0.0,0.0,0.0,0.0,0.0,0.0,0.0,0.0,0.0,0.0,0.0,0.0,0.0,0.0,0.0,0.0,0.0,0.0,0.0,0.0,0.0,0.0,0.0,0.0,0.0,-4.7975,-4.9679,-5.0897,-5.0898,-5.0893,-5.088,-5.0846,-5.0784,-4.9329,-4.5939,0.0,0.0,0.0,0.0,0.0,0.0,0.0,0.0,0.0,0.0,0.0,0.0,0.0,0.0,0.0,0.0,0.0,0.0,0.0,0.0,0.0,0.0,0.0,0.0,0.0,0.0,0.0,0.0,0.0,0.0,0.0,0.0,0.0,0.0,0.0,0.0,0.0,0.0,0.0,0.0,0.0,0.0,0.0,0.0,0.0,0.0,0.0,0.0,0.0,0.0,0.0,0.0,0.0,0.0,0.0,0.0,0.0,0.0,0.0,0.0,0.0,0.0,0.0,0.0,0.0,0.0,0.0,0.0,0.0,0.0,0.0,0.0,0.0,0.0,0.0,0.0,0.0,0.0,0.0,0.0,0.0,0.0,0.0,0.0,0.0,0.0,0.0,0.0,0.0,0.0,0.0,0.0,0.0,0.0,0.0,0.0,0.0,0.0,0.0,0.0,0.0,0.0,-4.7086,-4.9315,-5.0897,-5.0898,-5.0898,-5.0901,-5.0908,-5.0899,-4.9451,0.0,0.0,0.0,0.0,0.0,0.0,0.0,0.0,0.0,0.0,0.0,0.0,0.0,0.0,0.0,0.0,0.0,0.0,0.0,0.0,0.0,0.0,0.0,0.0,0.0,0.0,0.0,0.0,0.0,0.0,0.0,0.0,0.0,0.0,0.0,0.0,0.0,0.0,0.0,0.0,0.0,0.0,0.0,0.0,0.0,0.0,0.0,0.0,0.0,0.0,0.0,0.0,0.0,0.0,0.0,0.0,0.0,0.0,0.0,0.0,0.0,0.0,0.0,0.0,0.0,0.0,0.0,0.0,0.0,0.0,0.0,0.0,0.0,0.0,0.0,0.0,0.0,0.0,0.0,0.0,0.0,0.0,0.0,0.0,0.0,0.0,0.0,0.0,0.0,0.0,0.0,0.0,0.0,0.0,0.0,0.0,0.0,0.0,0.0,0.0,0.0,0.0,0.0,-4.7094,-4.932,-5.0909,-5.0898,-5.0898,-5.0901,-5.0908,-5.0899,-4.9451,-4.6024,0.0,0.0,0.0,0.0,0.0,0.0,0.0,0.0,0.0,0.0,0.0,0.0,0.0,0.0,0.0,0.0,0.0,0.0,0.0,0.0,0.0,0.0,0.0,0.0,0.0,0.0,0.0,0.0,0.0,0.0,0.0,0.0,0.0,0.0,0.0,0.0,0.0,0.0,0.0,0.0,0.0,0.0,0.0,0.0,0.0,0.0,0.0,0.0,0.0,0.0,0.0,0.0,0.0,0.0,0.0,0.0,0.0,0.0,0.0,0.0,0.0,0.0,0.0,0.0,0.0,0.0,0.0,0.0,0.0,0.0,0.0,0.0,0.0,0.0,0.0,0.0,0.0,0.0,0.0,0.0,0.0,0.0,0.0,0.0,0.0,0.0,0.0,0.0,0.0,0.0,0.0,0.0,0.0,0.0,0.0,0.0,0.0,0.0,0.0,0.0,0.0,0.0,-4.6549,-4.91,-5.0901,-5.0898,-5.0898,-5.089,-5.0905,-5.0905,-4.9745,-4.702,0.0,0.0,0.0,0.0,0.0,0.0,0.0,0.0,0.0,0.0,0.0,0.0,0.0,0.0,0.0,0.0,0.0,0.0,0.0,0.0,0.0,0.0,0.0,0.0,0.0,0.0,0.0,0.0,0.0,0.0,0.0,0.0,0.0,0.0,0.0,0.0,0.0,0.0,0.0,0.0,0.0,0.0,0.0,0.0,0.0,0.0,0.0,0.0,0.0,0.0,0.0,0.0,0.0,0.0,0.0,0.0,0.0,0.0,0.0,0.0,0.0,0.0,0.0,0.0,0.0,0.0,0.0,0.0,0.0,0.0,0.0,0.0,0.0,0.0,0.0,0.0,0.0,0.0,0.0,0.0,0.0,0.0,0.0,0.0,0.0,0.0,0.0,0.0,0.0,0.0,0.0,0.0,0.0,0.0,0.0,0.0,0.0,0.0,0.0,0.0,0.0,0.0,-4.57,-4.8739,-5.0897,-5.0898,-5.0898,-5.0898,-5.0898,-5.0898,-5.0183,-4.8508,0.0,0.0,0.0,0.0,0.0,0.0,0.0,0.0,0.0,0.0,0.0,0.0,0.0,0.0,0.0,0.0,0.0,0.0,0.0,0.0,0.0,0.0,0.0,0.0,0.0,0.0,0.0,0.0,0.0,0.0,0.0,0.0,0.0,0.0,0.0,0.0,0.0,0.0,0.0,0.0,0.0,0.0,0.0,0.0,0.0,0.0,0.0,0.0,0.0,0.0,0.0,0.0,0.0,0.0,0.0,0.0,0.0,0.0,0.0,0.0,-4.6308,-4.6308,0.0,0.0,0.0,0.0,0.0,0.0,0.0,0.0,0.0,0.0,0.0,0.0,0.0,0.0,0.0,0.0,0.0,0.0,0.0,0.0,0.0,0.0,0.0,0.0,0.0,0.0,0.0,0.0,0.0,0.0,0.0,0.0,0.0,0.0,0.0,0.0,0.0,0.0,0.0,0.0,-4.5708,-4.8744,-5.089,-5.0898,-5.0898,-5.0898,-5.0898,-5.0898,-5.0183,-4.8508,-4.8063,0.0,0.0,0.0,0.0,0.0,0.0,0.0,0.0,0.0,0.0,0.0,0.0,0.0,0.0,0.0,0.0,0.0,0.0,0.0,0.0,0.0,0.0,0.0,0.0,0.0,0.0,0.0,0.0,0.0,0.0,0.0,0.0,0.0,0.0,0.0,0.0,0.0,0.0,0.0,0.0,0.0,0.0,0.0,0.0,0.0,0.0,0.0,0.0,0.0,0.0,0.0,0.0,0.0,0.0,0.0,0.0,0.0,0.0,0.0,-4.6482,-4.6306,0.0,0.0,0.0,0.0,0.0,0.0,0.0,0.0,0.0,0.0,0.0,0.0,0.0,0.0,0.0,0.0,0.0,0.0,0.0,0.0,0.0,0.0,0.0,0.0,0.0,0.0,0.0,0.0,0.0,0.0,0.0,0.0,0.0,0.0,0.0,0.0,0.0,0.0,0.0,0.0,-4.5708,-4.8752,-5.0898,-5.0898,-5.0898,-5.0898,-5.0898,-5.0898,-5.0531,-4.9668,-4.8856,0.0,0.0,0.0,0.0,0.0,0.0,0.0,0.0,0.0,0.0,0.0,0.0,0.0,0.0,0.0,0.0,0.0,0.0,0.0,0.0,0.0,0.0,0.0,0.0,0.0,0.0,0.0,0.0,0.0,0.0,0.0,0.0,0.0,0.0,0.0,0.0,0.0,0.0,0.0,0.0,0.0,0.0,0.0,0.0,0.0,0.0,0.0,0.0,0.0,0.0,0.0,0.0,0.0,-4.5384,-4.5443,-4.5501,-4.6948,-4.7591,-4.7547,-4.6689,-4.6475,-4.6711,-4.6579,0.0,0.0,0.0,0.0,0.0,0.0,0.0,0.0,0.0,0.0,0.0,0.0,0.0,0.0,0.0,0.0,0.0,0.0,0.0,0.0,0.0,0.0,-4.7148,-4.875,-4.8457,-4.8104,-4.9117,0.0,0.0,0.0,0.0,0.0,0.0,0.0,0.0,0.0,0.0,0.0,-4.5715,-4.8651,-5.0709,-5.0709,-5.0709,-5.065,-5.0511,-5.0639,-5.0658,-5.0511,-4.9202,-4.7991,0.0,0.0,0.0,0.0,0.0,0.0,0.0,0.0,0.0,0.0,0.0,0.0,0.0,0.0,0.0,0.0,0.0,0.0,0.0,0.0,0.0,0.0,0.0,0.0,0.0,0.0,0.0,0.0,0.0,0.0,0.0,0.0,-4.5958,-4.5969,0.0,0.0,0.0,0.0,0.0,0.0,0.0,0.0,0.0,0.0,0.0,0.0,0.0,-4.5535,-4.6282,-4.5442,-4.5386,-4.6149,-4.6908,-4.7255,-4.7269,-4.7497,-4.7592,-4.7551,-4.6674,0.0,-4.8422,-4.7711,0.0,0.0,0.0,0.0,0.0,0.0,0.0,0.0,0.0,0.0,0.0,0.0,0.0,0.0,0.0,0.0,0.0,0.0,0.0,0.0,0.0,0.0,-4.8808,-4.9785,-4.9355,-4.916,-5.0722,-4.8552,-4.677,-4.8411,-4.6649,-4.4796,0.0,0.0,0.0,0.0,0.0,0.0,-4.5773,-4.8227,-4.9949,-4.9949,-4.9949,-4.9666,-4.8967,-4.9543,-4.9647,-4.8947,-4.8701,-4.7853,-4.6219,-4.8386,0.0,0.0,0.0,0.0,0.0,0.0,0.0,0.0,0.0,0.0,0.0,0.0,0.0,0.0,0.0,0.0,0.0,0.0,0.0,0.0,0.0,0.0,0.0,0.0,0.0,0.0,0.0,0.0,0.0,-4.5407,-4.6058,-4.703,-4.6677,-4.6109,0.0,0.0,0.0,0.0,0.0,0.0,0.0,0.0,0.0,-4.6197,-4.6371,-4.6634,-4.703,-4.7147,-4.7381,-4.7772,-4.8142,-4.8333,-4.8347,-4.881,-4.9,-4.8981,-4.8605,-4.8859,-4.9389,-4.7606,-4.6867,-4.6731,0.0,0.0,0.0,0.0,-4.4195,-4.396,-4.4741,-4.5327,-4.5641,-4.5155,0.0,0.0,0.0,0.0,0.0,0.0,0.0,-4.5801,-4.6777,-4.7598,-4.8516,-4.9883,-4.9902,-4.9824,-5.0566,-4.8788,-4.7556,-4.9295,-4.7425,-4.5387,-4.4799,-4.4734,0.0,0.0,0.0,-4.7017,-4.6639,-4.8475,-4.9634,-4.9168,-4.9129,-4.8986,-4.8627,-4.8914,-4.8986,-4.8627,-4.8608,-4.8042,-4.6839,-4.8291,-4.775,0.0,0.0,0.0,0.0,0.0,0.0,0.0,0.0,0.0,0.0,0.0,0.0,0.0,0.0,0.0,0.0,0.0,0.0,0.0,0.0,0.0,0.0,0.0,0.0,0.0,0.0,0.0,0.0,-4.5345,-4.6198,-4.7704,-4.727,-4.6596,0.0,0.0,0.0,0.0,0.0,0.0,-4.6528,-4.6744,-4.6862,-4.6866,-4.7546,-4.7926,-4.793,-4.8574,-4.8906,-4.8904,-4.9118,-4.9213,-4.9228,-4.9827,-5.0097,-5.0097,-4.9854,-4.9772,-4.9599,-4.7499,-4.6625,-4.6546,-4.5675,-4.5208,-4.4993,-4.4991,-4.4991,-4.4991,-4.4991,-4.5577,-4.6183,-4.5543,-4.5173,-4.496,-4.4746,0.0,0.0,0.0,0.0,-4.5586,-4.666,-4.7265,-4.793,-4.9238,-4.9707,-4.9863,-4.9863,-4.8496,-4.7772,-4.9531,-4.7863,-4.5996,-4.5478,-4.5894,0.0,-4.3794,-4.6102,-4.7777,-4.6991,-4.8231,-4.8973,-4.8358,-4.828,-4.8213,-4.799,-4.8174,-4.8213,-4.7995,-4.7995,-4.7719,-4.7118,-4.7864,-4.7393,-4.551,0.0,0.0,0.0,0.0,0.0,0.0,0.0,0.0,0.0,0.0,0.0,0.0,0.0,0.0,0.0,0.0,0.0,0.0,0.0,0.0,0.0,0.0,0.0,0.0,0.0,0.0,0.0,0.0,0.0,-4.6957,-4.7018,0.0,0.0,0.0,0.0,-4.4946,-4.6479,-4.7427,-4.7427,-4.8217,-4.8674,-4.8662,-4.8716,-4.8766,-4.8828,-4.8886,-4.8905,-4.8904,-4.9678,-5.0043,-5.0041,-5.0071,-5.0106,-5.0048,-4.9228,-4.8876,-4.8798,-4.7909,-4.7521,-4.7445,-4.6573,-4.5735,-4.4992,-4.5006,-4.5004,-4.5004,-4.5004,-4.557,-4.6295,-4.6242,-4.568,-4.4842,-4.4022,-4.4316,0.0,0.0,-4.4961,-4.6055,-4.5311,-4.6367,-4.7617,-4.7714,-4.8359,-4.8965,-4.8965,-4.7597,-4.6873,-4.8631,-4.7515,-4.6507,-4.7145,0.0,-4.6709,-4.49,-4.6177,-4.7051,-4.6171,-4.6931,-4.75,-4.7466,-4.7466,-4.7157,-4.6383,-4.7025,-4.7138,-4.6364,-4.6329,-4.6309,-4.6254,-4.7025,-4.7407,-4.7276,-4.6435,0.0,0.0,0.0,0.0,0.0,0.0,0.0,0.0,0.0,0.0,0.0,0.0,0.0,0.0,0.0,0.0,0.0,0.0,0.0,0.0,0.0,0.0,0.0,0.0,0.0,0.0,0.0,0.0,-4.8126,-4.7978,0.0,-4.8224,-4.7811,-4.7501,-4.7423,-4.7992,-4.8339,-4.8339,-4.8627,-4.879,-4.8798,-4.9388,-4.9706,-4.9745,-5.0253,-5.0504,-5.0517,-5.0806,-5.0938,-5.0931,-5.0947,-5.0945,-5.0887,-5.0026,-4.9636,-4.9579,-4.8724,-4.806,-4.7572,-4.7263,-4.6601,-4.5839,-4.5838,-4.5836,-4.5836,-4.5836,-4.6032,-4.6306,-4.6294,-4.6086,-4.5777,-4.5466,-4.5585,-4.5761,-4.5469,-4.582,-4.623,-4.5918,-4.6308,-4.6893,-4.7479,-4.7849,-4.8063,-4.8063,-4.7572,-4.7159,-4.7217,-4.673,-4.6529,-4.7274,-4.833,-4.8655,-4.7391,-4.8225,-4.8665,-4.7848,-4.754,-4.7192,-4.6676,-4.6621,-4.6512,-4.6215,-4.6458,-4.6512,-4.6215,-4.6199,-4.6199,-4.6199,-4.6473,-4.6621,-4.6621,-4.6298,-4.5695,0.0,0.0,0.0,0.0,0.0,0.0,0.0,0.0,0.0,0.0,0.0,0.0,0.0,0.0,0.0,0.0,0.0,0.0,0.0,0.0,0.0,0.0,0.0,0.0,0.0,-4.5495,-4.6991,-4.8872,-4.8749,-4.8773,-4.9444,-4.8856,-4.8544,-4.8779,-4.904,-4.9196,-4.9196,-4.9474,-4.964,-4.9677,-5.0283,-5.0603,-5.0605,-5.1131,-5.14,-5.1393,-5.1408,-5.1402,-5.1394,-5.1394,-5.124,-5.0951,-5.0653,-5.036,-5.0071,-4.9796,-4.9189,-4.8406,-4.8113,-4.7647,-4.7139,-4.7139,-4.6963,-4.669,-4.6397,-4.63,-4.6302,-4.6306,-4.6294,-4.63,-4.6303,-4.6305,-4.6307,-4.6308,-4.6308,-4.6308,-4.6308,-4.6308,-4.6444,-4.703,-4.7166,-4.7165,-4.7165,-4.6928,-4.6631,-4.6355,-4.6296,-4.6468,-4.6942,-4.7984,-4.8436,-4.7485,-4.7591,-4.7573,-4.705,-4.6472,-4.6025,-4.5795,-4.602,-4.6199,-4.6199,-4.5939,-4.59,-4.6176,-4.5919,-4.59,-4.6199,-4.5919,-4.576,-4.576,-4.5722,-4.5393,-4.4788,0.0,0.0,0.0,0.0,0.0,0.0,0.0,0.0,0.0,0.0,0.0,0.0,0.0,0.0,0.0,0.0,0.0,0.0,0.0,0.0,0.0,0.0,0.0,-4.5105,-4.6768,-4.8143,-4.9033,-4.9245,-4.9383,-4.9525,-4.8949,-4.8656,-4.8853,-4.9605,-5.0034,-5.0034,-5.0813,-5.1297,-5.1353,-5.1357,-5.1354,-5.1367,-5.1383,-5.1398,-5.1398,-5.1403,-5.1394,-5.1394,-5.1394,-5.0931,-5.0198,-5.1027,-5.0912,-5.0217,-5.1047,-5.0906,-5.0046,-4.9189,-4.8818,-4.8798,-4.8798,-4.831,-4.7508,-4.6632,-4.6339,-4.6339,-4.6339,-4.6326,-4.6293,-4.6294,-4.6301,-4.6307,-4.6307,-4.6308,-4.6308,-4.6307,-4.6308,-4.6308,-4.6307,-4.6308,-4.6308,-4.6308,-4.5644,-4.529,-4.6146,-4.6293,-4.6306,-4.6338,-4.6343,-4.6053,-4.5195,-4.4311,0.0,-4.3769,-4.3733,-4.4026,-4.4846,-4.5659,-4.6176,-4.6199,-4.5402,-4.5262,-4.6137,-4.5402,-4.532,-4.6176,-4.5383,-4.4943,-4.4943,-4.4797,-4.5553,-4.726,0.0,0.0,0.0,0.0,0.0,0.0,0.0,0.0,0.0,0.0,0.0,0.0,0.0,0.0,0.0,0.0,0.0,0.0,0.0,0.0,0.0,-4.3272,-4.4972,-4.6023,-4.7111,-4.8353,-4.9805,-4.9996,-5.0097,-5.0278,-5.0217,-5.0254,-5.0445,-5.0757,-5.095,-5.095,-5.0628,-5.0442,-5.0455,-5.0499,-5.0525,-5.0526,-5.1109,-5.1396,-5.1393,-5.14,-5.1394,-5.1394,-5.1394,-5.1279,-5.1066,-5.1299,-5.126,-5.1066,-5.1299,-5.1258,-5.0965,-5.0085,-4.9364,-4.8798,-4.8798,-4.8662,-4.8349,-4.753,-4.7237,-4.7237,-4.7243,-4.6818,-4.6295,-4.6302,-4.6306,-4.6307,-4.6308,-4.6308,-4.6308,-4.6308,-4.6308,-4.6307,-4.6307,-4.6306,-4.6305,-4.6305,-4.6106,-4.6005,-4.6257,-4.6296,-4.6495,-4.7125,-4.7207,-4.7517,-4.8516,-4.7939,-4.7362,-4.7362,-4.6817,-4.6272,-4.5884,-4.548,-4.5499,-4.6157,-4.5402,-4.5262,-4.6137,-4.5978,-4.5958,-4.6199,-4.5978,-4.5838,-4.5838,-4.5184,-4.5332,0.0,0.0,0.0,0.0,0.0,0.0,0.0,0.0,0.0,0.0,0.0,0.0,0.0,0.0,0.0,0.0,0.0,0.0,0.0,0.0,0.0,0.0,-4.4113,-4.5831,-4.736,-4.8028,-4.8831,-5.0149,-5.0302,-5.0374,-5.0586,-5.0711,-5.0877,-5.1074,-5.123,-5.13,-5.13,-5.0852,-5.045,-5.0111,-5.0493,-5.0522,-5.0153,-5.0971,-5.1397,-5.1394,-5.1402,-5.1394,-5.1394,-5.1394,-5.1201,-5.0873,-5.124,-5.1182,-5.0873,-5.126,-5.1394,-5.1355,0.0,0.0,0.0,0.0,-4.9345,-4.9228,-4.8411,-4.814,-4.8141,-4.8149,-4.7801,-4.7392,-4.7397,-4.6872,-4.6307,-4.6308,-4.5762,-4.5293,-4.5664,-4.5762,-4.5859,-4.621,-4.6307,-4.6306,-4.6306,-4.6011,-4.5869,-4.6231,-4.6006,0.0,-4.6914,-4.6696,-4.6645,-4.7316,-4.6956,-4.6758,-4.7123,-4.6715,-4.6355,-4.622,-4.5758,-4.5639,-4.6157,-4.5402,0.0,0.0,0.0,-4.5659,-4.5659,-4.5659,0.0,0.0,0.0,-4.5088,-4.6538,-4.6036,0.0,0.0,-4.696,-4.6213,0.0,0.0,0.0,0.0,0.0,0.0,0.0,0.0,0.0,0.0,0.0,0.0,0.0,0.0,0.0,0.0,-4.4895,-4.6405,-4.8766,-4.911,-4.9396,-5.0206,-5.0302,-5.0374,-5.0586,-5.0711,-5.0877,-5.1074,-5.123,-5.13,-5.13,-5.1207,0.0,0.0,0.0,-5.0879,-5.011,-5.097,-5.1399,-5.1398,-5.1405,-5.1396,-5.1394,-5.1394,-5.099,-5.0294,-5.1066,-5.0951,-5.0313,-5.1086,-5.1394,-5.1394,-5.1394,-5.1394,-5.1297,-5.0416,-5.0165,-5.0127,-4.9316,0.0,0.0,-4.9035,-4.8979,-4.89,-4.8901,-4.7829,-4.6581,-4.6581,-4.5488,-4.4433,-4.5117,-4.5293,-4.5469,-4.6133,-4.6308,-4.6308,-4.6308,-4.5683,-4.5387,-4.6153,-4.5677,-4.539,-4.6166,-4.5609,-4.483,-4.4222,-4.4168,-4.4473,-4.5231,-4.543,-4.5708,-4.6277,-4.6259,0.0,-4.6199,-4.5402,-4.5262,-4.6137,-4.546,-4.5044,-4.5044,-4.5044,-4.4682,-4.3903,-4.3884,-4.507,-4.746,-4.746,-4.8645,-5.0821,-4.785,-4.725,0.0,0.0,0.0,0.0,0.0,0.0,0.0,0.0,0.0,0.0,0.0,0.0,0.0,0.0,0.0,-4.3892,-4.5859,-4.7742,-4.8938,-4.911,-4.9396,-5.0206,-5.0302,-5.0374,-5.0586,-5.0711,-5.0877,-5.1074,-5.123,-5.13,-5.13,-5.0683,-5.0254,-5.0104,-5.0266,-5.0264,-5.0109,-5.0953,-5.1402,-5.1398,-5.1391,0.0,-5.1394,-5.1394,-5.1316,-5.1162,-5.1336,-5.1299,-5.1162,-5.1336,-5.1394,-5.1394,-5.1394,-5.1394,-5.1297,-5.0416,-5.0539,-5.1036,-5.0178,-4.987,-4.9874,-4.9938,-4.947,-4.8904,-4.8906,-4.8652,0.0,-4.8398,-4.8144,-4.7773,-4.7246,-4.7109,-4.6953,-4.6426,-4.6308,-4.6308,-4.6308,-4.6171,-4.6093,-4.6266,-4.6152,-4.6108,-4.6277,-4.6093,-4.6138,-4.6677,-4.7356,-4.785,-4.8012,-4.8612,-4.8552,-4.7364,-4.6622,-4.6209,-4.6203,-4.5402,-4.5262,-4.6137,-4.604,-4.5958,-4.5958,-4.5958,-4.588,-4.5702,-4.5702,-4.6569,-4.8349,-4.8349,-4.9233,-5.0879,-5.0221,-5.0105,0.0,0.0,0.0,0.0,0.0,0.0,0.0,0.0,0.0,0.0,0.0,-4.096,-4.1466,0.0,-4.4427,-4.5687,-4.6967,-4.8239,-4.9519,-4.9691,-4.9843,-5.0245,-5.0302,-5.0374,-5.0586,-5.0711,-5.0877,-5.1074,-5.123,-5.1308,-5.1349,-5.0976,-5.0542,-5.0108,-5.0528,-5.0539,-5.009,-5.0954,-5.1404,-5.1402,-5.1395,-5.1407,-5.1402,-5.1396,-5.1394,-5.1394,-5.1394,-5.1394,-5.1394,-5.1394,-5.1394,-5.1394,-5.1394,-5.1394,-5.1355,-5.0912,-5.1034,-5.1333,-5.0909,-5.0756,-5.0758,-5.078,-5.0507,-5.0156,-5.0156,-4.957,-4.8906,-4.8906,-4.8262,-4.7598,-4.7598,-4.7598,-4.7598,-4.7598,-4.7266,-4.6953,-4.6952,-4.6601,-4.6308,-4.6308,-4.6305,-4.6295,-4.6303,-4.6249,-4.6348,-4.6783,-4.7596,-4.8314,-4.8736,-4.9152,-4.9086,-4.824,-4.7366,-4.6672,-4.6242,-4.5799,-4.574,-4.6176,-4.6199,-4.6199,-4.6199,-4.6199,-4.6199,-4.6199,-4.6199,-4.6789,-4.7995,-4.8391,-4.92,-5.0359,-5.0728,-5.0898,0.0,0.0,0.0,0.0,0.0,0.0,0.0,-4.0655,-4.1001,-4.0941,-4.1714,-4.2668,-4.3588,-4.4438,-4.5649,-4.7723,-4.817,-4.8774,-5.0111,-5.0302,-5.0302,-5.0302,-5.0302,-5.0374,-5.0586,-5.0696,-5.0867,-5.1074,-5.1211,-5.13,-5.1391,-5.1394,-5.1076,-5.036,-5.1022,-5.1066,-5.0364,-5.1052,-5.1405,-5.1405,-5.1398,-5.1393,-5.1409,-5.1402,-5.1396,-5.1394,-5.1394,-5.1394,-5.1394,-5.1394,-5.1394,-5.1394,-5.1388,-5.1384,-5.1386,-5.1405,-5.1391,-5.1395,-5.1403,-5.1405,-5.1405,-5.1406,-5.1406,-5.1406,-5.1406,-5.0469,-4.9394,-4.9394,-4.8379,-4.7422,-4.7969,-4.8105,-4.8242,-4.8769,-4.8359,-4.7851,-4.7851,-4.7285,-4.6797,-4.6795,-4.6788,-4.6793,-4.6791,-4.6733,-4.6599,-4.6245,-4.695,-4.7754,-4.8456,-4.8833,-4.8974,-4.8824,-4.8319,-4.7577,-4.654,-4.6303,-4.6199,-4.6199,-4.6199,-4.6199,-4.6199,-4.6199,-4.6199,-4.6199,-4.6199,-4.6606,-4.7392,-4.8213,-4.9005,-4.9827,-5.0569,-5.0898,-3.7018,-3.6196,-3.6577,-3.8089,-3.9823,-4.1136,0.0,-4.2946,-4.441,-4.3729,-4.4828,-4.6203,-4.7073,-4.7952,-4.8621,-4.8907,-4.9557,-5.0092,-5.0264,-5.0302,-5.0302,-5.0302,-5.0302,-5.0374,-5.0586,-5.0616,-5.0758,-5.1081,-5.1117,-5.1191,-5.1388,-5.1394,-5.1369,-5.1258,-5.1352,-5.1359,-5.1262,-5.1346,-5.1406,-5.1405,-5.1404,-5.14,-5.1409,-5.1408,-5.1403,-5.1394,-5.1394,-5.1394,-5.1394,-5.1394,-5.1394,-5.1392,-5.1339,-5.1301,-5.133,-5.1379,-5.1397,-5.1404,-5.1404,-5.1406,-5.1406,-5.1406,-5.1406,-5.1406,-5.1406,-5.1269,-5.1113,-5.1113,-5.0976,-5.0683,-5.0078,-4.9902,-4.9746,-4.9062,-4.8828,-4.8749,-4.875,-4.8632,-4.8513,-4.8529,-4.8518,-4.8519,-4.8513,-4.8505,-4.7972,-4.642,-4.695,-4.754,-4.7637,-4.8931,-4.9585,-4.8874,-4.935,-4.9078,-4.7496,-4.6646,-4.6199,-4.6199,-4.6199,-4.6199,-4.6199,-4.6199,-4.6199,-4.6199,-4.6199,-4.6606,-4.7392,-4.8213,-4.9005,-4.9827,-5.0569,-5.0898,-3.8708,-3.8855,-3.9501,-4.1097,-4.25,-4.3542,-4.367,-4.4895,-4.5929,-4.5587,-4.6849,-4.813,-4.8498,-4.885,-4.9263,-4.971,-4.9691,-4.9767,-5.0225,-5.0302,-5.0302,-5.0302,-4.9882,-4.9677,-4.9836,-5.0298,-5.0496,-5.0259,-5.0771,-5.1103,-5.1108,-5.1291,-5.1357,-5.1296,-5.1356,-5.1405,-5.1405,-5.1406,-5.1406,-5.1406,-5.1405,-5.1404,-5.14,-5.1394,-5.1405,-5.1392,-5.1325,-5.1288,-5.1284,-5.1203,-5.1187,-5.1219,-5.1189,-5.1217,-5.1242,-5.1275,-5.1277,-5.1294,-5.1325,-5.1335,-5.1358,-5.1386,-5.1406,-5.1406,-5.1406,-5.1406,-5.1406,-5.1406,-5.1406,-5.1328,-5.0996,-5.0898,-5.0801,-5.0449,-5.0,-4.9648,-4.9609,-4.9177,-4.88,-4.88,-4.8802,-4.8794,-4.88,-4.8802,-4.8555,-4.7827,-4.8015,-4.8436,-4.8884,-4.9566,-4.9864,-4.953,-4.9377,-4.8808,-4.7598,-4.7166,-4.673,-4.6219,-4.6199,-4.6199,-4.6199,-4.6199,-4.6199,-4.6199,-4.6199,-4.6364,-4.6695,-4.75,-4.8058,-4.8363,-4.913,-4.9496,-3.9978,-4.0668,-4.1354,-4.3039,-4.4306,-4.5238,-4.5646,-4.6375,-4.7046,-4.7275,-4.828,-4.9177,-4.94,-4.9435,-4.9614,-5.0206,-4.9805,-4.9633,-5.0225,-5.0302,-5.0225,-4.9996,-4.9442,-4.8947,-4.8567,-4.9528,-5.0096,-4.9879,-5.0545,-5.0939,-5.0894,-5.1137,-5.1236,-5.1151,-5.1263,-5.1343,-5.1365,-5.1365,-5.1365,-5.1365,-5.1357,-5.133,-5.1348,-5.1327,-5.1338,-5.1338,-5.1207,-5.1146,-5.1141,-5.1042,-5.1045,-5.1092,-5.1084,-5.1106,-5.1167,-5.1122,-5.1152,-5.121,-5.1258,-5.1286,-5.1301,-5.1361,-5.1386,-5.1406,-5.1406,-5.1406,-5.1406,-5.1406,-5.1406,-5.1406,-5.1406,-5.1406,-5.1406,-5.1406,-5.0956,-5.0526,-5.0468,-4.9954,-4.9517,-4.9518,-4.9515,-4.9525,-4.9522,-4.9497,-4.9496,-4.9488,-4.9488,-4.9527,-4.9644,-4.9859,-5.0091,-5.033,-4.961,-4.8788,-4.792,-4.7638,-4.7125,-4.6261,-4.6199,-4.6199,-4.6199,-4.6199,-4.6199,-4.6199,-4.6199,-4.6199,-4.6199,-4.6982,-4.7354,-4.7315,-4.8138,-4.8619,-4.0093,-4.014,-4.0051,-4.2115,-4.3931,-4.5437,-4.6345,-4.7287,-4.818,-4.8957,-4.9116,-4.936,-5.0191,-5.0317,-5.0264,-5.0302,-5.0283,-5.0264,-5.0302,-5.0302,-5.0015,-4.9243,-4.911,-4.8441,-4.6759,-4.8135,-4.9546,-5.051,-5.0606,-5.0696,-5.088,-5.0901,-5.0945,-5.0996,-5.1147,-5.1235,-5.1299,-5.1299,-5.1299,-5.1299,-5.1242,-5.1219,-5.1198,-5.1147,-5.1141,-5.1193,-5.1054,-5.1008,-5.1008,-5.1008,-5.1045,-5.1086,-5.1024,-5.105,-5.1089,-5.0959,-5.1036,-5.1203,-5.1203,-5.1252,-5.1297,-5.1299,-5.1358,-5.1406,-5.1406,-5.1406,-5.1406,-5.1406,-5.1406,-5.1406,-5.1406,-5.1406,-5.1406,-5.1405,-5.1386,-5.1367,-5.1356,-5.1337,-5.1317,-5.132,-5.1327,-5.1316,-5.1319,-5.1265,-5.1225,-5.1226,-5.1222,-5.0657,-4.904,-4.9527,-5.0326,-5.1168,-5.0483,-4.9648,-4.8827,-4.798,-4.7125,-4.6261,-4.6199,-4.6199,-4.6199,-4.6199,-4.6199,-4.6199,-4.6199,-4.6199,-4.6199,-4.6945,-4.7296,-4.7315,-4.8139,-4.8942,-3.9518,-4.0388,-4.1675,-4.3852,-4.5237,-4.6332,-4.7367,-4.8299,-4.899,-4.9219,-4.8796,-4.8459,-4.8743,-4.8269,-4.8026,-4.8619,-4.8681,-4.903,-5.0149,-4.9347,-4.9163,-5.0588,-4.9767,-4.9519,-5.0569,-4.971,-4.8998,-4.875,-4.9892,-5.0577,-5.0499,-5.0747,-5.0847,-5.0739,-5.0956,-5.1089,-5.1106,-5.119,-5.1219,-5.1219,-5.1214,-5.1191,-5.1189,-5.1176,-5.1147,-5.1123,-5.0991,-5.0926,-5.0939,-5.0828,-5.0867,-5.0966,-5.0941,-5.0948,-5.0959,-5.0914,-5.0928,-5.1011,-5.1095,-5.117,-5.1249,-5.1286,-5.1357,-5.1406,-5.1406,-5.1406,-5.1406,-5.1406,-5.1406,-5.1406,-5.1404,-5.1402,-5.1402,-5.1397,-5.1394,-5.1391,-5.1409,-5.1407,-5.14,-5.1408,-5.1394,-5.1397,-5.1343,-5.1303,-5.1308,-5.13,-5.13,-5.1106,-5.0521,-5.0696,-5.0969,-5.1261,-5.105,-5.0519,-4.9667,-4.9335,-4.8566,-4.7145,-4.7063,-4.6803,-4.6219,-4.6199,-4.6199,-4.6199,-4.6199,-4.6199,-4.6199,-4.7034,-4.7404,-4.7391,-4.8239,-4.8788,-4.0181,-4.1329,-4.2881,-4.5162,-4.64,-4.7286,-4.8337,-4.924,-4.9846,-4.9807,-4.9345,-4.8749,-4.8115,-4.7717,-4.758,-4.7888,-4.8359,-4.9079,-5.0172,-4.9664,-4.9641,-5.099,-5.0187,-5.0149,-5.1754,-5.0455,-4.9289,-4.8743,-4.9548,-5.001,-4.9874,-5.0134,-5.0383,-5.0558,-5.0815,-5.0953,-5.0953,-5.1108,-5.1133,-5.1097,-5.1097,-5.1127,-5.1167,-5.112,-5.0903,-5.0612,-5.0821,-5.0701,-5.0426,-5.0675,-5.0829,-5.0899,-5.0899,-5.0905,-5.0898,-5.0898,-5.0898,-5.0921,-5.1056,-5.1142,-5.1214,-5.1282,-5.1357,-5.1406,-5.1406,-5.1406,-5.1406,-5.1406,-5.1406,-5.1406,-5.1401,-5.1398,-5.1396,-5.1403,-5.1396,-5.1394,-5.14,-5.1396,-5.1392,-5.1401,-5.1405,-5.1388,-5.1317,-5.1296,-5.13,-5.13,-5.13,-5.13,-5.13,-5.13,-5.13,-5.13,-5.13,-5.0959,-5.0076,-4.9993,-4.9413,-4.8044,-4.7953,-4.7715,-4.715,-4.7131,-4.7131,-4.7131,-4.7131,-4.7131,-4.7131,-4.7673,-4.7915,-4.7883,-4.844,-4.8859,-4.1881,-4.2849,-4.3654,-4.5978,-4.7322,-4.8306,-4.926,-5.0106,-5.0693,-5.0635,-5.047,-4.9835,-4.8126,-4.8342,-4.8577,-4.7968,-4.9127,-5.0161,-5.0313,-5.0948,-5.1162,-5.0455,-5.0378,-5.0417,-5.055,-5.0474,-5.0417,-5.0378,-4.9614,-4.9167,-4.9167,-4.922,-4.9637,-5.0451,-5.0737,-5.0879,-5.0886,-5.1017,-5.103,-5.0898,-5.0898,-5.0961,-5.1087,-5.0956,-5.0491,-4.9808,-5.0565,-5.0392,-4.9644,-5.0543,-5.0908,-5.0908,-5.0908,-5.0905,-5.0898,-5.0898,-5.0898,-5.0921,-5.1056,-5.1137,-5.1207,-5.1274,-5.1335,-5.1386,-5.1386,-5.1406,-5.1406,-5.1406,-5.1406,-5.1406,-5.1399,-5.1396,-5.1393,-5.1406,-5.1384,-5.141,-5.1401,-5.1406,-5.139,-5.1399,-5.1403,-5.1369,-5.1314,-5.1296,-5.13,-5.13,-5.13,-5.13,-5.13,-5.13,-5.13,-5.13,-5.13,-5.0975,-5.0133,-5.0071,-4.9725,-4.8904,-4.885,-4.8845,-4.8806,-4.8806,-4.8806,-4.8806,-4.8806,-4.8806,-4.8806,-4.8787,-4.8779,-4.8779,-4.8816,-4.9288,-4.1816,-4.3617,-4.5827,-4.7144,-4.8184,-4.9161,-5.0144,-5.0539,-5.0519,-4.9875,-4.8212,-4.6529,-4.5453,-4.4833,-4.4835,-4.5879,-4.6851,-4.7933,-4.9255,-4.9052,-4.9392,-5.1066,-5.1276,-5.2021,-5.3932,-5.2919,-5.1907,-5.1314,-5.0474,-4.9996,-4.9996,-5.0012,-5.0119,-5.0348,-5.0506,-5.0625,-5.068,-5.0851,-5.0925,-5.0898,-5.0898,-5.0921,-5.094,-5.0925,-5.079,-5.0615,-5.0809,-5.0782,-5.0631,-5.0879,-5.0975,-5.0975,-5.0975,-5.0941,-5.0898,-5.0898,-5.0898,-5.0921,-5.1056,-5.1103,-5.1136,-5.1142,-5.1236,-5.133,-5.133,-5.1362,-5.1406,-5.1403,-5.1402,-5.1398,-5.1408,-5.1396,-5.1391,-5.1333,-5.133,-5.1336,-5.1394,-5.1401,-5.1399,-5.1403,-5.1356,-5.1312,-5.1308,-5.1304,-5.13,-5.13,-5.13,-5.13,-5.13,-5.13,-5.13,-5.13,-5.13,-5.1211,-5.0995,-5.0962,-5.0605,-4.9745,-4.9691,-4.943,-4.8826,-4.8806,-4.8806,-4.8806,-4.8806,-4.8806,-4.8806,-4.9387,-4.9676,-4.9676,-5.0334,-5.0762,-4.3353,-4.4794,-4.6587,-4.8053,-4.8851,-4.9441,-5.0,-5.0125,-4.9779,-4.8567,-4.7163,-4.5682,-4.4066,-4.3892,-4.4307,-4.5285,-4.668,-4.7982,-4.8971,-4.8976,-4.9442,-5.0856,-5.136,-5.2308,-5.4085,-5.3359,-5.2461,-5.1658,-5.0474,-4.9767,-4.9767,-4.9805,-4.9977,-5.0283,-5.0451,-5.0596,-5.0701,-5.0833,-5.0882,-5.0869,-5.0882,-5.0882,-5.0869,-5.0882,-5.072,-5.0387,-5.0809,-5.0792,-5.0511,-5.0898,-5.102,-5.1005,-5.0963,-5.0921,-5.0898,-5.0898,-5.0898,-5.0914,-5.0983,-5.101,-5.103,-5.1125,-5.1195,-5.1266,-5.1291,-5.1325,-5.1355,-5.1397,-5.1395,-5.1403,-5.1405,-5.1394,-5.1388,-5.1326,-5.1307,-5.1317,-5.1355,-5.1361,-5.1355,-5.1356,-5.1335,-5.13,-5.13,-5.13,-5.13,-5.13,-5.13,-5.13,-5.13,-5.13,-5.13,-5.13,-5.13,-5.13,-5.13,-5.1295,-5.1091,-5.0605,-5.0576,-5.0362,-4.9917,-4.9898,-4.9898,-4.9898,-4.9898,-4.9898,-4.9898,-5.0346,-5.0579,-5.0579,-5.1067,-5.13,-4.5281,-4.6089,-4.688,-4.8741,-4.9384,-4.9567,-4.9567,-4.9471,-4.8913,-4.7259,-4.6712,-4.5874,-4.3662,-4.4342,-4.5343,-4.562,-4.7505,-4.8903,-4.8764,-4.9553,-5.0149,-5.0149,-5.0913,-5.1792,-5.2709,-5.2594,-5.2231,-5.1627,-5.0149,-4.9263,-4.9263,-4.9305,-4.963,-5.0283,-5.0485,-5.0664,-5.0784,-5.0841,-5.085,-5.0801,-5.085,-5.0841,-5.0784,-5.085,-5.0507,-4.9921,-5.0731,-5.0674,-5.0022,-5.0797,-5.106,-5.0986,-5.0941,-5.0906,-5.0898,-5.0898,-5.0898,-5.0898,-5.0898,-5.0898,-5.0925,-5.1108,-5.1174,-5.1199,-5.1238,-5.1266,-5.1305,-5.1341,-5.138,-5.1403,-5.1397,-5.1388,-5.1359,-5.1308,-5.1296,-5.131,-5.1291,-5.1291,-5.1303,-5.13,-5.1296,-5.1296,-5.1296,-5.1296,-5.13,-5.13,-5.13,-5.13,-5.13,-5.13,-5.13,-5.13,-5.13,-5.13,-5.13,-5.1305,-5.1291,-5.1308,-5.1297,-5.1296,-5.13,-5.1304,-5.13,-5.13,-5.13,-5.13,-5.13,-5.13,-5.13,-5.13,-5.13,-5.13,-4.506,-4.6727,-4.8731,-4.912,-4.9845,-5.0481,-5.0481,-4.9913,-4.8913,-4.7259,-4.5759,-4.4624,-4.4162,-4.4311,-4.4929,-4.6273,-4.7401,-4.7846,-4.7057,-4.8307,-4.932,-4.932,-5.0034,-5.1123,-5.2652,-5.1544,-5.0971,-5.1551,-5.0665,-5.0092,-5.0092,-5.0096,-5.0172,-5.0302,-5.0438,-5.0565,-5.0635,-5.0756,-5.081,-5.0801,-5.081,-5.0756,-5.0644,-5.0756,-5.0764,-5.0701,-5.0969,-5.1017,-5.0895,-5.105,-5.1069,-5.1005,-5.0998,-5.0956,-5.0898,-5.0898,-5.0898,-5.0898,-5.0898,-5.0898,-5.0906,-5.0947,-5.1024,-5.1109,-5.1002,-5.1117,-5.1288,-5.118,-5.1264,-5.1394,-5.1319,-5.1312,-5.1308,-5.13,-5.1304,-5.1292,-5.131,-5.13,-5.13,-5.13,-5.1295,-5.1295,-5.1295,-5.1308,-5.13,-5.13,-5.13,-5.13,-5.13,-5.13,-5.13,-5.13,-5.13,-5.13,-5.13,-5.1305,-5.1299,-5.1306,-5.1305,-5.1293,-5.1303,-5.1294,-5.13,-5.13,-5.13,-5.13,-5.13,-5.13,-5.13,-5.13,-5.13,-5.13,-4.5784,-4.7387,-4.9332,-4.9854,-5.0346,-5.0462,-4.9548,-4.9029,-4.8009,-4.5451,-4.4259,-4.3393,-4.2497,-4.2659,-4.3633,-4.5726,-4.6712,-4.7359,-4.7786,-4.8567,-4.911,-4.911,-4.9805,-5.0455,-5.0837,-5.0531,-5.0302,-5.0302,-4.9901,-4.9862,-5.0283,-5.0302,-5.0302,-5.0302,-5.0427,-5.0534,-5.0606,-5.0663,-5.0701,-5.0701,-5.0701,-5.0635,-5.0545,-5.0654,-5.0756,-5.0841,-5.0948,-5.053,-4.9828,-5.0739,-5.0545,-4.9787,-5.0622,-5.0941,-5.0898,-5.0898,-5.0898,-5.089,-5.085,-5.0861,-5.0833,-5.0763,-5.0839,-5.092,-5.087,-5.0901,-5.0994,-5.1074,-5.1167,-5.1248,-5.1292,-5.13,-5.13,-5.13,-5.1292,-5.1284,-5.1265,-5.1252,-5.1258,-5.1254,-5.124,-5.1254,-5.1287,-5.13,-5.1308,-5.1296,-5.13,-5.13,-5.13,-5.13,-5.13,-5.13,-5.13,-5.13,-5.13,-5.1294,-5.1308,-5.1295,-5.1303,-5.1308,-5.1302,-5.1308,-5.1297,-5.1297,-5.13,-5.13,-5.13,-5.13,-5.13,-5.13,-5.13,-5.13,-4.691,-4.8243,-4.9709,-5.05,-5.0712,-5.0289,-4.874,-4.824,-4.7259,-4.4259,-4.3355,-4.272,-4.1535,-4.1687,-4.2825,-4.537,-4.5956,-4.6739,-4.8575,-4.8676,-4.87,-4.9052,-4.9652,-4.9862,-4.9404,-4.9767,-4.9843,-4.9396,-4.9358,-4.9633,-5.0264,-5.0302,-5.0302,-5.0302,-5.0393,-5.0502,-5.0576,-5.0576,-5.0576,-5.0576,-5.0576,-5.0535,-5.0468,-5.0545,-5.0645,-5.0738,-5.0833,-4.9946,-4.8572,-5.0329,-5.0019,-4.8611,-5.0248,-5.0882,-5.0898,-5.0839,-5.0858,-5.0866,-5.0801,-5.0766,-5.0729,-5.0616,-5.0664,-5.0756,-5.0731,-5.0731,-5.0737,-5.0946,-5.1041,-5.1122,-5.123,-5.1284,-5.13,-5.13,-5.1304,-5.1282,-5.1215,-5.1206,-5.1196,-5.1208,-5.1205,-5.123,-5.1269,-5.1282,-5.1291,-5.1284,-5.1292,-5.1296,-5.1292,-5.1296,-5.13,-5.13,-5.13,-5.13,-5.13,-5.13,-5.1307,-5.1299,-5.1291,-5.1309,-5.1307,-5.1302,-5.1309,-5.1309,-5.1302,-5.1307,-5.1307,-5.1308,-5.13,-5.13,-5.13,-5.13,-4.8353,-4.9656,-5.0587,-5.0683,-5.0712,-5.0462,-4.949,-4.8663,-4.7586,-4.5748,-4.4162,-4.3278,-4.3855,-4.3412,-4.3791,-4.6282,-4.5466,-4.5333,-4.7677,-4.7331,-4.7395,-4.8919,-4.9167,-4.9461,-5.013,-4.9595,-4.948,-5.0149,-5.0187,-5.0225,-5.0302,-5.0302,-5.0302,-5.0302,-5.0314,-5.0382,-5.0521,-5.0521,-5.0521,-5.0521,-5.0521,-5.0438,-5.0325,-5.0448,-5.0514,-5.0537,-5.0729,-4.9834,-4.8376,-5.0167,-4.9885,-4.8481,-5.0152,-5.0852,-5.0882,-5.0681,-5.07,-5.0801,-5.0663,-5.0625,-5.0606,-5.0534,-5.0556,-5.0606,-5.0554,-5.0606,-5.0687,-5.0653,-5.0871,-5.1105,-5.1117,-5.1215,-5.13,-5.13,-5.1304,-5.1282,-5.1215,-5.119,-5.1203,-5.1194,-5.1192,-5.1194,-5.1219,-5.1259,-5.1282,-5.122,-5.1252,-5.1292,-5.1295,-5.1308,-5.13,-5.13,-5.13,-5.13,-5.13,-5.13,-5.1304,-5.1292,-5.1291,-5.1299,-5.1302,-5.1306,-5.1308,-5.1308,-5.1291,-5.1291,-5.1291,-5.1294,-5.13,-5.13,-5.13,-5.13,-4.687,-4.874,-5.0712,-5.0712,-5.0712,-5.0327,-4.8933,-4.8355,-4.7336,-4.4643,-4.3566,-4.2874,-4.2151,-4.1747,-4.22,-4.4233,-4.3976,-4.4555,-4.7529,-4.7661,-4.8041,-4.969,-4.9881,-4.9801,-4.9606,-4.9289,-4.9243,-4.9538,-4.9576,-4.9786,-5.0264,-5.0302,-5.0302,-5.0302,-5.0302,-5.0359,-5.05,-5.0416,-5.0416,-5.05,-5.0416,-5.0348,-5.0302,-5.0348,-5.0404,-5.044,-5.0567,-4.9076,-4.6801,-4.9618,-4.9153,-4.6929,-4.9631,-5.0691,-5.0718,-5.0635,-5.0635,-5.0673,-5.0566,-5.0535,-5.0514,-5.0416,-5.0404,-5.0418,-5.0393,-5.0418,-5.0476,-5.0567,-5.0708,-5.084,-5.1043,-5.1211,-5.13,-5.13,-5.1272,-5.1225,-5.1211,-5.1194,-5.12,-5.1202,-5.1194,-5.1206,-5.1208,-5.121,-5.1225,-5.1211,-5.1225,-5.1234,-5.1244,-5.1287,-5.13,-5.13,-5.1292,-5.13,-5.13,-5.13,-5.13,-5.13,-5.131,-5.1307,-5.1307,-5.1299,-5.1297,-5.1297,-5.1308,-5.1297,-5.1297,-5.1296,-5.1304,-5.13,-5.13,-5.13,-4.644,-4.846,-5.0712,-5.0712,-5.0308,-4.9548,-4.8086,-4.7355,-4.624,-4.3643,-4.2893,-4.2335,-4.1104,-4.0669,-4.1073,-4.2816,-4.306,-4.4025,-4.6858,-4.7261,-4.7863,-4.9496,-4.9666,-4.9606,-4.9495,-4.9473,-4.9442,-4.9442,-4.9442,-4.9691,-5.0264,-5.0302,-5.0302,-5.0302,-5.0302,-5.0348,-5.0427,-5.0348,-5.0348,-5.0427,-5.0348,-5.0034,-4.9576,-5.0073,-5.0058,-4.9652,-5.024,-4.8854,-4.6436,-4.9433,-4.896,-4.6584,-4.9442,-5.0586,-5.0587,-5.0536,-5.0536,-5.0566,-5.047,-5.0427,-5.0435,-5.0325,-5.0302,-5.0302,-5.0302,-5.0302,-5.0337,-5.0464,-5.0587,-5.0733,-5.1024,-5.1211,-5.1296,-5.1292,-5.1239,-5.1206,-5.1201,-5.1197,-5.1202,-5.1202,-5.1202,-5.1208,-5.1192,-5.1203,-5.1194,-5.1205,-5.1201,-5.1206,-5.1201,-5.124,-5.1278,-5.1278,-5.1272,-5.1284,-5.13,-5.13,-5.13,-5.13,-5.13,-5.13,-5.13,-5.1291,-5.1294,-5.1294,-5.1296,-5.1308,-5.1303,-5.1307,-5.1299,-5.1294,-5.1292,-5.13,-4.8017,-4.9561,-5.0712,-5.0712,-4.9394,-4.7913,-4.7096,-4.5586,-4.4105,-4.3278,-4.2412,-4.1808,-4.1788,-4.1085,-4.1073,-4.2816,-4.3104,-4.3665,-4.5303,-4.5524,-4.6158,-4.7825,-4.7965,-4.8564,-5.0229,-5.0337,-5.0283,-5.0283,-5.0283,-5.0283,-5.0302,-5.0302,-5.0302,-5.0302,-5.0302,-5.0302,-5.0302,-5.0302,-5.0302,-5.0302,-5.0302,-4.9442,-4.7884,-4.9538,-4.9404,-4.7914,-4.9652,-4.9444,-4.802,-4.9841,-4.9566,-4.8145,-4.9831,-5.0535,-5.0586,-5.0374,-5.0382,-5.0489,-5.0348,-5.0302,-5.0302,-5.0302,-5.0302,-5.0302,-5.0302,-5.0302,-5.0302,-5.0302,-5.0538,-5.0847,-5.1049,-5.1211,-5.1296,-5.1295,-5.1249,-5.1201,-5.12,-5.1206,-5.1202,-5.1202,-5.1202,-5.1202,-5.1202,-5.1211,-5.1203,-5.1208,-5.1194,-5.1201,-5.1194,-5.1196,-5.1211,-5.1211,-5.1211,-5.123,-5.1296,-5.13,-5.13,-5.13,-5.13,-5.13,-5.13,-5.13,-5.13,-5.13,-5.1291,-5.1297,-5.1299,-5.1305,-5.1297,-5.1295,-5.1297,-5.13,-4.5421,-4.6369,-4.7364,-4.7952,-4.724,-4.6163,-4.5316,-4.4701,-4.3893,-4.2508,-4.1981,-4.1623,-4.1027,-4.0689,-4.1073,-4.2816,-4.3104,-4.4077,-4.6886,-4.7242,-4.7837,-4.9503,-4.9609,-4.9752,-5.0287,-4.9817,-4.971,-5.0264,-4.9786,-4.971,-5.0264,-5.0302,-5.0302,-5.0302,-5.0302,-5.0302,-5.0302,-5.0302,-5.0302,-5.0302,-5.0302,-4.9423,-4.7865,-4.9538,-4.9385,-4.7884,-4.9587,-4.9389,-4.7955,-4.9682,-4.9387,-4.8028,-4.972,-5.0382,-5.0385,-5.0325,-5.0325,-5.0359,-5.0314,-5.0302,-5.0302,-5.0302,-5.0302,-5.0302,-5.0302,-5.0302,-5.0302,-5.0302,-5.0466,-5.068,-5.0741,-5.0817,-5.092,-5.106,-5.1036,-5.1037,-5.1178,-5.1206,-5.1202,-5.1202,-5.1202,-5.1202,-5.1202,-5.1208,-5.1194,-5.1202,-5.12,-5.1206,-5.12,-5.1203,-5.1205,-5.1205,-5.1201,-5.1215,-5.123,-5.1272,-5.13,-5.13,-5.1292,-5.13,-5.13,-5.13,-5.13,-5.13,-5.1292,-5.1291,-5.1297,-5.1294,-5.1308,-5.1295,-5.1297,-5.13,-4.3778,-4.4748,-4.5729,-4.6278,-4.5528,-4.4509,-4.397,-4.3335,-4.2566,-4.1527,-4.1835,-4.1912,-4.0727,-4.1035,-4.1623,-4.2047,-4.3201,-4.4547,-4.6009,-4.6982,-4.7923,-4.8907,-4.9502,-4.9962,-5.0264,-4.9843,-4.9767,-5.0264,-4.9843,-4.9767,-5.0264,-5.0302,-5.0302,-5.0302,-5.0302,-5.0302,-5.0302,-5.0302,-5.0302,-5.0302,-5.0302,-4.9423,-4.7865,-4.9538,-4.9385,-4.7884,-4.9576,-4.971,0.0,-4.9862,-4.9691,-4.885,-4.9901,-5.0302,-5.0302,-5.0302,-5.0302,-5.0302,-5.0302,-5.0302,-5.0302,-5.0302,-5.0302,-5.0302,-5.0302,-5.0302,-5.0302,-5.0302,-5.044,-5.0557,-5.0557,-5.0614,-5.0687,-5.0813,-5.0882,-5.093,-5.105,-5.1145,-5.1202,-5.1202,-5.1202,-5.1202,-5.1202,-5.1202,-5.1202,-5.1202,-5.1202,-5.1202,-5.1202,-5.12,-5.1192,-5.1192,-5.1208,-5.12,-5.12,-5.1235,-5.1254,-5.1254,-5.1267,-5.128,-5.1308,-5.1308,-5.1292,-5.13,-5.1308,-5.1289,-5.13,-5.1269,-5.1278,-5.1307,-5.1299,-5.1307,0.0,-4.4228,-4.5248,-4.5306,-4.4105,-4.2912,-4.2912,-4.1662,0.0,-4.0669,-4.197,-4.2624,-4.1054,-4.2143,-4.272,-4.1035,-4.3498,-4.5075,-4.3594,-4.5454,-4.6877,-4.6633,-4.8124,-4.9422,-5.0065,-5.0225,-5.0302,-5.0302,-5.0302,-5.0302,-5.0302,-5.0302,-5.0302,-5.0302,-5.0302,-5.0302,-5.0302,-5.0302,-5.0245,-5.013,-5.0245,-4.9366,-4.7674,-4.948,-4.9385,-4.7884,-4.9576,-5.0302,-5.0302,-5.0302,-5.0302,-5.0302,-5.0302,-5.0302,-5.0302,-5.0302,-5.0302,-5.0302,-5.0302,-5.0302,-5.0302,-5.029,-5.0302,-5.0302,-5.029,-5.0302,-5.0302,-5.0302,-5.0396,-5.0476,-5.0476,-5.0529,-5.0565,-5.0586,-5.0728,-5.0879,-5.0902,-5.1069,-5.1202,-5.1202,-5.1202,-5.1196,-5.1196,-5.1196,-5.1171,-5.1184,-5.1171,-5.1196,-5.1196,-5.1196,-5.1202,-5.1202,-5.1202,-5.1202,-5.1202,-5.1194,-5.1206,-5.1206,-5.1206,-5.122,-5.1287,-5.1287,-5.1295,-5.1296,-5.1296,-5.1284,-5.1287,-5.1232,-5.1226,-5.1285,-5.1284,-5.1286,-4.0941,0.0,-4.1862,-4.2527,-4.1893,-4.1112,0.0,-4.0785,-4.0881,-4.22,-4.2816,-4.3162,-4.3374,-4.4286,-4.4671,-4.3585,-4.4652,-4.5708,-4.6045,-4.7594,-4.8202,-4.6767,-4.8627,-4.961,-4.8562,-4.958,-5.0302,-5.0302,-5.0302,-5.0302,-5.0302,-5.0302,-5.0302,-5.0302,-5.0302,-5.0302,-5.0302,-5.0302,-4.9671,-4.8399,-4.9691,-4.8754,-4.5984,-4.8945,-4.9385,-4.7884,-4.9576,-5.0302,-5.0302,-5.0302,-5.0302,-5.0302,-5.0302,-5.0302,-5.0302,-5.0302,-5.0302,-5.0302,-5.0302,-5.0302,-5.029,-5.0243,-5.0267,-5.029,-5.0243,-5.0267,-5.0302,-5.0302,-5.0283,-5.0264,-5.0264,-5.0197,-5.019,-5.0323,-5.048,-5.0659,-5.0871,-5.1069,-5.1202,-5.1202,-5.1202,-5.1165,-5.1056,-5.1043,-5.1023,-5.0986,-5.1009,-5.1043,-5.1043,-5.1146,-5.1202,-5.1202,-5.1206,-5.1211,-5.1202,-5.1197,-5.12,-5.12,-5.1201,-5.1211,-5.122,-5.122,-5.122,-5.1225,-5.1225,-5.1215,-5.121,-5.1218,-5.1213,-5.1217,-5.1223,-5.123,-4.0375,-4.0465,-4.0804,-4.2085,-4.1431,-4.0708,-4.1516,-4.1073,-4.0997,-4.2739,-4.3104,-4.3239,-4.3662,-4.4157,-4.4328,-4.3825,-4.4498,-4.5665,-4.7326,-4.7893,-4.776,-4.671,-4.7797,-4.8406,-4.789,-4.9339,-5.0302,-5.0302,-5.0302,-5.0302,-5.0302,-5.0302,-5.0302,-5.0302,-5.0302,-5.0302,-5.0302,-5.0302,-4.9461,-4.7807,-4.95,-4.8945,-4.6538,-4.9117,-4.9805,-4.8965,-4.9098,-4.9595,-5.0245,-4.948,-4.9614,-5.0302,-5.0302,-5.0302,-5.0302,-5.0302,-5.0302,-5.0302,-5.0302,-5.0302,-5.029,-5.0267,-5.0255,-5.0255,-5.02,-5.0188,-5.0219,-5.0255,-5.0219,-5.0158,-5.0133,-5.0025,-4.9959,-5.0012,-5.0152,-5.0336,-5.0519,-5.075,-5.0925,-5.1035,-5.1069,-5.1035,-5.0974,-5.0947,-5.0932,-5.0906,-5.0937,-5.0947,-5.0947,-5.103,-5.1114,-5.1114,-5.1156,-5.1197,-5.1202,-5.1192,-5.1203,-5.1211,-5.1203,-5.12,-5.119,-5.119,-5.1196,-5.1211,-5.1196,-5.1205,-5.1194,-5.1191,-5.1199,-5.1197,-5.1191,-5.1221,-4.0473,-4.0496,-4.092,-4.2662,-4.1777,-4.0958,-4.2701,-4.1739,-4.1073,-4.3066,-4.347,-4.3528,-4.3662,-4.4047,-4.411,-4.3401,-4.4191,-4.5614,-4.7713,-4.7557,-4.7069,-4.6663,-4.6948,-4.7348,-4.7772,-4.9328,-5.0302,-5.0302,-5.0302,-5.0302,-5.0302,-5.0302,-5.0302,-5.0302,-5.0302,-5.0302,-5.0302,-5.0302,-4.9461,-4.7807,-4.95,-4.9423,-4.7865,-4.9538,-5.0302,-5.0225,-4.8812,-4.9003,-5.0187,-4.8774,-4.8965,-5.0111,-5.0111,-5.0034,-4.9939,-5.0073,-5.0111,-5.013,-5.0264,-5.0302,-5.0302,-5.029,-5.0255,-5.0188,-5.0175,-5.0158,-5.0108,-5.0126,-5.0108,-5.0044,-4.9992,-4.9912,-4.9802,-4.9673,-4.9814,-4.9987,-5.0152,-5.0357,-5.0586,-5.0847,-5.0898,-5.0898,-5.0882,-5.0882,-5.0874,-5.0866,-5.0874,-5.0882,-5.0882,-5.0932,-5.099,-5.1004,-5.1113,-5.1192,-5.1189,-5.1197,-5.1203,-5.1202,-5.1202,-5.1194,-5.1203,-5.1203,-5.1194,-5.1196,-5.1194,-5.1203,-5.1203,-5.1194,-5.1194,-5.1202,-5.1202,-5.1229,-4.0473,-4.0496,-4.092,-4.2662,-4.1777,-4.0958,-4.2701,-4.1739,-4.1401,-4.4556,-4.5229,-4.5432,-4.6182,-4.8095,-4.8355,-4.4701,-4.5569,-4.6788,-4.7067,-4.8249,-4.8495,-4.6886,-4.8539,-4.9311,-4.8018,-4.935,-5.0302,-5.0302,-5.0302,-5.0302,-5.0302,-5.0302,-5.0302,-5.0302,-5.0302,-5.0302,-5.0302,-5.0302,-4.9461,-4.7807,-4.95,-4.9423,-4.7865,-4.9538,-5.0302,-5.0283,-5.0034,-5.0054,-5.0283,-5.0015,-4.9671,-4.927,-4.927,-4.8831,-4.8266,-4.9003,-4.927,-4.9366,-5.0054,-5.0302,-5.029,-5.0224,-5.02,-5.0188,-5.0133,-5.0108,-5.007,-4.9898,-4.9843,-4.983,-4.9816,-4.964,-4.9476,-4.9446,-4.9603,-4.9834,-5.0128,-5.0357,-5.0586,-5.0847,-5.0898,-5.0882,-5.0827,-5.0819,-5.0793,-5.075,-5.0785,-5.0819,-5.0819,-5.0874,-5.0959,-5.1076,-5.1107,-5.1142,-5.1203,-5.121,-5.12,-5.1202,-5.1202,-5.1202,-5.1208,-5.1208,-5.1189,-5.1194,-5.1189,-5.1208,-5.1208,-5.1202,-5.1189,-5.1211,-5.1211,-5.1203,-4.0473,-4.0496,-4.115,-4.3786,-4.2459,-4.1439,-4.4989,-4.3047,-4.1728,-4.6067,-4.4767,-4.3536,-4.5778,-4.6429,-4.6477,-4.5954,-4.7712,-4.8968,-4.843,-4.8646,-4.8493,-4.752,-4.8417,-4.8777,-4.7928,-4.9339,-5.0302,-5.0302,-5.0302,-5.0302,-5.0302,-5.0302,-5.0302,-5.0302,-5.0302,-5.0302,-5.0302,-5.0302,-4.9461,-4.7807,-4.95,-4.9423,-4.7865,-4.9538,-5.0302,-5.0245,-4.9347,-4.9213,-4.9576,-4.864,-4.8315,-4.8391,-4.8391,-4.8162,-4.7903,-4.8774,-4.911,-4.9224,-5.0015,-5.0302,-5.029,-5.0248,-5.0219,-5.0145,-5.0108,-5.0057,-4.9965,-4.9792,-4.9778,-4.9778,-4.963,-4.9491,-4.9384,-4.9305,-4.9362,-4.9491,-4.9721,-4.9949,-5.0195,-5.0479,-5.0663,-5.0785,-5.0749,-5.074,-5.074,-5.0693,-5.0731,-5.0749,-5.0757,-5.0836,-5.0941,-5.1037,-5.1056,-5.1101,-5.1189,-5.1173,-5.1156,-5.1202,-5.1202,-5.1202,-5.1202,-5.1202,-5.1202,-5.1202,-5.1202,-5.1202,-5.1202,-5.1202,-5.1202,-5.1202,-5.1202,-5.1202,-4.0476,-4.0508,-4.1227,-4.4267,-4.2747,-4.1824,-4.6932,-4.4162,-4.1958,-4.7048,-4.4682,-4.2613,-4.5633,-4.4864,-4.4599,-4.7074,-4.9093,-5.0232,-4.9961,-4.9339,-4.8829,-4.8634,-4.8593,-4.8531,-4.8403,-4.9557,-5.0302,-5.0302,-5.0302,-5.0302,-5.0302,-5.0302,-5.0302,-5.0302,-5.0302,-5.0302,-5.0302,-5.0302,-4.9671,-4.8399,-4.9691,-4.9633,-4.8418,-4.971,-5.0302,-5.0225,-4.8735,-4.8487,-4.8976,-4.7436,-4.7092,-4.7502,-4.7502,-4.7502,-4.7589,-4.8239,-4.8747,-4.9186,-4.9805,-5.0149,-5.0302,-5.0302,-5.0219,-5.012,-5.0108,-5.0005,-4.9843,-4.9673,-4.963,-4.9615,-4.9399,-4.9321,-4.9257,-4.9162,-4.9129,-4.9179,-4.9368,-4.9573,-4.979,-5.0043,-5.0358,-5.0575,-5.0575,-5.0653,-5.0712,-5.0712,-5.0624,-5.0585,-5.0586,-5.0625,-5.069,-5.0769,-5.0786,-5.0832,-5.0933,-5.0911,-5.0935,-5.0983,-5.1121,-5.1202,-5.1202,-5.1202,-5.1202,-5.1202,-5.1202,-5.1202,-5.1202,-5.1202,-5.1202,-5.1202,-5.1202,-5.1202,-4.0474,-4.0503,-4.0958,-4.2816,-4.1873,-4.1824,-4.6932,-4.4162,-4.1958,-4.7048,-4.6567,-4.5787,-4.7586,-4.6617,-4.6129,-4.8012,-4.8514,-4.9187,-5.068,-5.0789,-5.064,-5.0433,-5.0352,-5.0265,-5.0142,-5.0225,-5.0302,-5.0302,-5.0302,-5.0302,-5.0302,-5.0302,-5.0302,-5.0302,-5.0302,-5.0302,-5.0302,-5.0302,-5.0245,-5.013,-5.0245,-5.0245,-5.013,-5.0245,-5.0302,-5.0245,-4.9385,-4.9052,-4.9033,-4.8086,-4.7272,-4.6596,-4.6596,-4.6596,-4.6596,-4.6672,-4.7704,-4.911,-4.9167,-4.9671,-5.0302,-5.0302,-5.0255,-5.0175,-5.012,-4.9965,-4.9745,-4.9491,-4.934,-4.9228,-4.9211,-4.9079,-4.8925,-4.8926,-4.8926,-4.901,-4.9337,-4.943,-4.9499,-4.9776,-5.0062,-5.0249,-5.0249,-5.0493,-5.0712,-5.0712,-5.0432,-5.023,-5.023,-5.0087,-5.0024,-5.0149,-5.0172,-5.0175,-5.0172,-5.0302,-5.0361,-5.0361,-5.0898,-5.1202,-5.1202,-5.1202,-5.1202,-5.1202,-5.1202,-5.1202,-5.1202,-5.1202,-5.1202,-5.1202,-5.1202,-5.1202,-4.0452,-4.05,-4.117,-4.3959,-4.2555,-4.1824,-4.6932,-4.5009,-4.3566,-4.8663,-4.6682,-4.4239,-4.4874,-4.6279,-4.7545,-4.8275,-4.9334,-5.028,-5.09,-5.0976,-5.0887,-5.0682,-5.0596,-5.0514,-5.039,-5.0325,-5.0302,-5.0302,-5.0302,-5.0302,-5.0302,-5.0302,-5.0302,-5.0302,-5.0302,-5.0302,-5.0302,-5.0302,-5.02,-4.9981,-5.0212,-5.0302,-5.0302,-5.0302,-5.0034,-4.9538,-4.9243,-4.8468,-4.7455,-4.7131,-4.65,-4.5755,-4.5755,-4.5755,-4.5812,-4.6328,-4.7264,-4.8372,-4.8907,-4.9633,-5.0302,-5.0302,-5.0248,-5.0163,-5.0012,-4.9885,-4.9736,-4.9368,-4.9244,-4.9162,-4.9046,-4.896,-4.8909,-4.8909,-4.8909,-4.8925,-4.9061,-4.9257,-4.9427,-4.9529,-4.9762,-4.9943,-4.9943,-5.005,-5.0142,-5.0142,-5.0038,-4.9981,-5.0056,-5.0006,-5.0037,-5.0202,-5.0186,-5.0111,-4.9983,-5.0065,-5.0103,-5.0103,-5.0683,-5.1022,-5.1022,-5.114,-5.1202,-5.1202,-5.1202,-5.1202,-5.1202,-5.1202,-5.1202,-5.1202,-5.1202,-5.1202,-4.046,-4.0508,-4.1189,-4.4094,-4.2651,-4.1824,-4.6932,-4.5509,-4.4393,-4.8933,-4.7556,-4.5359,-4.4786,-4.6689,-4.835,-4.8392,-4.9431,-5.0409,-5.0972,-5.1037,-5.0947,-5.0808,-5.0718,-5.0616,-5.0492,-5.0396,-5.0352,-5.0325,-5.0314,-5.0248,-5.0144,-5.0236,-5.0248,-5.0144,-5.0236,-5.0302,-5.0302,-5.0302,-5.0144,-4.9863,-5.0114,-5.0151,-5.0038,-4.9846,-4.9494,-4.8976,-4.8517,-4.7641,-4.6502,-4.6243,-4.5793,-4.5307,-4.5307,-4.5307,-4.5383,-4.5927,-4.6825,-4.7884,-4.8487,-4.9404,-5.0302,-5.0302,-5.0243,-5.0126,-4.9946,-4.9802,-4.9615,-4.9292,-4.9146,-4.9079,-4.8943,-4.8909,-4.8909,-4.8909,-4.8909,-4.8909,-4.8909,-4.9077,-4.9241,-4.9241,-4.9484,-4.9665,-4.9665,-4.9749,-4.9803,-4.9803,-4.9749,-4.9749,-4.9825,-4.9817,-4.9819,-4.9936,-4.9911,-4.9803,-4.9599,-4.9684,-4.9745,-4.9745,-5.0227,-5.0604,-5.0808,-5.0935,-5.1076,-5.1196,-5.1202,-5.1202,-5.1202,-5.1202,-5.1202,-5.1202,-5.1202,-5.1202,-4.0493,-4.0515,-4.092,-4.2662,-4.1797,-4.1843,-4.6894,-4.5509,-4.4066,-4.7413,-4.9535,-5.0226,-4.8412,-4.8265,-4.8423,-4.8406,-4.8475,-4.9143,-5.0957,-5.1082,-5.1009,-5.0993,-5.0879,-5.0752,-5.0606,-5.0537,-5.0474,-5.0412,-5.0337,-5.0156,-4.983,-5.0132,-5.0144,-4.9817,-5.0132,-5.0302,-5.0302,-5.0302,-5.0207,-5.0005,-5.0005,-4.9819,-4.9476,-4.8859,-4.8669,-4.8699,-4.7226,-4.6593,-4.6517,-4.5642,-4.5297,-4.5297,-4.5297,-4.5297,-4.5297,-4.5297,-4.6366,-4.7807,-4.7807,-4.8896,-5.0302,-5.0302,-5.0207,-5.0082,-4.9952,-4.9669,-4.9368,-4.9228,-4.9046,-4.8909,-4.8909,-4.8909,-4.8909,-4.8909,-4.8909,-4.8909,-4.8909,-4.8909,-4.8909,-4.8909,-4.9176,-4.9399,-4.9399,-4.9612,-4.9784,-4.9784,-4.9627,-4.9499,-4.9499,-4.938,-4.9276,-4.9214,-4.9214,-4.9113,-4.8926,-4.9079,-4.9214,-4.9214,-4.9512,-4.9947,-5.0573,-5.06,-5.0782,-5.1171,-5.1196,-5.1196,-5.1196,-5.1202,-5.1202,-5.1202,-5.1202,-5.1202,-4.1975,-4.1423,-4.092,-4.2662,-4.2701,-4.272,-4.4239,-4.472,-4.547,-4.7644,-4.8528,-4.8391,-4.672,-4.8388,-4.9682,-4.8637,-4.9437,-5.0419,-5.1107,-5.1165,-5.1108,-5.1009,-5.0875,-5.0761,-5.0692,-5.0566,-5.047,-5.0412,-5.039,-5.0314,-5.0156,-5.0248,-5.0248,-5.0156,-5.0248,-5.0302,-5.0302,-5.0337,-5.0139,-4.9646,-4.9689,-4.9674,-4.955,-4.8787,-4.8143,-4.7545,-4.6531,-4.5779,-4.5248,-4.514,-4.4905,-4.4707,-4.514,-4.5042,-4.4682,-4.4887,-4.6041,-4.7516,-4.7516,-4.8729,-5.0302,-5.0302,-5.0207,-5.0057,-4.9759,-4.9562,-4.9352,-4.9079,-4.8943,-4.8909,-4.8909,-4.8909,-4.8909,-4.8909,-4.8909,-4.8909,-4.8909,-4.8909,-4.8909,-4.8909,-4.8976,-4.9044,-4.9044,-4.9125,-4.9171,-4.9171,-4.9193,-4.9244,-4.9352,-4.9321,-4.9276,-4.9214,-4.9166,-4.9083,-4.8909,-4.896,-4.8995,-4.8995,-4.909,-4.939,-4.9935,-5.0238,-5.0452,-5.0557,-5.0832,-5.0981,-5.0981,-5.114,-5.1202,-5.1202,-5.1202,-5.1202,-4.2799,-4.2335,-4.2104,-4.4489,-4.4085,-4.3278,-4.3932,-4.4883,-4.6268,-4.8644,-4.919,-4.8915,-4.7899,-4.9421,-5.0529,-4.9633,-5.031,-5.0995,-5.1184,-5.1202,-5.1159,-5.103,-5.094,-5.0827,-5.0747,-5.0635,-5.0544,-5.0478,-5.0435,-5.0325,-5.0156,-5.0259,-5.029,-5.0156,-5.0294,-5.0371,-5.0371,-5.0424,-5.0144,-4.9569,-4.9612,-4.9525,-4.9293,-4.8202,-4.7471,-4.6968,-4.5895,-4.5153,-4.4712,-4.4821,-4.4739,-4.4581,-4.5217,-4.5243,-4.4965,-4.544,-4.6474,-4.7705,-4.7844,-4.8859,-5.012,-5.0188,-5.0133,-4.9946,-4.9617,-4.9427,-4.9257,-4.8995,-4.8909,-4.8909,-4.8909,-4.8909,-4.8909,-4.8909,-4.8909,-4.8909,-4.8909,-4.8909,-4.8909,-4.8909,-4.8909,-4.8909,-4.8909,-4.8909,-4.8909,-4.8909,-4.903,-4.92,-4.9358,-4.9324,-4.9276,-4.9214,-4.9133,-4.9049,-4.8909,-4.8909,-4.8909,-4.8909,-4.8909,-4.904,-4.936,-4.9775,-5.0045,-5.0175,-5.0423,-5.0622,-5.075,-5.0848,-5.0988,-5.1082,-5.1108,-5.1108,-4.3297,-4.322,-4.3835,-4.6874,-4.5355,-4.3624,-4.5614,-4.5941,-4.6749,-5.0038,-5.0677,-5.0692,-5.0789,-5.0914,-5.0997,-5.103,-5.1004,-5.1043,-5.1171,-5.1202,-5.1159,-5.1037,-5.1004,-5.0947,-5.0836,-5.0756,-5.0702,-5.0614,-5.0511,-5.0298,-4.9981,-5.0264,-5.0275,-4.9968,-5.031,-5.05,-5.05,-5.0511,-5.0252,-4.974,-4.9726,-4.9435,-4.8886,-4.7372,-4.6693,-4.6686,-4.5343,-4.4793,-4.4839,-4.4866,-4.4866,-4.4901,-4.557,-4.5792,-4.5814,-4.6521,-4.7312,-4.8104,-4.8428,-4.9081,-4.9817,-5.0038,-4.9992,-4.9783,-4.9491,-4.9273,-4.9113,-4.8943,-4.8909,-4.8909,-4.8909,-4.8909,-4.8909,-4.8909,-4.8909,-4.8909,-4.8909,-4.8909,-4.8909,-4.8909,-4.8909,-4.8909,-4.8909,-4.8909,-4.8909,-4.8926,-4.9079,-4.9262,-4.9474,-4.9374,-4.9276,-4.9211,-4.9133,-4.9049,-4.8926,-4.8926,-4.8909,-4.8909,-4.8909,-4.8909,-4.8909,-4.9274,-4.9621,-4.9933,-4.9949,-5.0144,-5.0461,-5.0481,-5.0632,-5.0898,-5.0954,-5.0954,-4.4701,-4.4105,-4.3278,-4.4008,-4.3624,-4.4239,-4.8615,-4.8529,-4.8163,-5.0269,-4.9726,-4.928,-5.0634,-5.0906,-5.0966,-5.1121,-5.1076,-5.1043,-5.1171,-5.1202,-5.1196,-5.1159,-5.1056,-5.099,-5.0954,-5.0906,-5.0841,-5.0763,-5.0726,-5.0662,-5.0519,-5.0557,-5.0517,-5.0446,-5.0483,-5.05,-5.05,-5.0542,-5.0396,-5.0006,-4.9838,-4.9612,-4.9233,-4.738,-4.6203,-4.5621,-4.5311,-4.5466,-4.598,-4.6229,-4.6153,-4.5937,-4.6546,-4.6472,-4.6066,-4.6424,-4.7047,-4.7772,-4.8082,-4.8838,-4.9684,-4.9999,-4.9717,-4.928,-4.9365,-4.9092,-4.8749,-4.8874,-4.8909,-4.8909,-4.8909,-4.8909,-4.8909,-4.8909,-4.8909,-4.8909,-4.8909,-4.8909,-4.8909,-4.8909,-4.8909,-4.8909,-4.8909,-4.8909,-4.896,-4.9113,-4.9162,-4.9262,-4.9474,-4.9345,-4.9228,-4.9276,-4.9183,-4.9084,-4.9049,-4.9068,-4.9015,-4.8909,-4.8909,-4.8909,-4.8909,-4.9125,-4.9299,-4.937,-4.9626,-4.993,-5.0267,-5.043,-5.0632,-5.0898,-5.0921,-5.0932,-4.4126,-4.4355,-4.4489,-4.5297,-4.6124,-4.7239,-4.9113,-4.9468,-4.9651,-5.0601,-5.0132,-4.9822,-5.077,-5.1007,-5.1075,-5.119,-5.1133,-5.1121,-5.1196,-5.1202,-5.119,-5.1114,-5.1043,-5.0983,-5.0966,-5.0921,-5.089,-5.0855,-5.0811,-5.0775,-5.075,-5.0707,-5.0699,-5.0699,-5.0682,-5.0692,-5.0644,-5.0683,-5.0506,-5.0147,-4.9904,-4.9372,-4.8544,-4.7543,-4.6643,-4.5862,-4.5862,-4.6069,-4.6426,-4.6587,-4.6522,-4.6413,-4.7079,-4.7134,-4.6869,-4.7341,-4.773,-4.8083,-4.8418,-4.8776,-4.9113,-4.9397,-4.9142,-4.8795,-4.9005,-4.8836,-4.866,-4.8927,-4.8962,-4.8909,-4.8909,-4.8909,-4.8909,-4.8909,-4.8909,-4.8909,-4.8909,-4.8909,-4.8909,-4.8909,-4.8909,-4.8909,-4.8909,-4.8943,-4.9047,-4.9181,-4.9228,-4.9311,-4.9474,-4.9343,-4.926,-4.9308,-4.9183,-4.9101,-4.9101,-4.9032,-4.8979,-4.8909,-4.8909,-4.8909,-4.8909,-4.8995,-4.9062,-4.9062,-4.923,-4.9483,-4.9817,-5.0042,-5.0303,-5.0577,-5.0805,-5.0906,-4.2953,-4.4299,-4.5998,-4.7682,-4.898,-4.9633,-4.8894,-4.9594,-5.0497,-5.0848,-5.0921,-5.0925,-5.099,-5.1114,-5.1202,-5.1202,-5.1202,-5.1202,-5.1202,-5.1202,-5.1159,-5.1043,-5.1037,-5.1016,-5.0971,-5.0944,-5.0929,-5.0906,-5.0879,-5.0835,-5.075,-5.0792,-5.0811,-5.0724,-5.0839,-5.0858,-5.0775,-5.0738,-5.0557,-5.023,-4.9878,-4.9093,-4.7906,-4.7906,-4.746,-4.6717,-4.6717,-4.6791,-4.6903,-4.6903,-4.6903,-4.6977,-4.7579,-4.7822,-4.7879,-4.842,-4.8587,-4.855,-4.887,-4.8782,-4.8495,-4.8745,-4.8548,-4.831,-4.8622,-4.8605,-4.8569,-4.898,-4.8996,-4.8909,-4.8909,-4.8909,-4.8909,-4.8909,-4.8909,-4.8909,-4.8909,-4.8909,-4.8909,-4.8909,-4.8909,-4.8909,-4.8909,-4.9015,-4.9116,-4.9197,-4.926,-4.9358,-4.9474,-4.9374,-4.9308,-4.9324,-4.9197,-4.9139,-4.9202,-4.9078,-4.897,-4.8899,-4.8953,-4.8915,-4.8803,-4.8874,-4.8909,-4.8909,-4.8909,-4.9061,-4.9399,-4.9627,-4.9878,-5.0206,-5.0625,-5.0805,-4.2698,-4.4143,-4.5998,-4.7682,-4.7236,-4.7092,-4.9847,-4.9558,-4.9146,-5.0678,-5.0983,-5.099,-5.0997,-5.1114,-5.1202,-5.1202,-5.1202,-5.1202,-5.1202,-5.1202,-5.1196,-5.119,-5.1165,-5.1165,-5.1153,-5.1153,-5.1089,-5.0902,-5.1049,-5.0961,-5.0558,-5.0824,-5.0808,-5.0448,-5.0743,-5.0805,-5.0635,-5.0517,-5.0425,-5.0372,-4.9754,-4.9198,-4.8742,-4.8742,-4.8296,-4.7534,-4.7534,-4.7943,-4.8574,-4.8574,-4.8574,-4.8593,-4.8687,-4.8691,-4.8639,-4.875,-4.8661,-4.855,-4.887,-4.8713,-4.8364,-4.8692,-4.831,-4.784,-4.8495,-4.8402,-4.8229,-4.8911,-4.8996,-4.8909,-4.8909,-4.8909,-4.8909,-4.8909,-4.8909,-4.8909,-4.8909,-4.8909,-4.8909,-4.8909,-4.8909,-4.8909,-4.8909,-4.9015,-4.9116,-4.9197,-4.926,-4.9358,-4.9474,-4.9374,-4.934,-4.9459,-4.9313,-4.9308,-4.9603,-4.9509,-4.928,-4.8938,-4.918,-4.9082,-4.8495,-4.875,-4.8909,-4.8909,-4.8909,-4.9061,-4.9399,-4.9427,-4.9712,-5.0206,-5.0374,-5.0625,-4.3535,-4.4068,-4.4872,-4.8625,-4.761,-4.6614,-5.0061,-4.961,-4.8954,-5.0733,-5.1114,-5.1114,-5.1114,-5.1159,-5.1202,-5.1202,-5.1202,-5.1202,-5.1202,-5.1202,-5.1202,-5.1202,-5.1202,-5.1202,-5.1202,-5.1202,-5.1159,-5.1063,-5.1042,-5.0932,-5.075,-5.0711,-5.0641,-5.047,-5.0596,-5.0615,-5.0477,-5.0342,-5.0147,-4.9844,-4.9544,-4.9225,-4.8909,-4.8909,-4.8723,-4.837,-4.837,-4.8574,-4.8909,-4.8909,-4.8909,-4.8909,-4.8909,-4.8891,-4.8875,-4.8875,-4.8787,-4.8661,-4.8623,-4.8458,-4.8209,-4.8018,-4.7715,-4.7503,-4.7959,-4.8037,-4.8111,-4.8678,-4.8856,-4.8909,-4.8909,-4.8909,-4.8909,-4.8909,-4.8909,-4.8909,-4.8909,-4.8909,-4.8909,-4.8909,-4.8909,-4.8909,-4.8909,-4.9047,-4.9183,-4.9197,-4.9092,-4.9125,-4.9459,-4.9025,-4.88,-4.9075,-4.8783,-4.8624,-4.8785,-4.8725,-4.8729,-4.8898,-4.9021,-4.908,-4.8949,-4.9102,-4.9104,-4.8891,-4.8909,-4.8959,-4.9127,-4.9321,-4.9514,-4.9749,-5.0206,-5.0477,-4.3555,-4.3602,-4.3781,-4.8212,-4.7187,-4.5901,-4.8941,-4.8702,-4.8366,-5.0161,-5.0891,-5.1202,-5.1202,-5.1202,-5.1202,-5.1202,-5.1202,-5.1202,-5.1202,-5.1202,-5.1202,-5.1202,-5.1202,-5.1202,-5.1202,-5.1202,-5.1153,-5.1023,-5.0952,-5.0839,-5.0653,-5.0558,-5.0441,-5.0347,-5.045,-5.045,-5.0342,-5.0164,-4.9825,-4.9352,-4.9305,-4.9144,-4.8909,-4.8909,-4.8909,-4.8909,-4.8909,-4.8909,-4.8909,-4.8909,-4.8909,-4.8909,-4.8909,-4.8909,-4.8909,-4.8909,-4.8856,-4.8769,-4.8476,-4.8305,-4.8108,-4.7578,-4.7363,-4.7345,-4.7545,-4.7793,-4.8073,-4.8495,-4.875,-4.8909,-4.8909,-4.8909,-4.8909,-4.8909,-4.8909,-4.8909,-4.8909,-4.8909,-4.8909,-4.8909,-4.8909,-4.8909,-4.8943,-4.9079,-4.9214,-4.9211,-4.8937,-4.8903,-4.926,-4.8641,-4.829,-4.8604,-4.8309,-4.8128,-4.8229,-4.8163,-4.8273,-4.8659,-4.8898,-4.898,-4.8871,-4.9215,-4.9193,-4.875,-4.8856,-4.8909,-4.8909,-4.916,-4.9321,-4.9396,-4.993,-5.0245,-4.1694,-4.242,-4.3158,-4.5093,-4.449,-4.3904,-4.5738,-4.6141,-4.6638,-4.8386,-5.0056,-5.1202,-5.1202,-5.1202,-5.1202,-5.1202,-5.1202,-5.1202,-5.1202,-5.1202,-5.1202,-5.1202,-5.1202,-5.1202,-5.1202,-5.1202,-5.1016,-5.0567,-5.0767,-5.0625,-4.998,-5.0292,-5.0325,-4.9946,-5.0292,-5.041,-5.0218,-4.9886,-4.9537,-4.9214,-4.9029,-4.8926,-4.8909,-4.8909,-4.8909,-4.8909,-4.8909,-4.8909,-4.8909,-4.8909,-4.8909,-4.8909,-4.8909,-4.8909,-4.8909,-4.8909,-4.8856,-4.8787,-4.8642,-4.842,-4.8128,-4.7783,-4.7511,-4.7345,-4.7545,-4.7793,-4.8073,-4.8495,-4.875,-4.8909,-4.8909,-4.8909,-4.8909,-4.8909,-4.8909,-4.8909,-4.8909,-4.8909,-4.8909,-4.8909,-4.8909,-4.8926,-4.9084,-4.9166,-4.9211,-4.9292,-4.8902,-4.8674,-4.8816,-4.8347,-4.808,-4.8214,-4.8136,-4.8227,-4.8547,-4.8451,-4.8281,-4.8057,-4.8888,-4.8788,-4.7471,-4.8701,-4.9057,-4.8343,-4.8696,-4.8909,-4.8909,-4.8926,-4.9094,-4.9396,-4.9498,-4.9847,-4.1505,-4.1329,-4.1359,-4.4369,-4.3252,-4.2193,-4.5051,-4.5867,-4.6177,-4.6798,-4.9202,-5.0853,-4.9745,-5.0445,-5.1202,-5.1202,-5.1202,-5.1202,-5.1202,-5.1202,-5.1202,-5.1202,-5.1202,-5.1202,-5.1202,-5.1089,-5.0952,-5.0767,-4.9094,-4.8668,-5.003,-4.8593,-4.8407,-4.9855,-5.0051,-5.0032,-4.9874,-4.9627,-4.9389,-4.9214,-4.8995,-4.8909,-4.8909,-4.8909,-4.8909,-4.8909,-4.8909,-4.8909,-4.8909,-4.8909,-4.8909,-4.8909,-4.8909,-4.8909,-4.8909,-4.8909,-4.8891,-4.8821,-4.8569,-4.8383,-4.8189,-4.7723,-4.745,-4.728,-4.7236,-4.7428,-4.7747,-4.8113,-4.8402,-4.8623,-4.8838,-4.8909,-4.8909,-4.8909,-4.8909,-4.8909,-4.8909,-4.8909,-4.8909,-4.8909,-4.8909,-4.8943,-4.9084,-4.9166,-4.9146,-4.8939,-4.8586,-4.8347,-4.8403,-4.78,-4.7482,-4.7779,-4.7545,-4.7449,-4.7559,-4.7532,-4.7604,-4.7848,-4.8277,-4.8508,-4.8519,-4.9091,-4.9274,-4.9001,-4.9156,-4.9122,-4.8909,-4.8909,-4.8959,-4.9077,-4.9312,-4.9535,-4.0691,-4.0303,-4.0138,-4.2595,-4.1562,-4.0638,-4.3308,-4.4744,-4.5595,-4.5938,-4.8774,-5.0853,-4.9687,-5.0425,-5.1202,-5.1202,-5.1202,-5.1202,-5.1202,-5.1202,-5.1165,-5.1102,-5.1095,-5.1056,-5.0969,-5.0832,-5.0741,-5.068,-4.8853,-4.8426,-5.0011,-4.8409,-4.8193,-4.9855,-4.9912,-4.983,-4.9692,-4.9491,-4.9321,-4.9214,-4.8995,-4.8909,-4.8909,-4.8909,-4.8909,-4.8909,-4.8909,-4.8909,-4.8909,-4.8909,-4.8909,-4.8909,-4.8909,-4.8909,-4.8909,-4.8909,-4.8909,-4.8855,-4.8624,-4.8439,-4.8229,-4.7749,-4.7454,-4.7258,-4.7048,-4.7227,-4.7575,-4.7911,-4.8191,-4.8477,-4.8803,-4.8909,-4.8909,-4.8909,-4.8909,-4.8909,-4.8909,-4.8909,-4.8909,-4.8909,-4.8909,-4.8943,-4.9084,-4.9047,-4.8925,-4.8676,-4.8233,-4.7921,-4.7862,-4.7309,-4.703,-4.7288,-4.7125,-4.6998,-4.6998,-4.6957,-4.7096,-4.7512,-4.7973,-4.8369,-4.8703,-4.9388,-4.9616,-4.9337,-4.9393,-4.9284,-4.9066,-4.895,-4.8909,-4.8909,-4.9127,-4.9305,0.0,0.0,0.0,-3.9683,-3.9364,-3.9303,-4.0311,-4.2544,-4.4692,-4.5684,-4.8652,-5.108,-5.1125,-5.1163,-5.1202,-5.1202,-5.1202,-5.1202,-5.1202,-5.1196,-5.1114,-5.0937,-5.0894,-5.0784,-5.0539,-5.051,-5.041,-5.0218,-5.0137,-5.003,-4.9906,-4.9912,-4.9912,-4.9912,-4.9912,-4.983,-4.9692,-4.9491,-4.9321,-4.9214,-4.8995,-4.8909,-4.8909,-4.8909,-4.8909,-4.8909,-4.8909,-4.8909,-4.8909,-4.8909,-4.8909,-4.8909,-4.8909,-4.8909,-4.8909,-4.8909,-4.8909,-4.8891,-4.8822,-4.8569,-4.8248,-4.7895,-4.7582,-4.7236,-4.7048,-4.7227,-4.7554,-4.7911,-4.8191,-4.8439,-4.8785,-4.8891,-4.8909,-4.8909,-4.8909,-4.8909,-4.8909,-4.8909,-4.8909,-4.8909,-4.8909,-4.8926,-4.9049,-4.8821,-4.8569,-4.8495,-4.7864,-4.7342,-4.7208,-4.6949,-4.6795,-4.6795,-4.6911,-4.6998,-4.698,-4.6888,-4.6865,-4.698,-4.8024,-4.8405,-4.784,-4.9443,-5.0018,-4.9233,-4.9371,-4.9421,-4.9404,-4.9066,-4.8909,-4.8909,-4.8909,-4.9077,-3.932,0.0,0.0,0.0,0.0,0.0,-3.9306,-4.0942,-4.2646,-4.3039,-4.5835,-4.8464,-4.919,-5.0348,-5.1208,-5.1192,-5.1194,-5.1202,-5.1202,-5.1063,-5.1022,-5.1102,-5.0816,-5.065,-5.0775,-5.048,-5.0256,-5.0206,-4.84,-4.8074,-4.9817,-4.9912,-4.9912,-4.9912,-4.9912,-4.983,-4.9692,-4.9491,-4.9321,-4.9214,-4.8995,-4.8909,-4.8909,-4.8909,-4.8909,-4.8909,-4.8996,-4.9032,-4.9032,-4.8926,-4.8962,-4.9032,-4.8926,-4.8909,-4.8909,-4.8909,-4.8909,-4.8891,-4.8714,-4.8383,-4.8052,-4.7806,-4.7446,-4.707,-4.702,-4.7048,-4.7272,-4.785,-4.7811,-4.7731,-4.8307,-4.8678,-4.8909,-4.8909,-4.8909,-4.8909,-4.8909,-4.8909,-4.8909,-4.8909,-4.8909,-4.8874,-4.875,-4.866,-4.8402,-4.7783,-4.7533,-4.7252,-4.6835,-4.6801,-4.6795,-4.6795,-4.6911,-4.6957,-4.6865,-4.6911,-4.6888,-4.6708,-4.7204,-4.7766,-4.8423,-4.9008,-4.9554,-5.0071,-5.0104,-4.9882,-4.9404,-4.9066,-4.8909,-4.8909,-4.8909,-4.8942,-3.9405,-3.9418,-3.9469,-3.9521,0.0,0.0,-3.9412,-4.1207,-4.3023,-4.3555,-4.6421,-4.8767,-4.8627,-4.9435,-5.0126,-5.0114,-5.0123,-5.037,-5.11,-5.1108,-5.1043,-5.1076,-5.0728,-5.0529,-5.0596,-5.0286,-5.0069,-5.0069,-4.8637,-4.8376,-4.9817,-4.9912,-4.9912,-4.9912,-4.9912,-4.9802,-4.957,-4.9461,-4.9289,-4.9079,-4.896,-4.8909,-4.8909,-4.8909,-4.8909,-4.8909,-4.9032,-4.9118,-4.9133,-4.9013,-4.9032,-4.9084,-4.8962,-4.8909,-4.8909,-4.8909,-4.8838,-4.8767,-4.8641,-4.8307,-4.7893,-4.7762,-4.7421,-4.7066,-4.702,-4.6998,-4.7093,-4.756,-4.7582,-4.7563,-4.8152,-4.8476,-4.8696,-4.8874,-4.8909,-4.8909,-4.8909,-4.8909,-4.8909,-4.8909,-4.8785,-4.866,-4.855,-4.8269,-4.7877,-4.7356,-4.716,-4.6908,-4.6495,-4.6655,-4.6795,-4.6708,-4.6888,-4.6957,-4.6888,-4.6911,-4.6865,-4.6754,-4.7139,-4.7772,-4.8723,-4.9119,-4.9725,-5.0581,-5.0464,-5.0063,-4.9404,-4.9195,-4.9029,-4.8909,-4.8909,-4.8926,-3.9418,-3.9469,-3.9527,-3.9594,-3.9177,0.0,-3.9859,-4.1994,-4.4044,-4.5025,-4.7757,-4.9562,-4.8241,-4.7988,-4.8,-4.7989,-4.7994,-4.869,-5.0656,-5.1063,-5.1041,-5.0699,-5.0568,-5.0431,-5.0256,-5.0063,-4.9933,-4.9893,-4.9912,-4.9912,-4.9912,-4.9912,-4.9912,-4.9912,-4.9912,-4.9741,-4.9415,-4.9399,-4.9241,-4.8909,-4.8909,-4.8909,-4.8909,-4.8909,-4.8909,-4.8926,-4.9049,-4.915,-4.9197,-4.9133,-4.9118,-4.9101,-4.8962,-4.8909,-4.8909,-4.8909,-4.8767,-4.8587,-4.8569,-4.8231,-4.7772,-4.7681,-4.7443,-4.7156,-4.7043,-4.6998,-4.7025,-4.7209,-4.7436,-4.7733,-4.8132,-4.8267,-4.8401,-4.8803,-4.8909,-4.8909,-4.8909,-4.8855,-4.882,-4.882,-4.8605,-4.8383,-4.8289,-4.7731,-4.7236,-4.7062,-4.6783,-4.6495,-4.6246,-4.6518,-4.6725,-4.6613,-4.6819,-4.6957,-4.6975,-4.6865,-4.6865,-4.6957,-4.7447,-4.8083,-4.8884,-4.9472,-5.0136,-5.0873,-5.0561,-5.0106,-4.9521,-4.9438,-4.925,-4.8926,-4.8926,-4.8996,-3.9489,-3.9583,-3.9602,-3.9665,-3.9649,0.0,-3.8241,-3.8966,-3.9984,0.0,-4.1418,-4.2717,-4.3955,-4.417,-4.4165,-4.4168,-4.4175,-4.5357,-4.8716,-5.0206,-5.05,-4.9273,-4.9988,-5.0565,-5.0539,-5.0333,-5.013,-4.9906,-4.9912,-4.9912,-4.9912,-4.9912,-4.9912,-4.9912,-4.9912,-4.9741,-4.9415,-4.9399,-4.9241,-4.8909,-4.8909,-4.8909,-4.8909,-4.8909,-4.8962,-4.9084,-4.915,-4.9197,-4.9214,-4.9181,-4.9181,-4.9164,-4.8978,-4.8909,-4.8909,-4.8909,-4.8767,-4.8569,-4.8402,-4.8113,-4.7752,-4.7475,-4.7294,-4.7156,-4.7043,-4.6998,-4.6998,-4.6934,-4.7306,-4.7775,-4.7875,-4.8093,-4.8401,-4.8803,-4.8909,-4.8909,-4.8909,-4.8642,-4.842,-4.842,-4.842,-4.8193,-4.7627,-4.7389,-4.7169,-4.676,-4.6548,-4.6405,-4.6374,-4.6447,-4.6518,-4.659,-4.6731,-4.6795,-4.6684,-4.6842,-4.6911,-4.6842,-4.7048,-4.769,-4.8848,-4.9036,-4.9668,-5.09,-5.0561,-5.0347,-5.0217,-4.9661,-4.9288,-4.9049,-4.9049,-4.91,-3.9309,-3.947,-3.9638,-3.9777,-3.9826,0.0,0.0,-3.9862,-4.072,-4.0455,-4.1382,-4.2157,-4.1901,-4.1832,-4.1793,-4.1805,-4.226,-4.3102,-4.4514,-4.7184,-4.9201,-4.973,-5.0302,-5.0649,-5.0641,-5.0406,-5.0149,-4.9906,-4.9912,-4.9912,-4.9912,-4.9912,-4.9912,-4.9912,-4.9912,-4.9741,-4.9415,-4.9399,-4.9241,-4.8909,-4.8909,-4.8909,-4.8909,-4.8909,-4.8979,-4.9101,-4.9133,-4.9164,-4.9214,-4.9148,-4.915,-4.9115,-4.896,-4.8909,-4.8909,-4.8909,-4.8714,-4.8439,-4.8344,-4.8052,-4.7705,-4.7389,-4.7276,-4.7205,-4.7048,-4.6957,-4.6888,-4.6819,-4.6989,-4.7262,-4.7478,-4.7627,-4.7856,-4.8495,-4.8642,-4.8605,-4.8605,-4.8439,-4.8152,-4.7692,-4.7674,-4.763,-4.7262,-4.7012,-4.6783,-4.6542,-4.6374,-4.6326,-4.6381,-4.6471,-4.6542,-4.6684,-4.6819,-4.6865,-4.6819,-4.6911,-4.6957,-4.6911,-4.6957,-4.7577,-4.8848,-4.8894,-4.9535,-5.0855,-5.0735,-5.0586,-5.041,-4.9896,-4.9528,-4.9306,-4.9148,-4.915,-3.8984,-3.9197,-3.9477,-3.9747,-3.9649,-3.9556,0.0,0.0,0.0,-4.0676,-4.1692,-4.2088,-3.99,-3.9454,-3.9427,-3.9415,-4.0282,-4.0821,-4.0404,-4.3484,-4.6573,-4.8688,-4.9338,-4.949,-4.9291,-4.9409,-4.9598,-4.9927,-4.9939,-4.9906,-4.9912,-4.9912,-4.9912,-4.9912,-4.9912,-4.9741,-4.9415,-4.9399,-4.9241,-4.8909,-4.8909,-4.8909,-4.8909,-4.8909,-4.8979,-4.9101,-4.9101,-4.9116,-4.9181,-4.9116,-4.9084,-4.9049,-4.8926,-4.8909,-4.8909,-4.8874,-4.8642,-4.8344,-4.8267,-4.803,-4.772,-4.7407,-4.728,-4.7232,-4.7048,-4.6934,-4.6865,-4.6801,-4.6708,-4.669,-4.7147,-4.7151,-4.7266,-4.8056,-4.8212,-4.8172,-4.8172,-4.8075,-4.7813,-4.7044,-4.6908,-4.6926,-4.6949,-4.6666,-4.6405,-4.6405,-4.6295,-4.6246,-4.6381,-4.6471,-4.6566,-4.6708,-4.6819,-4.6888,-4.6911,-4.6888,-4.6888,-4.6911,-4.6911,-4.7488,-4.8773,-4.9127,-4.9783,-5.09,-5.0891,-5.0682,-5.0286,-4.997,-4.9698,-4.9487,-4.9228,-4.9166,-3.8582,-3.867,-3.8828,-3.9333,-3.8918,-3.8309,-3.8052,0.0,-3.7793,-3.6119,0.0,-3.6881,-3.5751,0.0,0.0,-3.5533,-3.6292,-3.7385,-3.8897,-4.0239,-4.1296,-4.1887,-4.4089,-4.5164,-4.415,-4.5788,-4.7802,-4.9924,-5.0031,-4.9965,-4.9893,-4.9912,-4.9912,-4.9912,-4.9912,-4.9741,-4.9415,-4.9399,-4.9241,-4.8909,-4.8909,-4.8909,-4.8909,-4.8909,-4.8979,-4.9101,-4.9101,-4.9101,-4.9118,-4.9101,-4.9032,-4.8926,-4.8909,-4.8909,-4.8891,-4.8714,-4.8605,-4.8514,-4.817,-4.8012,-4.7891,-4.7432,-4.7272,-4.7178,-4.7043,-4.7066,-4.7111,-4.6865,-4.6708,-4.6684,-4.7017,-4.7022,-4.7066,-4.7569,-4.7674,-4.7674,-4.7674,-4.7356,-4.7044,-4.6931,-4.6572,-4.6326,-4.6453,-4.6429,-4.6405,-4.6405,-4.6295,-4.6246,-4.6381,-4.6301,-4.6295,-4.6429,-4.6471,-4.6518,-4.6637,-4.6542,-4.6518,-4.6637,-4.6637,-4.7225,-4.8502,-4.9925,-5.0724,-5.0891,-5.0891,-5.0594,-4.9966,-4.9632,-4.9462,-4.9487,-4.9228,-4.9166,-3.9273,-3.9728,-4.0034,-4.0458,-3.9891,-3.9301,-3.9509,-3.8403,-3.7049,-3.597,0.0,0.0,0.0,0.0,0.0,0.0,-3.6141,-3.6725,-3.7413,-3.846,-3.9876,-4.1844,-4.3124,-4.4251,-4.5251,-4.4787,-4.541,-4.7835,-4.7881,-4.7776,-4.7751,-4.9115,-4.9912,-4.9912,-4.9912,-4.9741,-4.9415,-4.9399,-4.9241,-4.8909,-4.8909,-4.8909,-4.8909,-4.8909,-4.8979,-4.9101,-4.9032,-4.9032,-4.9084,-4.9015,-4.8962,-4.8909,-4.8909,-4.8909,-4.8891,-4.8803,-4.8642,-4.8383,-4.8229,-4.8012,-4.7785,-4.7511,-4.7341,-4.7249,-4.7133,-4.7174,-4.7156,-4.6957,-4.6819,-4.6754,-4.6893,-4.6783,-4.6742,-4.72,-4.7248,-4.7182,-4.7182,-4.7026,-4.6817,-4.6548,-4.6326,-4.6221,-4.6277,-4.6277,-4.6277,-4.6277,-4.6246,-4.6246,-4.6381,-4.635,-4.6374,-4.6495,-4.6762,-4.6945,-4.6995,-4.6916,-4.6881,-4.696,-4.696,-4.7614,-4.896,-4.9713,-5.0162,-5.0339,-5.0321,-4.9986,-4.9321,-4.8984,-4.883,-4.8862,-4.8827,-4.8995,-4.0109,-4.0796,-4.1209,-4.0872,-4.0182,-3.9545,-3.9421,-3.783,-3.6284,-3.5903,-3.5847,0.0,0.0,0.0,-3.523,-3.616,0.0,-3.6599,-3.6503,-3.7263,-3.8591,-4.0676,-4.1594,-4.2775,-4.4634,-4.3674,-4.3637,-4.5333,-4.5936,-4.6228,-4.6203,-4.8547,-4.9912,-4.9912,-4.9912,-4.9769,-4.9476,-4.943,-4.9257,-4.8978,-4.8926,-4.8909,-4.8909,-4.8909,-4.8943,-4.9032,-4.8926,-4.8962,-4.9032,-4.8926,-4.8909,-4.8909,-4.8909,-4.8909,-4.8891,-4.8838,-4.8642,-4.8363,-4.8267,-4.797,-4.7636,-4.749,-4.7385,-4.7298,-4.7178,-4.7174,-4.7156,-4.698,-4.6842,-4.6749,-4.6684,-4.6518,-4.6429,-4.6765,-4.6788,-4.6719,-4.6719,-4.6719,-4.6602,-4.627,-4.6196,-4.6196,-4.6196,-4.6196,-4.6196,-4.6196,-4.6196,-4.6246,-4.6326,-4.6453,-4.6576,-4.6674,-4.6966,-4.7187,-4.7213,-4.6985,-4.6821,-4.6861,-4.7215,-4.7848,-4.8784,-4.9245,-4.9495,-4.9537,-4.9546,-4.9252,-4.8601,-4.8318,-4.8123,-4.8048,-4.8311,-4.8678,-4.0804,-4.1512,-4.1769,-3.9767,-3.8858,-3.7936,-3.6012,-3.5064,-3.4604,-3.4649,-3.4701,-3.4772,-3.487,-3.4945,-3.5286,-3.616,-3.6365,0.0,0.0,-3.6589,-3.6411,-3.5712,-3.7879,-3.9451,-3.9539,-4.1647,-4.294,-4.283,-4.4977,-4.6277,-4.6196,-4.8547,-4.9912,-4.9912,-4.9912,-4.983,-4.9692,-4.951,-4.9321,-4.9197,-4.8995,-4.8909,-4.8909,-4.8909,-4.8909,-4.8909,-4.8909,-4.8909,-4.8909,-4.8909,-4.8909,-4.8909,-4.8909,-4.8909,-4.8891,-4.8678,-4.8605,-4.8532,-4.8132,-4.7788,-4.749,-4.7363,-4.7302,-4.7258,-4.707,-4.7088,-4.7133,-4.6888,-4.6708,-4.659,-4.6447,-4.6301,-4.6196,-4.6221,-4.6221,-4.6221,-4.6221,-4.6221,-4.6221,-4.6196,-4.6196,-4.6196,-4.6196,-4.6196,-4.6196,-4.6196,-4.6196,-4.6196,-4.6214,-4.6601,-4.6891,-4.6873,-4.6865,-4.6878,-4.7022,-4.6273,-4.5896,-4.6032,-4.7147,-4.7653,-4.738,-4.8687,-4.9135,-4.8548,-4.8659,-4.8441,-4.7829,-4.7671,-4.7465,-4.7165,-4.7767,-4.823,-4.1528,-4.2534,-4.316,-4.2596,-4.1006,-3.9511,-3.9245,-3.6517,-3.4104,-3.4357,-3.4529,-3.4662,-3.468,-3.4879,-3.5296,-3.6169,-3.5948,-3.5883,0.0,-3.6166,-3.5748,-3.5429,-3.6228,-3.7474,-3.9199,-3.8517,-3.8645,-4.0268,-4.1464,-4.1862,-4.1268,-4.5653,-4.7964,-4.7472,-4.904,-4.983,-4.9692,-4.9491,-4.9321,-4.9214,-4.8995,-4.8909,-4.8909,-4.8909,-4.8909,-4.8909,-4.8909,-4.8909,-4.8909,-4.8909,-4.8909,-4.8909,-4.8909,-4.8909,-4.8909,-4.8927,-4.8715,-4.8344,-4.7949,-4.7741,-4.7615,-4.749,-4.7428,-4.7385,-4.7201,-4.7156,-4.7133,-4.6865,-4.6708,-4.6566,-4.6429,-4.6301,-4.6196,-4.6196,-4.6196,-4.6196,-4.6196,-4.6196,-4.6196,-4.6196,-4.6196,-4.6196,-4.6196,-4.6196,-4.6196,-4.6196,-4.6196,-4.6196,-4.6196,-4.661,-4.6759,-4.6414,-4.6912,-4.7124,-4.6815,-4.6519,-4.6369,-4.6386,-4.6405,-4.6771,-4.7607,-4.7717,-4.7813,-4.7885,-4.7842,-4.7622,-4.7133,-4.6997,-4.6879,-4.6783,-4.6989,-4.7399,-4.2372,-4.3389,-4.4004,-4.3366,-4.2018,-4.078,-4.06,-3.819,-3.6102,-3.6545,-3.6851,-3.6745,-3.5873,-3.5999,-3.6245,-3.6226,-3.5761,-3.5578,0.0,-3.5828,-3.5528,-3.5477,-3.6299,-3.716,-3.7894,-3.7217,-3.7127,-3.8136,-3.9347,-3.991,-3.9618,-4.4517,-4.713,-4.6639,-4.8755,-4.9857,-4.9759,-4.9521,-4.9352,-4.9276,-4.9029,-4.8909,-4.8909,-4.8909,-4.8909,-4.8909,-4.8909,-4.8909,-4.8909,-4.8909,-4.8909,-4.8909,-4.8909,-4.8926,-4.8962,-4.8927,-4.8624,-4.8151,-4.7824,-4.7717,-4.7678,-4.7533,-4.7511,-4.7468,-4.7245,-4.7196,-4.7133,-4.6865,-4.6708,-4.6566,-4.6429,-4.6301,-4.6196,-4.6196,-4.6196,-4.6196,-4.6196,-4.6196,-4.6196,-4.6196,-4.6196,-4.6196,-4.6196,-4.6196,-4.6196,-4.6196,-4.6196,-4.6252,-4.6364,-4.6664,-4.6766,-4.6555,-4.6912,-4.6946,-4.6418,-4.6343,-4.6333,-4.6333,-4.6129,-4.6337,-4.7014,-4.6948,-4.7021,-4.7194,-4.7065,-4.6955,-4.6828,-4.6588,-4.6447,-4.6447,-4.6447,-4.6719]},{"header":{"parameterUnit":"m.s-1","parameterCategory":1,"la1":30.6,"la2":29.2853,"lo1":-89.7004,"lo2":-87.6739,"dy":0.0162,"dx":0.0183,"nx":112,"ny":82,"refTime":"2023-04-10T12:00:00:Z","depth":0,"parameterNumber":3,"parameterNumberName":"V-component_of_WINDS"},"data":[0.0,0.0,0.0,0.0,0.0,0.0,0.0,0.0,0.0,0.0,0.0,0.0,0.0,0.0,0.0,0.0,0.0,0.0,0.0,0.0,0.0,0.0,0.0,0.0,0.0,0.0,0.0,0.0,0.0,0.0,0.0,0.0,0.0,0.0,0.0,0.0,0.0,0.0,0.0,0.0,0.0,0.0,0.0,0.0,0.0,0.0,0.0,0.0,0.0,0.0,0.0,0.0,0.0,0.0,0.0,0.0,0.0,0.0,0.0,0.0,0.0,0.0,0.0,0.0,0.0,0.0,0.0,0.0,0.0,0.0,0.0,0.0,0.0,0.0,0.0,0.0,0.0,0.0,0.0,0.0,0.0,0.0,0.0,0.0,0.0,0.0,0.0,0.0,0.0,0.0,-0.6819,-0.7018,-0.743,-0.7771,-0.7989,-0.8322,-0.8189,-0.7375,0.0,0.0,0.0,0.0,0.0,0.0,0.0,0.0,0.0,0.0,0.0,0.0,0.0,0.0,0.0,0.0,0.0,0.0,0.0,0.0,0.0,0.0,0.0,0.0,0.0,0.0,0.0,0.0,0.0,0.0,0.0,0.0,0.0,0.0,0.0,0.0,0.0,0.0,0.0,0.0,0.0,0.0,0.0,0.0,0.0,0.0,0.0,0.0,0.0,0.0,0.0,0.0,0.0,0.0,0.0,0.0,0.0,0.0,0.0,0.0,0.0,0.0,0.0,0.0,0.0,0.0,0.0,0.0,0.0,0.0,0.0,0.0,0.0,0.0,0.0,0.0,0.0,0.0,0.0,0.0,0.0,0.0,0.0,0.0,0.0,0.0,0.0,0.0,0.0,0.0,0.0,0.0,0.0,0.0,0.0,0.0,0.0,0.0,0.0,0.0,0.0,0.0,0.0,0.0,-0.6878,-0.7155,-0.7645,-0.7934,-0.7989,-0.8491,-0.841,-0.7375,0.0,0.0,0.0,0.0,0.0,0.0,0.0,0.0,0.0,0.0,0.0,0.0,0.0,0.0,0.0,0.0,0.0,0.0,0.0,0.0,0.0,0.0,0.0,0.0,0.0,0.0,0.0,0.0,0.0,0.0,0.0,0.0,0.0,0.0,0.0,0.0,0.0,0.0,0.0,0.0,0.0,0.0,0.0,0.0,0.0,0.0,0.0,0.0,0.0,0.0,0.0,0.0,0.0,0.0,0.0,0.0,0.0,0.0,0.0,0.0,0.0,0.0,0.0,0.0,0.0,0.0,0.0,0.0,0.0,0.0,0.0,0.0,0.0,0.0,0.0,0.0,0.0,0.0,0.0,0.0,0.0,0.0,0.0,0.0,0.0,0.0,0.0,0.0,0.0,0.0,0.0,0.0,0.0,0.0,0.0,0.0,0.0,0.0,0.0,0.0,0.0,0.0,0.0,-0.6984,-0.7201,-0.7199,-0.7546,-0.7826,-0.7989,-0.8432,-0.83,-0.7375,-0.7291,0.0,0.0,0.0,0.0,0.0,0.0,0.0,0.0,0.0,0.0,0.0,0.0,0.0,0.0,0.0,0.0,0.0,0.0,0.0,0.0,0.0,0.0,0.0,0.0,0.0,0.0,0.0,0.0,0.0,0.0,0.0,0.0,0.0,0.0,0.0,0.0,0.0,0.0,0.0,0.0,0.0,0.0,0.0,0.0,0.0,0.0,0.0,0.0,0.0,0.0,0.0,0.0,0.0,0.0,0.0,0.0,0.0,0.0,0.0,0.0,0.0,0.0,0.0,0.0,0.0,0.0,0.0,0.0,0.0,0.0,0.0,0.0,0.0,0.0,0.0,0.0,0.0,0.0,0.0,0.0,0.0,0.0,0.0,0.0,0.0,0.0,0.0,0.0,0.0,0.0,0.0,0.0,0.0,0.0,0.0,0.0,0.0,0.0,0.0,0.0,0.0,0.0,-0.7121,-0.7373,-0.7204,-0.7438,-0.7715,-0.7989,-0.8318,-0.8135,-0.7375,-0.7291,0.0,0.0,0.0,0.0,0.0,0.0,0.0,0.0,0.0,0.0,0.0,0.0,0.0,0.0,0.0,0.0,0.0,0.0,0.0,0.0,0.0,0.0,0.0,0.0,0.0,0.0,0.0,0.0,0.0,0.0,0.0,0.0,0.0,0.0,0.0,0.0,0.0,0.0,0.0,0.0,0.0,0.0,0.0,0.0,0.0,0.0,0.0,0.0,0.0,0.0,0.0,0.0,0.0,0.0,0.0,0.0,0.0,0.0,0.0,0.0,0.0,0.0,0.0,0.0,0.0,0.0,0.0,0.0,0.0,0.0,0.0,0.0,0.0,0.0,0.0,0.0,0.0,0.0,0.0,0.0,0.0,0.0,0.0,0.0,0.0,0.0,0.0,0.0,0.0,0.0,0.0,0.0,0.0,0.0,0.0,0.0,0.0,0.0,0.0,0.0,0.0,0.0,-0.6812,-0.6963,-0.7185,-0.7438,-0.7715,-0.7989,-0.8318,-0.8135,-0.7375,-0.7291,0.0,0.0,0.0,0.0,0.0,0.0,0.0,0.0,0.0,0.0,0.0,0.0,0.0,0.0,0.0,0.0,0.0,0.0,0.0,0.0,0.0,0.0,0.0,0.0,0.0,0.0,0.0,0.0,0.0,0.0,0.0,0.0,0.0,0.0,0.0,0.0,0.0,0.0,0.0,0.0,0.0,0.0,0.0,0.0,0.0,0.0,0.0,0.0,0.0,0.0,0.0,0.0,0.0,0.0,0.0,0.0,0.0,0.0,0.0,0.0,0.0,0.0,0.0,0.0,0.0,0.0,0.0,0.0,0.0,0.0,0.0,0.0,0.0,0.0,0.0,0.0,0.0,0.0,0.0,0.0,0.0,0.0,0.0,0.0,0.0,0.0,0.0,0.0,0.0,0.0,0.0,0.0,0.0,0.0,0.0,0.0,0.0,0.0,0.0,0.0,0.0,0.0,-0.7096,-0.7278,-0.7202,-0.7438,-0.7715,-0.7989,-0.8318,-0.8135,-0.7375,0.0,0.0,0.0,0.0,0.0,0.0,0.0,0.0,0.0,0.0,0.0,0.0,0.0,0.0,0.0,0.0,0.0,0.0,0.0,0.0,0.0,0.0,0.0,0.0,0.0,0.0,0.0,0.0,0.0,0.0,0.0,0.0,0.0,0.0,0.0,0.0,0.0,0.0,0.0,0.0,0.0,0.0,0.0,0.0,0.0,0.0,0.0,0.0,0.0,0.0,0.0,0.0,0.0,0.0,0.0,0.0,0.0,0.0,0.0,0.0,0.0,0.0,0.0,0.0,0.0,0.0,0.0,0.0,0.0,0.0,0.0,0.0,0.0,0.0,0.0,0.0,0.0,0.0,0.0,0.0,0.0,0.0,0.0,0.0,0.0,0.0,0.0,0.0,0.0,0.0,0.0,0.0,0.0,0.0,0.0,0.0,0.0,0.0,0.0,0.0,0.0,0.0,-0.6956,-0.7314,-0.7493,-0.721,-0.7379,-0.7604,-0.7826,-0.81,-0.7923,-0.7225,0.0,0.0,0.0,0.0,0.0,0.0,0.0,0.0,0.0,0.0,0.0,0.0,0.0,0.0,0.0,0.0,0.0,0.0,0.0,0.0,0.0,0.0,0.0,0.0,0.0,0.0,0.0,0.0,0.0,0.0,0.0,0.0,0.0,0.0,0.0,0.0,0.0,0.0,0.0,0.0,0.0,0.0,0.0,0.0,0.0,0.0,0.0,0.0,0.0,0.0,0.0,0.0,0.0,0.0,0.0,0.0,0.0,0.0,0.0,0.0,0.0,0.0,0.0,0.0,0.0,0.0,0.0,0.0,0.0,0.0,0.0,0.0,0.0,0.0,0.0,0.0,0.0,0.0,0.0,0.0,0.0,0.0,0.0,0.0,0.0,0.0,0.0,0.0,0.0,0.0,0.0,0.0,0.0,0.0,0.0,0.0,0.0,0.0,0.0,0.0,0.0,0.0,-0.709,-0.737,-0.7493,-0.721,-0.721,-0.7324,-0.7551,-0.7607,-0.739,0.0,0.0,0.0,0.0,0.0,0.0,0.0,0.0,0.0,0.0,0.0,0.0,0.0,0.0,0.0,0.0,0.0,0.0,0.0,0.0,0.0,0.0,0.0,0.0,0.0,0.0,0.0,0.0,0.0,0.0,0.0,0.0,0.0,0.0,0.0,0.0,0.0,0.0,0.0,0.0,0.0,0.0,0.0,0.0,0.0,0.0,0.0,0.0,0.0,0.0,0.0,0.0,0.0,0.0,0.0,0.0,0.0,0.0,0.0,0.0,0.0,0.0,0.0,0.0,0.0,0.0,0.0,0.0,0.0,0.0,0.0,0.0,0.0,0.0,0.0,0.0,0.0,0.0,0.0,0.0,0.0,0.0,0.0,0.0,0.0,0.0,0.0,0.0,0.0,0.0,0.0,0.0,0.0,0.0,0.0,0.0,0.0,0.0,0.0,0.0,0.0,0.0,0.0,-0.7038,-0.7206,-0.7268,-0.721,-0.721,-0.7324,-0.7551,-0.7607,-0.739,-0.693,0.0,0.0,0.0,0.0,0.0,0.0,0.0,0.0,0.0,0.0,0.0,0.0,0.0,0.0,0.0,0.0,0.0,0.0,0.0,0.0,0.0,0.0,0.0,0.0,0.0,0.0,0.0,0.0,0.0,0.0,0.0,0.0,0.0,0.0,0.0,0.0,0.0,0.0,0.0,0.0,0.0,0.0,0.0,0.0,0.0,0.0,0.0,0.0,0.0,0.0,0.0,0.0,0.0,0.0,0.0,0.0,0.0,0.0,0.0,0.0,0.0,0.0,0.0,0.0,0.0,0.0,0.0,0.0,0.0,0.0,0.0,0.0,0.0,0.0,0.0,0.0,0.0,0.0,0.0,0.0,0.0,0.0,0.0,0.0,0.0,0.0,0.0,0.0,0.0,0.0,0.0,0.0,0.0,0.0,0.0,0.0,0.0,0.0,0.0,0.0,0.0,0.0,-0.7113,-0.7229,-0.7324,-0.721,-0.721,-0.7265,-0.7438,-0.7438,-0.7268,-0.687,0.0,0.0,0.0,0.0,0.0,0.0,0.0,0.0,0.0,0.0,0.0,0.0,0.0,0.0,0.0,0.0,0.0,0.0,0.0,0.0,0.0,0.0,0.0,0.0,0.0,0.0,0.0,0.0,0.0,0.0,0.0,0.0,0.0,0.0,0.0,0.0,0.0,0.0,0.0,0.0,0.0,0.0,0.0,0.0,0.0,0.0,0.0,0.0,0.0,0.0,0.0,0.0,0.0,0.0,0.0,0.0,0.0,0.0,0.0,0.0,0.0,0.0,0.0,0.0,0.0,0.0,0.0,0.0,0.0,0.0,0.0,0.0,0.0,0.0,0.0,0.0,0.0,0.0,0.0,0.0,0.0,0.0,0.0,0.0,0.0,0.0,0.0,0.0,0.0,0.0,0.0,0.0,0.0,0.0,0.0,0.0,0.0,0.0,0.0,0.0,0.0,0.0,-0.7238,-0.7393,-0.7493,-0.721,-0.721,-0.721,-0.721,-0.721,-0.7109,-0.6817,0.0,0.0,0.0,0.0,0.0,0.0,0.0,0.0,0.0,0.0,0.0,0.0,0.0,0.0,0.0,0.0,0.0,0.0,0.0,0.0,0.0,0.0,0.0,0.0,0.0,0.0,0.0,0.0,0.0,0.0,0.0,0.0,0.0,0.0,0.0,0.0,0.0,0.0,0.0,0.0,0.0,0.0,0.0,0.0,0.0,0.0,0.0,0.0,0.0,0.0,0.0,0.0,0.0,0.0,0.0,0.0,0.0,0.0,0.0,0.0,0.0202,0.0101,0.0,0.0,0.0,0.0,0.0,0.0,0.0,0.0,0.0,0.0,0.0,0.0,0.0,0.0,0.0,0.0,0.0,0.0,0.0,0.0,0.0,0.0,0.0,0.0,0.0,0.0,0.0,0.0,0.0,0.0,0.0,0.0,0.0,0.0,0.0,0.0,0.0,0.0,0.0,0.0,-0.7188,-0.723,-0.7265,-0.721,-0.721,-0.721,-0.721,-0.721,-0.7109,-0.6817,-0.6755,0.0,0.0,0.0,0.0,0.0,0.0,0.0,0.0,0.0,0.0,0.0,0.0,0.0,0.0,0.0,0.0,0.0,0.0,0.0,0.0,0.0,0.0,0.0,0.0,0.0,0.0,0.0,0.0,0.0,0.0,0.0,0.0,0.0,0.0,0.0,0.0,0.0,0.0,0.0,0.0,0.0,0.0,0.0,0.0,0.0,0.0,0.0,0.0,0.0,0.0,0.0,0.0,0.0,0.0,0.0,0.0,0.0,0.0,0.0,0.0507,0.0455,0.0,0.0,0.0,0.0,0.0,0.0,0.0,0.0,0.0,0.0,0.0,0.0,0.0,0.0,0.0,0.0,0.0,0.0,0.0,0.0,0.0,0.0,0.0,0.0,0.0,0.0,0.0,0.0,0.0,0.0,0.0,0.0,0.0,0.0,0.0,0.0,0.0,0.0,0.0,0.0,-0.7188,-0.7177,-0.721,-0.721,-0.721,-0.721,-0.721,-0.721,-0.7158,-0.698,-0.6866,0.0,0.0,0.0,0.0,0.0,0.0,0.0,0.0,0.0,0.0,0.0,0.0,0.0,0.0,0.0,0.0,0.0,0.0,0.0,0.0,0.0,0.0,0.0,0.0,0.0,0.0,0.0,0.0,0.0,0.0,0.0,0.0,0.0,0.0,0.0,0.0,0.0,0.0,0.0,0.0,0.0,0.0,0.0,0.0,0.0,0.0,0.0,0.0,0.0,0.0,0.0,0.0,0.0,0.0792,0.0744,0.0794,0.0666,0.0779,0.1037,0.0968,0.0913,0.0866,0.0559,0.0,0.0,0.0,0.0,0.0,0.0,0.0,0.0,0.0,0.0,0.0,0.0,0.0,0.0,0.0,0.0,0.0,0.0,0.0,0.0,0.0,0.0,0.0,0.0,-0.0159,-0.0367,-0.0589,0.0,0.0,0.0,0.0,0.0,0.0,0.0,0.0,0.0,0.0,0.0,-0.7138,-0.7054,-0.7014,-0.7014,-0.7014,-0.7006,-0.6874,-0.6948,-0.6951,-0.6874,-0.6641,-0.6265,0.0,0.0,0.0,0.0,0.0,0.0,0.0,0.0,0.0,0.0,0.0,0.0,0.0,0.0,0.0,0.0,0.0,0.0,0.0,0.0,0.0,0.0,0.0,0.0,0.0,0.0,0.0,0.0,0.0,0.0,0.0,0.0,0.5999,0.5593,0.0,0.0,0.0,0.0,0.0,0.0,0.0,0.0,0.0,0.0,0.0,0.0,0.0,0.1043,0.0808,0.0793,0.0644,0.0503,0.0768,0.098,0.1238,0.1451,0.1558,0.1609,0.1528,0.0,0.1215,0.0625,0.0,0.0,0.0,0.0,0.0,0.0,0.0,0.0,0.0,0.0,0.0,0.0,0.0,0.0,0.0,0.0,0.0,0.0,0.0,0.0,0.0,0.0,0.0,0.0,-0.0054,-0.0054,-0.0111,-0.0477,-0.0816,-0.0792,-0.168,-0.2789,0.0,0.0,0.0,0.0,0.0,0.0,-0.6892,-0.6563,-0.6354,-0.6354,-0.6354,-0.6098,-0.5525,-0.5973,-0.6096,-0.5523,-0.5441,-0.5294,-0.496,-0.578,0.0,0.0,0.0,0.0,0.0,0.0,0.0,0.0,0.0,0.0,0.0,0.0,0.0,0.0,0.0,0.0,0.0,0.0,0.0,0.0,0.0,0.0,0.0,0.0,0.0,0.0,0.0,0.0,0.0,0.709,0.6832,0.6662,0.6924,0.648,0.0,0.0,0.0,0.0,0.0,0.0,0.0,0.0,0.0,0.1765,0.1214,0.0763,0.0359,0.0309,0.0362,0.0417,0.0525,0.0791,0.1108,0.1331,0.1497,0.1497,0.1644,0.1653,0.1563,0.1039,0.0869,0.0816,0.0,0.0,0.0,0.0,0.0627,0.0623,0.0635,0.0643,0.0597,0.0296,0.0,0.0,0.0,0.0,0.0,0.0,0.0,0.0,0.0,0.0,0.0,0.0,0.0,0.0,0.0,-0.0319,-0.0519,-0.0376,-0.1242,-0.2379,-0.3575,-0.4702,0.0,0.0,0.0,-0.7027,-0.6503,-0.6328,-0.6039,-0.5656,-0.5652,-0.5527,-0.5218,-0.5465,-0.5527,-0.5218,-0.5216,-0.4996,-0.4459,-0.5235,-0.5335,0.0,0.0,0.0,0.0,0.0,0.0,0.0,0.0,0.0,0.0,0.0,0.0,0.0,0.0,0.0,0.0,0.0,0.0,0.0,0.0,0.0,0.0,0.0,0.0,0.0,0.0,0.0,0.0,0.7233,0.7214,0.7183,0.7434,0.7068,0.0,0.0,0.0,0.0,0.0,0.0,0.2948,0.2603,0.22,0.1637,0.1089,0.0575,0.0,0.0053,0.0213,0.0427,0.0536,0.0752,0.102,0.1305,0.1421,0.1421,0.1686,0.1792,0.1732,0.1399,0.1221,0.1219,0.0897,0.0789,0.0785,0.0884,0.0884,0.0884,0.0884,0.0895,0.0857,0.0596,0.0444,0.0343,0.0146,0.0,0.0,0.0,0.0,0.0,-0.0102,-0.0052,0.0,-0.0107,-0.0054,0.0,0.0,-0.0212,-0.0365,-0.0162,-0.0888,-0.1908,-0.313,-0.4066,0.0,-0.6252,-0.6531,-0.6396,-0.5926,-0.5762,-0.5472,-0.4976,-0.4968,-0.4855,-0.4727,-0.4851,-0.4855,-0.4674,-0.4674,-0.449,-0.3967,-0.4609,-0.4616,-0.3982,0.0,0.0,0.0,0.0,0.0,0.0,0.0,0.0,0.0,0.0,0.0,0.0,0.0,0.0,0.0,0.0,0.0,0.0,0.0,0.0,0.0,0.0,0.0,0.0,0.0,0.0,0.0,0.0,0.0,0.6338,0.6608,0.0,0.0,0.0,0.0,0.2897,0.3097,0.3264,0.3264,0.2843,0.2338,0.1699,0.1169,0.0585,0.0,0.0267,0.0373,0.0427,0.0976,0.1256,0.131,0.1639,0.175,0.1748,0.1719,0.1707,0.1704,0.1411,0.1296,0.1242,0.0915,0.0798,0.0834,0.108,0.1178,0.1178,0.1178,0.1193,0.1111,0.0858,0.0598,0.0391,0.0384,0.0193,0.0,0.0,0.0,-0.005,-0.0297,-0.0202,-0.0052,-0.0312,-0.0211,0.0,0.0,-0.0208,-0.0409,-0.0371,-0.0622,-0.1218,-0.2419,0.0,-0.3164,-0.4422,-0.4802,-0.4893,-0.4853,-0.4519,-0.4312,-0.4257,-0.4257,-0.397,-0.3345,-0.3908,-0.3969,-0.3344,-0.329,-0.3289,-0.3234,-0.3908,-0.4252,-0.4188,-0.4573,0.0,0.0,0.0,0.0,0.0,0.0,0.0,0.0,0.0,0.0,0.0,0.0,0.0,0.0,0.0,0.0,0.0,0.0,0.0,0.0,0.0,0.0,0.0,0.0,0.0,0.0,0.0,0.0,0.8811,0.819,0.0,0.6295,0.5976,0.5097,0.3316,0.3303,0.338,0.338,0.2495,0.1917,0.1704,0.0808,0.0325,0.0271,0.0329,0.0606,0.0992,0.1219,0.1389,0.1612,0.1723,0.1779,0.1777,0.1802,0.1788,0.1731,0.1595,0.1573,0.1557,0.1444,0.1373,0.135,0.14,0.145,0.145,0.145,0.1457,0.1415,0.1162,0.0855,0.0649,0.0446,0.0348,0.02,0.005,0.0,0.0,-0.01,-0.0202,-0.0307,-0.0363,-0.047,-0.0524,-0.0524,-0.0727,-0.0926,-0.0927,-0.0867,-0.1117,-0.2167,-0.2163,-0.2337,-0.321,-0.3848,-0.399,-0.3398,-0.3846,-0.4025,-0.3622,-0.3567,-0.3456,-0.3232,-0.3401,-0.3456,-0.3232,-0.318,-0.318,-0.318,-0.3454,-0.3567,-0.3567,-0.3695,-0.4098,0.0,0.0,0.0,0.0,0.0,0.0,0.0,0.0,0.0,0.0,0.0,0.0,0.0,0.0,0.0,0.0,0.0,0.0,0.0,0.0,0.0,0.0,0.0,0.0,0.0,0.905,0.9134,1.0277,0.92,0.8052,0.7169,0.6432,0.5263,0.3518,0.3429,0.344,0.344,0.2755,0.2167,0.1735,0.0987,0.0497,0.0276,0.0446,0.0785,0.1177,0.1346,0.157,0.1795,0.1795,0.1733,0.1612,0.1769,0.1759,0.1639,0.1685,0.1718,0.1743,0.1733,0.1664,0.1646,0.1646,0.164,0.163,0.162,0.1617,0.1566,0.1415,0.1162,0.0909,0.0707,0.0556,0.0354,0.0202,0.0051,0.0,-0.0101,-0.0202,-0.0304,-0.0359,-0.0463,-0.0515,-0.0515,-0.0717,-0.0967,-0.1062,-0.1061,-0.1217,-0.1691,-0.1518,-0.1427,-0.1814,-0.2494,-0.2806,-0.2363,-0.3199,-0.3673,-0.3353,-0.3218,-0.318,-0.318,-0.3263,-0.326,-0.3229,-0.3261,-0.326,-0.318,-0.3261,-0.33,-0.33,-0.3548,-0.3971,-0.4559,0.0,0.0,0.0,0.0,0.0,0.0,0.0,0.0,0.0,0.0,0.0,0.0,0.0,0.0,0.0,0.0,0.0,0.0,0.0,0.0,0.0,0.0,0.0,0.9587,0.9941,1.0233,1.0366,0.9517,0.843,0.7291,0.601,0.4739,0.3577,0.3469,0.3499,0.3499,0.3553,0.3025,0.1849,0.1737,0.1177,0.0,0.0617,0.0897,0.0897,0.1514,0.1795,0.1795,0.1795,0.1612,0.1314,0.167,0.1611,0.1315,0.1671,0.1778,0.1802,0.1718,0.1705,0.1704,0.1704,0.1687,0.1711,0.1628,0.1618,0.1618,0.1618,0.1415,0.1212,0.1162,0.0808,0.0404,0.0404,0.0202,-0.0051,-0.0303,-0.0202,-0.0101,-0.0354,-0.0202,0.0,0.0,-0.0249,-0.0494,-0.0755,-0.1212,-0.1415,-0.0961,-0.0657,-0.0402,-0.0148,-0.0677,0.0,-0.1863,-0.2579,-0.3175,-0.348,-0.3343,-0.3229,-0.318,-0.3374,-0.3413,-0.3226,-0.3374,-0.3418,-0.3229,-0.3373,-0.3488,-0.3488,-0.4264,-0.4939,-0.5489,0.0,0.0,0.0,0.0,0.0,0.0,0.0,0.0,0.0,0.0,0.0,0.0,0.0,0.0,0.0,0.0,0.0,0.0,0.0,0.0,0.0,0.9099,0.9559,0.9782,1.0014,1.0278,1.0586,1.0342,0.9738,0.8526,0.7281,0.6115,0.4913,0.405,0.3563,0.3563,0.2764,0.2147,0.1817,0.0937,0.0441,0.0276,0.0669,0.1009,0.1177,0.1627,0.1795,0.1795,0.1795,0.1735,0.1672,0.1735,0.1734,0.1672,0.1735,0.179,0.178,0.1804,0.1724,0.1704,0.1704,0.1699,0.1688,0.166,0.165,0.165,0.1443,0.1277,0.1111,0.0758,0.0505,0.0354,0.0152,0.0051,0.0,-0.0101,-0.0202,-0.0303,-0.0404,-0.0505,-0.0556,-0.0556,-0.0805,-0.1004,-0.106,-0.1061,-0.0913,-0.0617,-0.0154,0.0467,0.1376,0.0994,0.0362,-0.031,-0.1328,-0.2273,-0.3209,-0.338,-0.3381,-0.3228,-0.3374,-0.3413,-0.3226,-0.3265,-0.3264,-0.318,-0.3265,-0.3306,-0.3306,-0.3655,-0.4215,0.0,0.0,0.0,0.0,0.0,0.0,0.0,0.0,0.0,0.0,0.0,0.0,0.0,0.0,0.0,0.0,0.0,0.0,0.0,0.0,0.0,0.0,0.9276,0.9742,1.0067,1.0209,1.0379,1.066,1.0692,1.0249,0.9034,0.7805,0.6642,0.5481,0.4257,0.3587,0.3587,0.2943,0.2423,0.2133,0.1212,0.0716,0.0547,0.0778,0.0953,0.1121,0.157,0.1795,0.1795,0.1795,0.1732,0.161,0.1733,0.1731,0.161,0.1734,0.1795,0.1793,0.0,0.0,0.0,0.0,0.1723,0.1719,0.1585,0.1523,0.1471,0.1208,0.1043,0.0982,0.0672,0.0511,0.0354,0.0202,0.01,0.0,0.0,-0.01,-0.025,-0.0252,-0.0354,-0.0455,-0.0455,-0.0653,-0.0951,-0.1312,-0.0954,0.0,0.0,0.0509,0.1171,0.2118,0.1845,0.1326,0.072,-0.0561,-0.172,-0.2523,-0.3049,-0.3342,-0.3228,-0.3374,0.0,0.0,0.0,-0.3343,-0.3343,-0.3343,0.0,0.0,0.0,-0.4093,-0.5097,-0.5194,0.0,0.0,-0.66,-0.6443,0.0,0.0,0.0,0.0,0.0,0.0,0.0,0.0,0.0,0.0,0.0,0.0,0.0,0.0,0.0,0.0,0.9543,0.9864,1.031,1.0383,1.0443,1.0672,1.0692,1.0249,0.9034,0.7805,0.6642,0.5481,0.4257,0.3587,0.3587,0.3525,0.0,0.0,0.0,0.1388,0.082,0.0834,0.0841,0.0897,0.1458,0.1739,0.1795,0.1795,0.1614,0.1372,0.1672,0.1612,0.1372,0.1672,0.1795,0.1795,0.1795,0.1795,0.1791,0.1816,0.1752,0.1696,0.1399,0.0,0.0,0.0856,0.0748,0.0747,0.0694,0.0522,0.0356,0.0356,0.0198,0.0,0.0,0.0,0.0,0.0,0.0,0.0,-0.0051,-0.0199,-0.0594,-0.1309,-0.0797,-0.005,0.0705,0.1194,0.1712,0.2221,0.2122,0.1845,0.1431,0.0,-0.1147,-0.1717,-0.2526,0.0,-0.318,-0.3374,-0.3413,-0.3226,-0.3378,-0.3446,-0.3446,-0.3446,-0.3566,-0.3745,-0.3743,-0.429,-0.546,-0.546,-0.6081,-0.7199,-0.6725,-0.6641,0.0,0.0,0.0,0.0,0.0,0.0,0.0,0.0,0.0,0.0,0.0,0.0,0.0,0.0,0.0,0.938,0.98,1.0148,1.0346,1.0383,1.0443,1.0672,1.0692,1.0249,0.9034,0.7805,0.6642,0.5481,0.4257,0.3587,0.3587,0.3155,0.2799,0.2681,0.1646,0.0987,0.0875,0.0611,0.0617,0.0897,0.1234,0.0,0.1795,0.1795,0.1792,0.1731,0.1793,0.1735,0.1731,0.1793,0.1795,0.1795,0.1795,0.1795,0.1791,0.1816,0.1654,0.1392,0.1314,0.1143,0.0925,0.0599,0.0486,0.0427,0.0213,0.0106,0.0,0.0053,0.0053,0.0,0.0,0.0,0.0,0.0,0.0,-0.0051,-0.0253,-0.0201,-0.0201,-0.0555,0.0,0.0704,0.106,0.1358,0.1762,0.2395,0.2845,0.2769,0.1834,0.1432,0.053,-0.1344,-0.1883,-0.2371,-0.313,-0.3374,-0.3413,-0.3226,-0.3219,-0.3264,-0.3264,-0.3264,-0.3259,-0.3296,-0.3296,-0.3972,-0.5242,-0.5242,-0.5936,-0.7207,-0.7114,-0.7098,0.0,0.0,0.0,0.0,0.0,0.0,0.0,0.0,0.0,0.0,0.0,0.8893,0.8578,0.0,0.9494,0.9763,1.0037,1.0253,1.0526,1.0562,1.0595,1.068,1.0692,1.0249,0.9034,0.7805,0.6642,0.5481,0.4257,0.3475,0.3141,0.2839,0.2538,0.2188,0.1378,0.0882,0.0874,0.0556,0.0505,0.0673,0.1065,0.1402,0.157,0.1739,0.1795,0.1795,0.1795,0.1795,0.1795,0.1795,0.1795,0.1795,0.1795,0.1795,0.1793,0.1611,0.1448,0.1232,0.0944,0.0775,0.0609,0.0277,0.022,0.0164,0.0055,0.0,0.0,0.0,0.0,0.0,0.0,0.0,0.0,0.0,0.0,-0.0051,-0.0359,-0.0203,0.0,0.0,0.0556,0.1111,0.1516,0.1918,0.2328,0.2605,0.3067,0.3167,0.2661,0.2146,0.1232,-0.0474,-0.124,-0.2089,-0.3132,-0.3303,-0.3299,-0.3229,-0.318,-0.318,-0.318,-0.318,-0.318,-0.318,-0.318,-0.3682,-0.4674,-0.5033,-0.5714,-0.6686,-0.7017,-0.721,0.0,0.0,0.0,0.0,0.0,0.0,0.0,0.962,0.9513,0.8889,0.9009,0.9215,0.9116,0.9344,0.9755,1.0144,1.0294,1.0367,1.0651,1.0692,1.0692,1.0692,1.0692,1.0249,0.9034,0.8029,0.6866,0.5481,0.448,0.3587,0.275,0.2693,0.2398,0.1759,0.1169,0.0891,0.0824,0.0501,0.0336,0.0393,0.0897,0.1177,0.129,0.157,0.1739,0.1795,0.1795,0.1795,0.1795,0.1795,0.1795,0.1795,0.1963,0.2075,0.2019,0.1458,0.1234,0.1065,0.0561,0.0393,0.028,0.0056,0.0,0.0,0.0,0.0,0.0,0.0,0.0,0.0,0.0,0.0,0.0,0.0,-0.0053,-0.0104,-0.0261,-0.0103,0.0153,0.0459,0.0919,0.1481,0.2043,0.2449,0.2748,0.2778,0.3077,0.3339,0.3388,0.2666,0.171,0.0639,-0.0316,-0.1402,-0.2745,-0.3086,-0.318,-0.318,-0.318,-0.318,-0.318,-0.318,-0.318,-0.318,-0.318,-0.3515,-0.4198,-0.4855,-0.5529,-0.6228,-0.6882,-0.721,1.3703,1.1848,1.0402,1.0653,1.0299,0.9876,0.0,0.9767,0.9845,0.9395,0.958,0.9873,1.0006,1.0193,1.0335,1.0396,1.0534,1.0647,1.0684,1.0692,1.0692,1.0692,1.0692,1.0249,0.9034,0.8754,0.7756,0.5594,0.526,0.4479,0.2806,0.2693,0.2411,0.179,0.1233,0.0896,0.0895,0.0336,0.0168,0.0393,0.0449,0.0785,0.129,0.1346,0.1514,0.1795,0.1795,0.1795,0.1795,0.1795,0.1795,0.1851,0.2634,0.2969,0.2802,0.1682,0.0953,0.0505,0.0449,0.0224,0.0056,0.0,0.0,0.0,0.0,0.0,0.0,0.0,0.0,0.0,0.0,0.0,0.0,0.0,-0.016,-0.0319,-0.0106,0.0159,0.0476,0.0794,0.127,0.1853,0.2436,0.2595,0.2672,0.2788,0.3077,0.3324,0.3331,0.3314,0.287,0.176,0.1562,0.0642,-0.1503,-0.2598,-0.318,-0.318,-0.318,-0.318,-0.318,-0.318,-0.318,-0.318,-0.318,-0.3515,-0.4198,-0.4855,-0.5529,-0.6228,-0.6882,-0.721,1.3565,1.2578,1.1748,1.0676,1.0301,1.0052,0.9482,0.9543,0.9658,0.9482,0.9745,1.0011,1.0253,1.0383,1.0415,1.0566,1.0562,1.0578,1.0676,1.0692,1.0692,1.0692,1.0603,1.005,0.89,0.8869,0.8167,0.6394,0.5729,0.5202,0.4752,0.3137,0.2242,0.2296,0.1065,0.0393,0.0393,0.0112,0.0056,0.0168,0.0336,0.0505,0.0785,0.1121,0.1458,0.1851,0.2521,0.2856,0.2912,0.358,0.3804,0.3638,0.4029,0.3918,0.3583,0.308,0.2687,0.2352,0.1512,0.112,0.0953,0.0224,0.0,0.0,0.0,0.0,0.0,0.0,0.0,0.0,0.0,0.0,0.0,0.0,0.0055,0.0054,0.0,0.0483,0.0905,0.0905,0.1598,0.229,0.2558,0.2878,0.3076,0.3135,0.3252,0.3387,0.3418,0.3466,0.3104,0.2,0.1293,0.0266,-0.135,-0.1956,-0.25,-0.3181,-0.318,-0.318,-0.318,-0.318,-0.318,-0.318,-0.318,-0.3344,-0.3624,-0.4312,-0.4839,-0.5297,-0.5978,-0.6352,1.3038,1.2676,1.2299,1.0482,1.0127,1.0081,0.939,0.933,0.9465,0.9511,0.9768,1.0061,1.0331,1.0451,1.0546,1.0672,1.0586,1.055,1.0676,1.0692,1.0676,1.0627,1.0509,1.0014,0.9111,0.9179,0.8777,0.7566,0.6767,0.6311,0.6193,0.4193,0.3078,0.3185,0.1622,0.0672,0.0504,0.0504,0.0504,0.0504,0.1009,0.1344,0.1401,0.2017,0.2241,0.2241,0.3525,0.4081,0.4137,0.5027,0.5196,0.492,0.52,0.4977,0.4533,0.481,0.4475,0.3749,0.2686,0.2071,0.1679,0.0784,0.028,0.0,0.0,0.0,0.0,0.0,0.0,0.0,0.0,0.0,0.0,0.0112,0.0222,0.0276,0.033,0.0817,0.1189,0.1135,0.1891,0.2541,0.2595,0.3027,0.3353,0.3461,0.3461,0.3463,0.3471,0.3486,0.3228,0.2473,0.1353,0.0213,-0.0941,-0.1299,-0.2006,-0.3133,-0.318,-0.318,-0.318,-0.318,-0.318,-0.318,-0.318,-0.318,-0.318,-0.3956,-0.4403,-0.4608,-0.5378,-0.5808,1.2019,1.151,1.1107,1.0062,0.984,0.9813,0.9482,0.9352,0.9365,0.9461,0.977,1.0042,1.0268,1.0523,1.0684,1.0692,1.0688,1.0684,1.0692,1.0692,1.0631,1.0411,1.0383,1.0241,0.9886,1.0177,0.9911,0.8906,0.8809,0.8029,0.6304,0.6137,0.5579,0.4462,0.324,0.2349,0.1735,0.1735,0.1735,0.1735,0.2966,0.3638,0.3917,0.4531,0.4137,0.3131,0.4691,0.5361,0.5361,0.5361,0.5196,0.4975,0.5926,0.6042,0.5877,0.6765,0.5646,0.358,0.358,0.2798,0.1791,0.1735,0.0953,0.0,0.0,0.0,0.0,0.0,0.0,0.0,0.0,0.0,0.0056,0.0336,0.0168,0.0224,0.1065,0.1064,0.1064,0.168,0.2017,0.2297,0.2633,0.2911,0.3245,0.3526,0.3582,0.3542,0.3429,0.3463,0.3519,0.3522,0.2535,0.1408,0.0266,-0.089,-0.2006,-0.3133,-0.318,-0.318,-0.318,-0.318,-0.318,-0.318,-0.318,-0.318,-0.318,-0.4159,-0.4606,-0.4608,-0.5538,-0.5901,1.2555,1.1916,1.1313,0.9923,0.9719,0.9637,0.8939,0.8843,0.8969,0.9233,0.9264,0.9365,0.964,0.982,0.9935,1.0057,1.0237,1.0477,1.066,1.0489,1.0506,1.0753,1.0578,1.0526,1.0749,1.0566,1.0247,0.9808,0.9247,0.8975,0.9189,0.7301,0.6412,0.6793,0.4906,0.3797,0.3574,0.3187,0.3021,0.3021,0.3413,0.3748,0.4029,0.4196,0.4306,0.436,0.5697,0.6253,0.6311,0.7143,0.7149,0.671,0.7046,0.699,0.6765,0.7099,0.6705,0.5868,0.5089,0.4027,0.2854,0.2071,0.1009,0.0,0.0,0.0,0.0,0.0,0.0,0.0112,0.0505,0.0617,0.0673,0.0953,0.1121,0.1234,0.129,0.1402,0.1627,0.1964,0.23,0.2637,0.2915,0.325,0.3475,0.3587,0.3587,0.3574,0.3533,0.3545,0.3564,0.3585,0.3234,0.2592,0.1409,0.0269,-0.0901,-0.2007,-0.2827,-0.3221,-0.3181,-0.318,-0.318,-0.318,-0.318,-0.318,-0.318,-0.3547,-0.3835,-0.399,-0.4379,-0.459,1.3298,1.2586,1.1791,1.0064,0.9598,0.9459,0.8741,0.8682,0.8845,0.9063,0.909,0.909,0.9189,0.9492,0.968,0.9634,1.0059,1.0432,1.055,1.05,1.0608,1.0838,1.0668,1.066,1.1001,1.0724,1.0477,1.0416,0.98,0.9778,1.0544,0.8558,0.7755,0.8631,0.6352,0.5131,0.5131,0.4528,0.4474,0.4864,0.4864,0.4754,0.4533,0.5035,0.5238,0.5208,0.6465,0.7069,0.7199,0.7913,0.7937,0.7607,0.7607,0.7438,0.721,0.721,0.721,0.7043,0.5817,0.4587,0.3413,0.2183,0.1009,0.0,0.0,0.0,0.0,0.0,0.0,0.0112,0.0729,0.0897,0.1009,0.1514,0.1739,0.1795,0.1627,0.1739,0.1851,0.2132,0.2469,0.2806,0.3026,0.3362,0.3587,0.3587,0.3587,0.3587,0.3587,0.3587,0.3587,0.3587,0.3587,0.3117,0.2022,0.0818,-0.0377,-0.1468,-0.267,-0.3337,-0.3297,-0.3296,-0.3296,-0.3296,-0.3296,-0.3296,-0.3296,-0.3386,-0.3561,-0.3716,-0.3865,-0.4006,1.4064,1.3356,1.2363,1.0351,0.9574,0.9226,0.8797,0.8835,0.8881,0.8871,0.9127,0.9236,0.892,0.9452,0.9773,0.9433,1.0107,1.0605,1.0351,1.0655,1.0875,1.0724,1.0708,1.0716,1.0745,1.0729,1.0716,1.0708,1.0546,1.0395,1.0395,0.9846,0.9649,0.9864,0.7639,0.6473,0.6417,0.5813,0.604,0.721,0.721,0.6596,0.5539,0.6935,0.6872,0.573,0.705,0.77,0.7807,0.761,0.7551,0.7551,0.7551,0.7438,0.721,0.721,0.721,0.7043,0.5817,0.4643,0.3525,0.2351,0.112,0.0112,0.0112,0.0056,0.0,0.0056,0.0056,0.0168,0.0841,0.1009,0.1177,0.202,0.2075,0.1908,0.2132,0.202,0.1907,0.2188,0.2525,0.2805,0.3082,0.3362,0.3587,0.3587,0.3587,0.3587,0.3587,0.3587,0.3587,0.3587,0.3587,0.3174,0.2079,0.0819,-0.038,-0.1441,-0.272,-0.3416,-0.3413,-0.3413,-0.3413,-0.3413,-0.3413,-0.3413,-0.3413,-0.3679,-0.3785,-0.3785,-0.4056,-0.4041,1.3385,1.2353,1.1002,1.0236,0.9748,0.9333,0.8955,0.8854,0.8851,0.8794,0.8555,0.8309,0.8117,0.8461,0.8867,0.9022,0.9638,1.0188,1.0357,1.037,1.0555,1.0854,1.0899,1.1057,1.1464,1.1248,1.1033,1.0907,1.0729,1.0627,1.0627,1.0459,1.0425,1.0472,0.9475,0.8699,0.8254,0.726,0.6874,0.721,0.721,0.7043,0.6763,0.7157,0.7138,0.6832,0.7141,0.7193,0.7003,0.6924,0.6937,0.6937,0.6937,0.7046,0.721,0.721,0.721,0.7043,0.5817,0.5202,0.4868,0.4587,0.3078,0.1344,0.1344,0.0728,0.0112,0.0561,0.0673,0.0897,0.1964,0.2244,0.2356,0.2746,0.2802,0.269,0.23,0.2132,0.2188,0.2525,0.3029,0.3419,0.3475,0.3531,0.3587,0.3587,0.3587,0.3587,0.3587,0.3587,0.3587,0.3587,0.3587,0.3469,0.3175,0.1223,-0.0055,-0.0326,-0.2333,-0.3456,-0.3414,-0.3413,-0.3413,-0.3413,-0.3413,-0.3413,-0.3413,-0.3508,-0.3583,-0.3583,-0.3685,-0.3717,1.2842,1.1898,1.0755,0.9995,0.9496,0.9108,0.8873,0.8838,0.8777,0.8564,0.8316,0.8055,0.777,0.8184,0.8612,0.87,0.9497,1.0144,1.0186,1.0354,1.0509,1.081,1.0975,1.1118,1.1496,1.1342,1.1151,1.098,1.0729,1.0578,1.0578,1.0303,1.0338,1.0688,0.9864,0.9092,0.8484,0.7654,0.7321,0.7546,0.7321,0.7321,0.7546,0.7321,0.7072,0.6913,0.6858,0.6687,0.6426,0.6475,0.6604,0.6715,0.6879,0.7043,0.721,0.721,0.721,0.7099,0.6429,0.6207,0.604,0.4979,0.3692,0.2519,0.1959,0.1512,0.1121,0.0953,0.1065,0.1514,0.2469,0.2693,0.2806,0.3195,0.3194,0.3026,0.2691,0.2579,0.2691,0.3029,0.3365,0.3587,0.3587,0.3587,0.3587,0.3587,0.3587,0.3587,0.3587,0.3587,0.3587,0.3587,0.3587,0.3587,0.3587,0.1847,0.0557,0.011,-0.1711,-0.297,-0.3491,-0.3489,-0.3489,-0.3489,-0.3489,-0.3489,-0.3489,-0.3521,-0.3537,-0.3537,-0.3571,-0.3587,1.2345,1.1652,1.0877,0.9751,0.9097,0.874,0.874,0.8723,0.8625,0.8333,0.8289,0.8089,0.7699,0.8218,0.8711,0.861,0.9557,1.0227,1.0032,1.0363,1.066,1.066,1.0822,1.1009,1.1204,1.1179,1.1102,1.1033,1.066,1.0415,1.0415,0.9919,0.9985,1.0688,0.9585,0.8706,0.81,0.7598,0.7543,0.7989,0.7543,0.7598,0.81,0.7543,0.7042,0.6572,0.6398,0.6222,0.6086,0.6181,0.6439,0.6712,0.7046,0.7154,0.721,0.721,0.721,0.721,0.721,0.721,0.6874,0.4752,0.3971,0.3636,0.2685,0.2519,0.252,0.1625,0.1626,0.2076,0.2637,0.2806,0.2973,0.3475,0.3362,0.3138,0.3137,0.3137,0.325,0.3587,0.3643,0.3643,0.3643,0.3643,0.3587,0.3587,0.3587,0.3587,0.3587,0.3587,0.3587,0.3587,0.3587,0.3587,0.3587,0.252,0.1343,0.028,-0.1063,-0.2296,-0.3306,-0.3531,-0.3587,-0.3587,-0.3587,-0.3587,-0.3587,-0.3587,-0.3587,-0.3587,-0.3587,-0.3587,1.1653,1.0842,0.9804,0.9548,0.9182,0.8844,0.8844,0.8801,0.8625,0.8333,0.8069,0.7868,0.7787,0.8063,0.8479,0.8942,0.9482,0.9843,0.9895,1.0213,1.0427,1.0427,1.0635,1.0867,1.1191,1.0956,1.0834,1.1016,1.0769,1.0647,1.0647,1.0534,1.055,1.0692,1.0033,0.9372,0.8758,0.8152,0.7934,0.7989,0.7934,0.8152,0.8702,0.8152,0.7587,0.7069,0.6541,0.6151,0.5855,0.5873,0.6214,0.6715,0.6771,0.6935,0.721,0.721,0.721,0.721,0.721,0.721,0.7154,0.6707,0.5926,0.5146,0.5417,0.4191,0.2856,0.3635,0.3248,0.2693,0.3307,0.3419,0.3475,0.3587,0.3531,0.3418,0.3138,0.3306,0.3587,0.3868,0.3924,0.3924,0.3924,0.3757,0.3587,0.3587,0.3587,0.3587,0.3587,0.3587,0.3587,0.3587,0.3587,0.3587,0.3587,0.252,0.1735,0.1512,-0.056,-0.1903,-0.2128,-0.3081,-0.3587,-0.3587,-0.3587,-0.3587,-0.3587,-0.3587,-0.3587,-0.3587,-0.3587,-0.3587,1.0675,1.0126,0.9478,0.924,0.9047,0.8841,0.8737,0.8645,0.8465,0.8014,0.7804,0.7651,0.7446,0.7762,0.8185,0.8681,0.9239,0.9689,0.9939,1.0212,1.0383,1.0383,1.0586,1.0724,1.0806,1.0741,1.0692,1.0692,1.0607,1.0599,1.0688,1.0692,1.0692,1.0692,1.0088,0.9537,0.8923,0.8592,0.8484,0.8484,0.8484,0.8758,0.9368,0.8761,0.8152,0.7598,0.699,0.6428,0.5898,0.6005,0.615,0.6389,0.6777,0.7046,0.721,0.721,0.721,0.7265,0.7543,0.7601,0.7654,0.7983,0.7485,0.676,0.6697,0.6137,0.5303,0.4693,0.4308,0.4033,0.3699,0.3587,0.3587,0.3587,0.3699,0.3811,0.381,0.3977,0.4147,0.4428,0.437,0.4203,0.4036,0.3868,0.3757,0.3643,0.3587,0.3587,0.3587,0.3587,0.3587,0.3587,0.3587,0.3587,0.3587,0.3081,0.2464,0.1847,0.0728,-0.0224,-0.0839,-0.2016,-0.2688,-0.2688,-0.3306,-0.3587,-0.3587,-0.3587,-0.3587,-0.3587,-0.3587,-0.3587,1.0024,0.9651,0.9269,0.8961,0.8885,0.8811,0.8594,0.8506,0.8333,0.7804,0.7645,0.7533,0.7277,0.7538,0.7937,0.846,0.8933,0.9403,0.9883,1.0069,1.0241,1.037,1.0554,1.0599,1.0501,1.0578,1.0595,1.0443,1.0435,1.055,1.0684,1.0692,1.0692,1.0692,1.0253,0.9702,0.9089,0.9089,0.9089,0.9089,0.9089,0.9423,0.9981,0.9368,0.8816,0.8263,0.7654,0.6964,0.6341,0.6459,0.6419,0.6346,0.7062,0.7321,0.721,0.7485,0.7487,0.7432,0.7989,0.8211,0.8318,0.8868,0.8706,0.8152,0.7808,0.7808,0.7639,0.5917,0.5421,0.5204,0.4257,0.3811,0.3587,0.3587,0.3813,0.4092,0.4424,0.4536,0.4648,0.4931,0.4761,0.4482,0.426,0.4092,0.398,0.3811,0.3699,0.3643,0.3699,0.3643,0.3587,0.3587,0.3587,0.3587,0.3587,0.3587,0.3194,0.224,0.1959,0.14,0.0448,-0.0784,-0.14,-0.14,-0.2576,-0.3194,-0.3194,-0.3475,-0.3587,-0.3587,-0.3587,-0.3587,1.0278,0.9652,0.892,0.8937,0.8885,0.8841,0.8726,0.8581,0.8391,0.8015,0.7787,0.7631,0.7733,0.7655,0.7869,0.8578,0.8478,0.8658,0.9592,0.963,0.9804,1.0342,1.0395,1.0513,1.0655,1.0542,1.0517,1.066,1.0668,1.0676,1.0692,1.0692,1.0692,1.0692,1.0637,1.0308,0.9706,0.9706,0.9706,0.9706,0.9706,1.0033,1.0582,0.9978,0.9533,0.9196,0.8318,0.7726,0.7446,0.7218,0.7122,0.7137,0.7719,0.7657,0.7321,0.8367,0.8371,0.7989,0.8592,0.8813,0.8923,0.9537,0.9313,0.8923,0.9427,0.8809,0.8085,0.842,0.698,0.5371,0.526,0.4424,0.3587,0.3587,0.3813,0.4092,0.4424,0.4704,0.4987,0.5268,0.5098,0.4873,0.4819,0.4372,0.4092,0.4369,0.3977,0.3699,0.3924,0.3757,0.3587,0.3587,0.3587,0.3587,0.3587,0.3587,0.3531,0.3418,0.2408,0.1735,0.1623,0.0504,-0.0168,-0.0168,-0.1343,-0.1959,-0.1959,-0.3081,-0.3587,-0.3587,-0.3587,-0.3587,0.9642,0.9143,0.8885,0.8885,0.8885,0.8817,0.8628,0.8526,0.8347,0.7872,0.7682,0.756,0.7385,0.7314,0.7441,0.7949,0.8051,0.8358,0.9131,0.9372,0.9665,1.0279,1.0319,1.0415,1.0488,1.0477,1.0411,1.053,1.0538,1.0582,1.0684,1.0692,1.0692,1.0692,1.0692,1.0417,0.9816,1.0143,1.0143,0.9816,1.0143,1.0472,1.0692,1.0472,1.0198,0.9919,0.9144,0.8488,0.7884,0.797,0.7785,0.759,0.825,0.8426,0.826,0.8758,0.8758,0.865,0.9258,0.9423,0.9533,1.0143,1.0198,1.0029,1.0253,1.0029,0.9526,0.903,0.8202,0.7202,0.5759,0.448,0.3587,0.3587,0.3979,0.4313,0.448,0.4873,0.5212,0.5382,0.5268,0.5156,0.4931,0.4706,0.4538,0.448,0.4313,0.4201,0.4314,0.4036,0.3868,0.3868,0.3699,0.3587,0.3587,0.3587,0.3587,0.3587,0.3138,0.2857,0.2857,0.1735,0.1063,0.1063,-0.0112,-0.1063,-0.1791,-0.2296,-0.2913,-0.3587,-0.3587,-0.3587,0.9977,0.9255,0.8885,0.8885,0.8814,0.8737,0.8479,0.835,0.8153,0.7695,0.7563,0.7465,0.7248,0.7125,0.7196,0.755,0.7738,0.811,0.8685,0.8973,0.9358,0.9958,1.0105,1.0205,1.0351,1.0459,1.0509,1.0509,1.0509,1.0562,1.0684,1.0692,1.0692,1.0692,1.0692,1.0472,1.0088,1.0472,1.0472,1.0088,1.0472,1.0635,1.0538,1.0643,1.0526,1.0271,0.9823,0.9275,0.8606,0.8716,0.8468,0.8109,0.8885,0.9034,0.892,0.9309,0.9309,0.9258,0.9868,1.0088,1.0147,1.0582,1.0692,1.0692,1.0692,1.0692,1.0527,0.9695,0.892,0.7922,0.5926,0.448,0.3643,0.3699,0.4145,0.4536,0.4592,0.5043,0.5382,0.5382,0.5382,0.5326,0.5098,0.4987,0.4873,0.4761,0.4592,0.4536,0.4592,0.437,0.4148,0.4148,0.3979,0.3811,0.3587,0.3587,0.3587,0.3587,0.3587,0.3587,0.3587,0.28,0.2352,0.2352,0.1119,0.0112,-0.0728,-0.1456,-0.224,-0.3081,-0.3418,-0.3587,1.175,1.0421,0.8885,0.8885,0.871,0.8448,0.8357,0.8038,0.7777,0.7631,0.7478,0.7419,0.7415,0.7244,0.7196,0.755,0.76,0.7798,0.8396,0.8489,0.8711,0.935,0.965,0.9936,1.0276,1.0527,1.0688,1.0688,1.0688,1.0688,1.0692,1.0692,1.0692,1.0692,1.0692,1.0692,1.0692,1.0692,1.0692,1.0692,1.0692,1.0509,1.0233,1.053,1.0501,1.0184,1.0271,1.0116,0.977,0.9519,0.9187,0.8923,0.9573,0.9423,0.9034,1.0249,1.0308,0.9871,1.0472,1.0692,1.0692,1.0692,1.0692,1.0692,1.0692,1.0692,1.0692,1.0692,0.8968,0.6864,0.5704,0.448,0.3643,0.3924,0.4258,0.4592,0.4817,0.5156,0.5382,0.5382,0.5382,0.5382,0.5382,0.51,0.4987,0.5326,0.4873,0.4592,0.4873,0.4648,0.448,0.448,0.448,0.4257,0.3643,0.3587,0.3587,0.3587,0.3587,0.3587,0.3587,0.3587,0.3587,0.3587,0.2408,0.1791,0.1735,-0.0616,-0.1791,-0.1847,-0.3025,-0.3587,1.0069,0.8961,0.8298,0.8455,0.833,0.814,0.7991,0.7882,0.774,0.7495,0.745,0.7339,0.7234,0.7129,0.7196,0.755,0.76,0.7822,0.8425,0.8649,0.8974,0.9622,1.0093,1.0462,1.0574,1.0532,1.0566,1.0684,1.0582,1.0566,1.0684,1.0692,1.0692,1.0692,1.0692,1.0692,1.0692,1.0692,1.0692,1.0692,1.0692,1.0505,1.0228,1.053,1.0497,1.0233,1.0484,1.0385,1.0084,1.0221,1.0104,0.9826,1.0229,1.0308,1.0194,1.0582,1.0582,1.0417,1.0637,1.0692,1.0692,1.0692,1.0692,1.0692,1.0692,1.0692,1.0692,1.0692,0.9581,0.8254,0.7867,0.7085,0.6139,0.5423,0.5646,0.5815,0.5041,0.5156,0.5382,0.5382,0.5382,0.5382,0.5382,0.5326,0.5268,0.5382,0.5212,0.5156,0.5212,0.4987,0.4761,0.4761,0.4592,0.4424,0.4257,0.3979,0.3868,0.3868,0.3699,0.3587,0.3587,0.3587,0.3587,0.3587,0.3418,0.28,0.1791,0.1231,0.0,-0.1847,-0.3025,-0.3587,0.9806,0.8698,0.8012,0.816,0.8028,0.7848,0.7753,0.7641,0.7506,0.7322,0.7377,0.739,0.7136,0.7189,0.7339,0.7414,0.7617,0.7855,0.8113,0.8549,0.9044,0.9617,1.0128,1.0506,1.0684,1.0595,1.0578,1.0684,1.0595,1.0578,1.0684,1.0692,1.0692,1.0692,1.0692,1.0692,1.0692,1.0692,1.0692,1.0692,1.0692,1.0505,1.0228,1.053,1.0497,1.0233,1.0538,1.0566,0.0,1.0599,1.0562,1.0383,1.0607,1.0692,1.0692,1.0692,1.0692,1.0692,1.0692,1.0692,1.0692,1.0692,1.0692,1.0692,1.0692,1.0692,1.0692,1.0692,0.9919,0.9085,0.9085,0.8413,0.7575,0.6972,0.6755,0.6536,0.5873,0.5545,0.5382,0.5382,0.5382,0.5382,0.5382,0.5382,0.5382,0.5382,0.5382,0.5382,0.5382,0.5212,0.5098,0.5098,0.4931,0.4817,0.4817,0.4426,0.4203,0.4203,0.4035,0.3867,0.3757,0.3757,0.3699,0.3587,0.3757,0.3474,0.2632,0.2463,0.1063,-0.1456,-0.224,-0.2857,0.0,0.93,0.7928,0.7938,0.7777,0.7567,0.7567,0.7346,0.0,0.7125,0.74,0.7516,0.7193,0.7431,0.7533,0.7189,0.7621,0.7897,0.7638,0.8219,0.89,0.9435,0.9846,1.0224,1.0585,1.0676,1.0692,1.0692,1.0692,1.0692,1.0692,1.0692,1.0692,1.0692,1.0692,1.0692,1.0692,1.0692,1.068,1.0655,1.068,1.0493,1.0188,1.0517,1.0497,1.0233,1.0538,1.0692,1.0692,1.0692,1.0692,1.0692,1.0692,1.0692,1.0692,1.0692,1.0692,1.0692,1.0692,1.0692,1.0692,1.0747,1.0692,1.0692,1.0747,1.0692,1.0692,1.0692,1.0139,0.9526,0.9526,0.891,0.8348,0.8579,0.7695,0.6924,0.7041,0.6214,0.5382,0.5382,0.5382,0.5437,0.5437,0.5437,0.5491,0.5549,0.5491,0.5437,0.5437,0.5437,0.5382,0.5382,0.5382,0.5382,0.5382,0.4873,0.4536,0.4536,0.4536,0.4369,0.4036,0.4036,0.3924,0.3643,0.3643,0.3811,0.4036,0.3134,0.1565,-0.0671,-0.0727,-0.1511,0.8796,0.0,0.7334,0.7499,0.7387,0.7203,0.0,0.7146,0.7162,0.7441,0.755,0.7611,0.7648,0.7759,0.7826,0.7685,0.7823,0.7905,0.755,0.8232,0.8934,0.9462,1.0114,1.0375,1.0046,1.0425,1.0692,1.0692,1.0692,1.0692,1.0692,1.0692,1.0692,1.0692,1.0692,1.0692,1.0692,1.0692,1.0558,1.0343,1.0562,1.0363,0.9774,1.0404,1.0497,1.0233,1.0538,1.0692,1.0692,1.0692,1.0692,1.0692,1.0692,1.0692,1.0692,1.0692,1.0692,1.0692,1.0692,1.0692,1.0747,1.0966,1.0857,1.0747,1.0966,1.0857,1.0692,1.0692,1.0688,1.0684,1.0684,1.0899,1.084,1.001,0.9071,0.8137,0.7263,0.6214,0.5382,0.5382,0.5382,0.5547,0.5986,0.6098,0.6265,0.6712,0.6376,0.6098,0.6098,0.5714,0.5382,0.5382,0.5156,0.51,0.5382,0.5043,0.4817,0.4817,0.4592,0.448,0.4369,0.4369,0.4369,0.4313,0.4313,0.4424,0.4706,0.3357,0.2404,0.1844,0.0894,0.0279,0.7757,0.7272,0.7149,0.7421,0.7305,0.7132,0.7274,0.7196,0.7183,0.7536,0.76,0.7624,0.7699,0.7588,0.7517,0.7678,0.7446,0.7335,0.7707,0.8337,0.896,0.945,0.9887,1.0124,1.0016,1.0431,1.0692,1.0692,1.0692,1.0692,1.0692,1.0692,1.0692,1.0692,1.0692,1.0692,1.0692,1.0692,1.0513,1.0216,1.0521,1.0404,0.9892,1.044,1.0586,1.0408,1.0436,1.0542,1.068,1.0517,1.0546,1.0692,1.0692,1.0692,1.0692,1.0692,1.0692,1.0692,1.0692,1.0692,1.0747,1.0857,1.0911,1.0911,1.1072,1.1126,1.1076,1.0911,1.1076,1.135,1.1459,1.1837,1.211,1.1719,1.0832,0.9841,0.8965,0.7811,0.6874,0.6323,0.6214,0.6323,0.6654,0.6707,0.6818,0.7154,0.6932,0.6707,0.6707,0.6209,0.5824,0.5824,0.5264,0.5043,0.5382,0.5098,0.4987,0.51,0.4987,0.4817,0.4704,0.4704,0.4648,0.448,0.4648,0.4761,0.4873,0.4254,0.3636,0.3075,0.2459,0.1733,0.7228,0.7095,0.7169,0.7522,0.7366,0.7176,0.7529,0.736,0.7196,0.7594,0.7665,0.7675,0.7699,0.742,0.7283,0.7604,0.69,0.6766,0.7878,0.8332,0.8724,0.9388,0.9552,0.9741,1.01,1.0485,1.0692,1.0692,1.0692,1.0692,1.0692,1.0692,1.0692,1.0692,1.0692,1.0692,1.0692,1.0692,1.0513,1.0216,1.0521,1.0505,1.0228,1.053,1.0692,1.0676,1.0375,1.0416,1.0668,1.0367,1.0408,1.0651,1.0651,1.0635,1.0615,1.0643,1.0651,1.0655,1.0684,1.0692,1.0692,1.0747,1.0911,1.1126,1.1181,1.135,1.1568,1.14,1.1568,1.1841,1.206,1.2387,1.2822,1.331,1.2536,1.1483,1.0832,0.9731,0.8579,0.7429,0.721,0.721,0.7321,0.7321,0.7376,0.7432,0.7376,0.7321,0.7321,0.6818,0.6374,0.6262,0.5485,0.5098,0.5324,0.5043,0.4987,0.5382,0.5382,0.5268,0.4987,0.4987,0.4873,0.4648,0.4873,0.4987,0.4987,0.5268,0.4873,0.3861,0.3861,0.3189,0.7228,0.7095,0.7169,0.7522,0.7366,0.7176,0.7529,0.736,0.7253,0.7806,0.7924,0.8011,0.8143,0.8426,0.8418,0.7882,0.7065,0.6836,0.7718,0.775,0.8061,0.9061,0.9765,1.0088,0.9878,1.0377,1.0692,1.0692,1.0692,1.0692,1.0692,1.0692,1.0692,1.0692,1.0692,1.0692,1.0692,1.0692,1.0513,1.0216,1.0521,1.0505,1.0228,1.053,1.0692,1.0688,1.0635,1.0639,1.0688,1.0631,1.0558,1.0473,1.0473,1.0379,1.0314,1.0416,1.0473,1.0493,1.0639,1.0692,1.0747,1.0962,1.1072,1.1126,1.1459,1.1568,1.1732,1.2441,1.2659,1.2713,1.2767,1.3359,1.3954,1.4062,1.3117,1.1964,1.0941,0.9731,0.8579,0.7429,0.721,0.7321,0.7823,0.7878,0.8045,0.8549,0.8214,0.7878,0.7878,0.7376,0.6765,0.5989,0.5541,0.5206,0.4987,0.4706,0.4817,0.5382,0.5382,0.5382,0.5326,0.5326,0.5324,0.5268,0.5324,0.5326,0.5326,0.5382,0.5324,0.51,0.51,0.4987,0.7228,0.7095,0.721,0.7671,0.7439,0.726,0.7933,0.759,0.7311,0.8123,0.7843,0.7628,0.8072,0.7978,0.7569,0.6868,0.6865,0.7046,0.7346,0.7487,0.7952,0.9076,0.9576,0.9868,1.0024,1.0431,1.0692,1.0692,1.0692,1.0692,1.0692,1.0692,1.0692,1.0692,1.0692,1.0692,1.0692,1.0692,1.0513,1.0216,1.0521,1.0505,1.0228,1.053,1.0692,1.068,1.0489,1.0461,1.0538,1.0339,1.027,1.0286,1.0286,1.0237,1.0237,1.0367,1.0383,1.0407,1.0631,1.0692,1.0747,1.0852,1.1076,1.1404,1.1568,1.1787,1.2169,1.2935,1.2989,1.2989,1.3472,1.39,1.4277,1.4546,1.4213,1.3609,1.2743,1.1647,1.0441,0.9299,0.8592,0.8214,0.8436,0.8491,0.8605,0.8881,0.866,0.8436,0.8266,0.7768,0.7046,0.6154,0.5986,0.5596,0.4929,0.5096,0.5264,0.5382,0.5382,0.5382,0.5382,0.5382,0.5382,0.5382,0.5382,0.5382,0.5382,0.5382,0.5382,0.5382,0.5382,0.5382,0.7319,0.7143,0.7223,0.7756,0.7489,0.7328,0.8275,0.7787,0.7351,0.8296,0.7879,0.7466,0.7995,0.7508,0.6815,0.6197,0.6572,0.6892,0.6855,0.7209,0.7952,0.9069,0.9391,0.9708,1.0233,1.0534,1.0692,1.0692,1.0692,1.0692,1.0692,1.0692,1.0692,1.0692,1.0692,1.0692,1.0692,1.0692,1.0558,1.0343,1.0562,1.055,1.0347,1.0566,1.0692,1.0676,1.0359,1.0306,1.0354,1.0083,1.001,1.0151,1.0151,1.0151,1.0115,1.0253,1.0306,1.0399,1.0586,1.066,1.0692,1.0692,1.1076,1.1514,1.1568,1.2005,1.2659,1.331,1.3472,1.3527,1.4223,1.4493,1.4708,1.5089,1.5196,1.5035,1.4331,1.3457,1.2472,1.1324,1.0131,0.9316,0.9316,0.9103,0.8885,0.8885,0.9154,0.9261,0.9034,0.8813,0.8312,0.7418,0.7307,0.6974,0.6197,0.6533,0.6649,0.6429,0.5768,0.5382,0.5382,0.5382,0.5382,0.5382,0.5382,0.5382,0.5382,0.5382,0.5382,0.5382,0.5382,0.5382,0.7547,0.7279,0.7176,0.755,0.7383,0.7328,0.8275,0.7787,0.7351,0.8296,0.8211,0.8022,0.8391,0.7801,0.7151,0.6694,0.6333,0.6148,0.6335,0.6856,0.7625,0.8779,0.9446,0.9998,1.0601,1.0676,1.0692,1.0692,1.0692,1.0692,1.0692,1.0692,1.0692,1.0692,1.0692,1.0692,1.0692,1.0692,1.068,1.0655,1.068,1.068,1.0655,1.068,1.0692,1.068,1.0497,1.037,1.0366,1.0221,1.0102,0.9904,0.9904,0.9904,0.9904,0.992,1.014,1.0383,1.0395,1.0558,1.0692,1.0692,1.0911,1.1181,1.1514,1.2169,1.3039,1.39,1.4498,1.4874,1.4928,1.5357,1.5779,1.5838,1.5838,1.5512,1.4439,1.4116,1.3727,1.2526,1.1328,1.0566,1.0566,0.9644,0.8885,0.8885,0.986,1.0562,1.0562,1.1219,1.1319,1.0374,1.0265,1.0151,0.9866,0.9607,0.9504,0.9504,0.6927,0.5382,0.5382,0.5382,0.5382,0.5382,0.5382,0.5382,0.5382,0.5382,0.5382,0.5382,0.5382,0.5382,0.7452,0.7187,0.7213,0.7702,0.7456,0.7328,0.8275,0.7936,0.7682,0.8581,0.8231,0.7801,0.7913,0.7693,0.7318,0.6785,0.6386,0.6229,0.6306,0.6485,0.7152,0.8481,0.8978,0.9533,1.0366,1.0582,1.0692,1.0692,1.0692,1.0692,1.0692,1.0692,1.0692,1.0692,1.0692,1.0692,1.0692,1.0692,1.1072,1.1769,1.1017,1.0692,1.0692,1.0692,1.0635,1.053,1.0411,1.0302,1.0087,1.0018,0.9884,0.9726,0.9726,0.9726,0.9738,0.9847,1.0046,1.0282,1.0396,1.055,1.0692,1.0692,1.0852,1.1236,1.1891,1.2495,1.3152,1.4331,1.4821,1.5089,1.5464,1.5731,1.5891,1.5891,1.5891,1.5779,1.5351,1.4708,1.4056,1.3619,1.258,1.176,1.176,1.1383,1.1059,1.1059,1.1437,1.1596,1.1269,1.1487,1.1265,1.0214,1.0096,1.0366,1.0967,1.0585,1.0307,1.0307,0.7858,0.6434,0.6434,0.577,0.5382,0.5382,0.5382,0.5382,0.5382,0.5382,0.5382,0.5382,0.5382,0.5382,0.7408,0.7143,0.7216,0.7725,0.7473,0.7328,0.8275,0.8024,0.7828,0.8628,0.8225,0.7743,0.7847,0.7604,0.7226,0.6801,0.6398,0.6134,0.6033,0.6154,0.6707,0.782,0.826,0.8868,0.9757,1.0139,1.0359,1.0582,1.0637,1.0852,1.1232,1.0907,1.0852,1.1232,1.0907,1.0692,1.0692,1.0692,1.1232,1.2259,1.1455,1.1291,1.161,1.1222,1.0916,1.0634,1.0257,0.9964,0.9778,0.9777,0.9734,0.9579,0.9579,0.9579,0.9595,0.9762,0.9953,1.0233,1.0306,1.0501,1.0692,1.0692,1.0966,1.14,1.2164,1.2822,1.3527,1.4659,1.5143,1.5357,1.5785,1.5891,1.5891,1.5891,1.5891,1.5891,1.5891,1.5298,1.4761,1.4761,1.3781,1.296,1.296,1.2635,1.2417,1.2417,1.2635,1.2635,1.225,1.2363,1.2191,1.1529,1.1465,1.1842,1.2827,1.233,1.2,1.2,0.9991,0.8355,0.7423,0.6649,0.5989,0.5437,0.5382,0.5382,0.5382,0.5382,0.5382,0.5382,0.5382,0.5382,0.7551,0.7326,0.7169,0.7522,0.737,0.7331,0.8269,0.8024,0.777,0.836,0.8234,0.8124,0.8428,0.7644,0.6859,0.6695,0.6328,0.5871,0.5468,0.5933,0.6376,0.6657,0.7207,0.7925,0.8809,0.9196,0.964,1.0257,1.0527,1.1177,1.2309,1.1286,1.1232,1.2363,1.1286,1.0692,1.0692,1.0692,1.1131,1.2005,1.2005,1.2595,1.3663,1.2409,1.1628,1.1243,1.0038,0.9532,0.9517,0.9598,0.9628,0.9628,0.9628,0.9628,0.9628,0.9628,0.9855,1.0216,1.0216,1.0449,1.0692,1.0692,1.1131,1.1678,1.2223,1.3251,1.4331,1.4874,1.5464,1.5891,1.5891,1.5891,1.5891,1.5891,1.5891,1.5891,1.5891,1.5891,1.5891,1.5891,1.4976,1.4223,1.4223,1.3236,1.2413,1.2413,1.3181,1.3727,1.3727,1.4218,1.4713,1.4987,1.4987,1.525,1.5838,1.5357,1.4987,1.4987,1.3383,1.113,0.818,0.8014,0.7193,0.5491,0.5437,0.5437,0.5437,0.5382,0.5382,0.5382,0.5382,0.5382,0.759,0.7351,0.7169,0.7522,0.7529,0.7533,0.7801,0.7885,0.8018,0.8401,0.8448,0.8206,0.7661,0.7989,0.7813,0.6295,0.6508,0.6526,0.5541,0.5547,0.588,0.6376,0.7093,0.787,0.854,0.9258,0.9868,1.0257,1.0366,1.0637,1.1177,1.0852,1.0852,1.1177,1.0852,1.0692,1.0692,1.0527,1.1345,1.3186,1.3024,1.3078,1.3393,1.2844,1.2451,1.2185,1.1655,1.1361,1.1229,1.0681,1.0988,1.1614,1.0162,1.0502,1.1712,1.0984,1.0947,1.1243,1.1243,1.1026,1.0692,1.0692,1.1131,1.1787,1.2753,1.357,1.4385,1.5357,1.5785,1.5891,1.5891,1.5891,1.5891,1.5891,1.5891,1.5891,1.5891,1.5891,1.5891,1.5891,1.5618,1.5405,1.5405,1.5078,1.4857,1.4857,1.4922,1.4821,1.4385,1.4493,1.4713,1.4987,1.5208,1.5476,1.5891,1.5731,1.5624,1.5624,1.5125,1.3755,1.1185,0.9936,0.901,0.8517,0.7257,0.6599,0.6599,0.577,0.5382,0.5382,0.5382,0.5382,0.7643,0.7465,0.7424,0.7845,0.7773,0.7631,0.7746,0.7864,0.8106,0.8577,0.8287,0.7912,0.7586,0.7717,0.7439,0.6204,0.6456,0.6487,0.5549,0.5382,0.5603,0.6209,0.6763,0.7426,0.8208,0.8871,0.9482,0.9926,1.0147,1.0582,1.1177,1.0798,1.0747,1.1177,1.0633,1.0363,1.0363,1.0202,1.1232,1.3398,1.3236,1.356,1.4309,1.3651,1.3221,1.2915,1.2244,1.1993,1.198,1.1487,1.1727,1.2311,1.1274,1.1648,1.2681,1.2282,1.2344,1.2504,1.204,1.1674,1.1341,1.1126,1.1459,1.2164,1.3295,1.4056,1.4708,1.5624,1.5891,1.5891,1.5891,1.5891,1.5891,1.5891,1.5891,1.5891,1.5891,1.5891,1.5891,1.5891,1.5891,1.5891,1.5891,1.5891,1.5891,1.5891,1.5577,1.5101,1.4504,1.4552,1.4713,1.4987,1.5315,1.5583,1.5891,1.5891,1.5891,1.5891,1.5891,1.5286,1.3863,1.2122,1.0866,1.0151,0.9061,0.8244,0.7811,0.7146,0.6543,0.6102,0.588,0.588,0.7634,0.7621,0.7729,0.8265,0.7997,0.7692,0.7992,0.8049,0.819,0.8767,0.8026,0.7406,0.7817,0.7099,0.6318,0.6209,0.6262,0.6098,0.5491,0.5382,0.5603,0.6154,0.6262,0.6707,0.7768,0.8152,0.8598,0.921,0.9761,1.0519,1.1596,1.0684,1.0629,1.1651,1.0464,0.9816,0.9816,0.9761,1.0739,1.2748,1.2802,1.3884,1.5707,1.4596,1.3942,1.3552,1.2415,1.2055,1.233,1.2232,1.2232,1.24,1.2691,1.2915,1.3191,1.356,1.3846,1.385,1.275,1.2408,1.2363,1.1782,1.206,1.2817,1.39,1.4654,1.525,1.5785,1.5891,1.5891,1.5891,1.5891,1.5891,1.5891,1.5891,1.5891,1.5891,1.5891,1.5891,1.5891,1.5891,1.5891,1.5891,1.5891,1.5891,1.5838,1.5357,1.4826,1.4245,1.445,1.4713,1.4928,1.5315,1.5583,1.5838,1.5838,1.5891,1.5891,1.5891,1.5891,1.5891,1.4304,1.266,1.1013,1.0845,1.0202,0.9068,0.8958,0.8303,0.721,0.6652,0.6652,0.7882,0.7777,0.7631,0.776,0.7692,0.7801,0.8517,0.8557,0.8492,0.8807,0.8154,0.7475,0.7398,0.7154,0.671,0.5768,0.5989,0.6098,0.5491,0.5382,0.5437,0.5603,0.5986,0.6374,0.6652,0.7154,0.7598,0.7983,0.8091,0.8364,0.8851,0.9085,0.9306,0.9578,0.9699,0.9816,0.9816,0.9596,1.0139,1.1487,1.2195,1.3236,1.4583,1.4769,1.4734,1.4439,1.4124,1.4281,1.4663,1.3858,1.411,1.4926,1.3402,1.3931,1.5469,1.4749,1.4721,1.4891,1.3787,1.3258,1.2965,1.1946,1.2916,1.4422,1.4272,1.5185,1.6252,1.5998,1.5891,1.5891,1.5891,1.5891,1.5891,1.5891,1.5891,1.5891,1.5891,1.5891,1.5891,1.5891,1.5891,1.5891,1.5891,1.5891,1.5731,1.525,1.5089,1.4826,1.4245,1.4617,1.4874,1.4713,1.5154,1.5535,1.5583,1.5589,1.569,1.5891,1.5891,1.5891,1.5891,1.5078,1.4428,1.404,1.2719,1.147,1.0284,0.9347,0.8303,0.721,0.7043,0.6818,0.788,0.7821,0.7845,0.7987,0.8133,0.8223,0.8274,0.8278,0.8253,0.8128,0.7716,0.7279,0.6853,0.6546,0.6158,0.5493,0.5656,0.5768,0.5437,0.5382,0.5493,0.5824,0.6098,0.6429,0.671,0.7043,0.7265,0.7374,0.7537,0.7645,0.7811,0.8088,0.8257,0.8257,0.8481,0.8654,0.893,0.8823,0.9475,1.0945,1.1923,1.3229,1.4841,1.5162,1.5155,1.4902,1.4902,1.5024,1.5253,1.4689,1.4892,1.5417,1.4619,1.5031,1.6081,1.5783,1.5912,1.6088,1.4918,1.468,1.4781,1.3873,1.4615,1.5737,1.5334,1.5927,1.6577,1.5897,1.5791,1.5891,1.5891,1.5891,1.5891,1.5891,1.5891,1.5891,1.5891,1.5891,1.5891,1.5891,1.5891,1.5891,1.5891,1.5785,1.5523,1.5095,1.4874,1.4665,1.4245,1.4557,1.4767,1.4606,1.5154,1.5482,1.5482,1.5636,1.5737,1.5891,1.5891,1.5891,1.5891,1.5624,1.541,1.541,1.4524,1.3491,1.2363,1.1151,1.0006,0.8861,0.7706,0.7154,0.8106,0.7911,0.8059,0.8408,0.8581,0.8473,0.7799,0.7744,0.7659,0.7146,0.7043,0.6874,0.6374,0.5824,0.5382,0.5382,0.5382,0.5382,0.5382,0.5382,0.5603,0.6098,0.6154,0.632,0.6824,0.6877,0.6988,0.7154,0.7207,0.7371,0.7811,0.7534,0.7537,0.7977,0.7485,0.7487,0.8156,0.8263,0.9085,1.0562,1.2032,1.373,1.5565,1.5565,1.5421,1.5179,1.5179,1.5203,1.524,1.524,1.524,1.5264,1.5747,1.5943,1.602,1.6495,1.6849,1.7014,1.582,1.6027,1.6757,1.6015,1.6421,1.7048,1.6446,1.6617,1.6783,1.5797,1.5684,1.5891,1.5891,1.5891,1.5891,1.5891,1.5891,1.5891,1.5891,1.5891,1.5891,1.5891,1.5891,1.5891,1.5891,1.569,1.5369,1.5041,1.4767,1.4504,1.4245,1.445,1.4606,1.4552,1.5041,1.5493,1.5809,1.6065,1.6267,1.648,1.638,1.6248,1.6152,1.5998,1.5891,1.5891,1.5891,1.5351,1.4223,1.3181,1.2032,1.0672,0.8585,0.7706,0.9076,0.8431,0.8059,0.8408,0.8011,0.7564,0.7895,0.7462,0.6907,0.6503,0.6429,0.6374,0.6318,0.5824,0.5382,0.5382,0.5382,0.5382,0.5382,0.5382,0.5437,0.5493,0.5547,0.5547,0.5659,0.5659,0.6047,0.7041,0.6212,0.6596,0.8631,0.7313,0.7423,0.9464,0.798,0.7706,0.8758,0.9306,0.9688,0.9962,1.2694,1.4632,1.5837,1.5837,1.5692,1.5445,1.5445,1.5578,1.5783,1.5783,1.5783,1.5789,1.5878,1.6056,1.6274,1.6311,1.6696,1.7014,1.582,1.6299,1.7305,1.6174,1.7167,1.8544,1.6817,1.7199,1.7793,1.601,1.5684,1.5891,1.5891,1.5891,1.5891,1.5891,1.5891,1.5891,1.5891,1.5891,1.5891,1.5891,1.5891,1.5891,1.5891,1.569,1.5369,1.5041,1.4767,1.4504,1.4245,1.445,1.4498,1.4299,1.4724,1.5606,1.6959,1.7289,1.7876,1.8847,1.8204,1.7562,1.7054,1.6311,1.5891,1.5891,1.5891,1.5351,1.4223,1.4056,1.2856,1.0672,0.9849,0.8699,0.9552,0.8916,0.857,0.8683,0.8021,0.7331,0.7537,0.6972,0.6282,0.5892,0.5824,0.5824,0.5824,0.5603,0.5382,0.5382,0.5382,0.5382,0.5382,0.5382,0.5382,0.5382,0.5382,0.5382,0.5382,0.5382,0.5603,0.61,0.6267,0.6818,0.7811,0.7805,0.8247,0.924,0.8524,0.8527,0.9412,1.0014,1.0945,1.2254,1.3565,1.4815,1.5891,1.5891,1.5831,1.5716,1.5716,1.5783,1.5891,1.5891,1.5891,1.5891,1.5891,1.5945,1.6057,1.6057,1.6324,1.6696,1.6624,1.716,1.7845,1.8133,1.8916,1.9495,1.829,1.814,1.8108,1.6583,1.6051,1.5891,1.5891,1.5891,1.5891,1.5891,1.5891,1.5891,1.5891,1.5891,1.5891,1.5891,1.5891,1.5891,1.5891,1.5523,1.5154,1.5041,1.5185,1.5078,1.4299,1.5399,1.5974,1.5238,1.6086,1.698,1.7636,1.7915,1.8462,1.9323,1.9063,1.8472,1.7756,1.7328,1.6728,1.5945,1.5891,1.5672,1.5137,1.4493,1.3673,1.2635,1.0672,0.9412,1.0256,0.9517,0.8957,0.8881,0.7949,0.6962,0.6824,0.625,0.5618,0.5383,0.5349,0.5382,0.5382,0.5382,0.5382,0.5382,0.5382,0.5382,0.5382,0.5382,0.5382,0.5382,0.5382,0.5382,0.5382,0.5382,0.5659,0.6265,0.6821,0.7485,0.842,0.8744,0.9178,0.9786,0.9237,0.9237,1.0014,1.0777,1.225,1.4385,1.4546,1.5083,1.5891,1.5891,1.5891,1.5891,1.5891,1.5891,1.5891,1.5891,1.5891,1.5891,1.5891,1.5891,1.5891,1.5891,1.6051,1.6377,1.7107,1.7641,1.8227,1.9465,1.9983,1.9975,1.9391,1.8826,1.8153,1.6995,1.6311,1.5891,1.5891,1.5891,1.5891,1.5891,1.5891,1.5891,1.5891,1.5891,1.5891,1.5891,1.5891,1.5891,1.5785,1.5357,1.4987,1.4928,1.5547,1.5654,1.4767,1.6452,1.7338,1.644,1.7345,1.8174,1.8513,1.879,1.9259,1.9969,2.0005,1.9541,1.8638,1.8279,1.7541,1.6371,1.6051,1.5891,1.5891,1.503,1.4493,1.4164,1.1814,1.0394,1.1612,1.038,0.8977,0.8765,0.7495,0.617,0.5869,0.5308,0.4902,0.5086,0.5261,0.5382,0.5382,0.5382,0.5382,0.5382,0.5382,0.5382,0.5382,0.5382,0.5382,0.5382,0.5382,0.5382,0.5382,0.5382,0.632,0.8575,0.77,0.8585,1.1941,1.0061,0.9896,1.2164,1.0061,0.9457,1.0617,1.1746,1.3215,1.4987,1.5517,1.5838,1.5891,1.5891,1.5891,1.5891,1.5891,1.5891,1.5891,1.5891,1.5891,1.5891,1.5891,1.5891,1.5891,1.5891,1.6051,1.6324,1.663,1.7325,1.8174,1.9063,1.968,1.9975,1.9391,1.8826,1.8153,1.6995,1.6311,1.5891,1.5891,1.5891,1.5891,1.5891,1.5891,1.5891,1.5891,1.5891,1.5891,1.5891,1.5891,1.5838,1.5535,1.5208,1.4928,1.4659,1.5595,1.6168,1.5861,1.7061,1.7857,1.7549,1.7818,1.8573,1.9985,2.0317,2.0868,2.1711,2.1575,2.1024,2.0028,1.8755,1.7916,1.7536,1.6471,1.5891,1.5891,1.5838,1.5244,1.4164,1.3437,1.191,1.1852,1.1171,1.036,0.9938,0.8309,0.6777,0.6833,0.5784,0.4802,0.4867,0.5171,0.5345,0.5228,0.5302,0.5382,0.5382,0.5382,0.5382,0.5382,0.5382,0.5382,0.5382,0.5382,0.5382,0.5382,0.6047,0.6821,0.77,0.8381,0.9515,1.1206,1.0828,1.112,1.2372,1.1555,1.1551,1.2377,1.3181,1.4046,1.4987,1.5624,1.5891,1.5891,1.5891,1.5891,1.5891,1.5891,1.5891,1.5891,1.5891,1.5891,1.5891,1.5891,1.5891,1.5891,1.5891,1.5945,1.6158,1.6783,1.7312,1.7957,1.916,1.9776,2.013,2.0233,1.9828,1.9049,1.8048,1.7259,1.6624,1.6045,1.5891,1.5891,1.5891,1.5891,1.5891,1.5891,1.5891,1.5891,1.5891,1.5891,1.5785,1.5535,1.5208,1.5143,1.5607,1.6493,1.7121,1.7022,1.8648,1.9546,1.87,1.9391,2.008,2.0618,2.0729,2.1195,2.2122,2.1937,2.1661,2.1349,2.0712,1.9596,1.7956,1.7528,1.6854,1.5891,1.5891,1.5672,1.5298,1.4315,1.3447,1.2198,1.1652,1.1084,1.0571,0.8882,0.7303,0.7102,0.6089,0.5094,0.4828,0.5126,0.5345,0.5222,0.53,0.5382,0.5382,0.5382,0.5382,0.5382,0.5382,0.5547,0.5935,0.5991,0.6156,0.6541,0.7257,0.7867,0.8254,0.9385,1.0404,1.1202,1.1622,1.2016,1.2372,1.2387,1.2713,1.3315,1.39,1.4493,1.4987,1.5624,1.5891,1.5891,1.5891,1.5891,1.5891,1.5891,1.5891,1.5891,1.5891,1.5891,1.5891,1.5891,1.5891,1.5891,1.5891,1.5891,1.5992,1.6683,1.7213,1.7793,1.899,1.9717,2.0181,2.0763,2.0351,1.9524,1.8632,1.7838,1.6988,1.6152,1.5891,1.5891,1.5891,1.5891,1.5891,1.5891,1.5891,1.5891,1.5891,1.5891,1.5785,1.5535,1.5523,1.5779,1.6346,1.7496,1.8335,1.8433,1.996,2.0755,2.0012,2.049,2.0925,2.0925,2.0968,2.1277,2.1778,2.2179,2.2298,2.2131,2.1989,2.1125,1.9435,1.8529,1.7634,1.6656,1.6141,1.5891,1.5891,1.5137,1.4546,0.0,0.0,0.0,1.0448,0.9133,0.764,0.643,0.6026,0.5735,0.5003,0.5167,0.5425,0.5373,0.5377,0.5382,0.5382,0.5382,0.5382,0.5382,0.5437,0.5824,0.6932,0.7096,0.759,0.8741,0.8906,0.9457,1.0617,1.0714,1.1206,1.2327,1.2387,1.2387,1.2387,1.2387,1.2713,1.3315,1.39,1.4493,1.4987,1.5624,1.5891,1.5891,1.5891,1.5891,1.5891,1.5891,1.5891,1.5891,1.5891,1.5891,1.5891,1.5891,1.5891,1.5891,1.5891,1.5891,1.5945,1.6217,1.6902,1.774,1.8565,1.9406,2.0233,2.0763,2.0351,1.9576,1.8632,1.7838,1.7094,1.6205,1.5945,1.5891,1.5891,1.5891,1.5891,1.5891,1.5891,1.5891,1.5891,1.5891,1.5838,1.5583,1.6158,1.6723,1.6757,1.8373,1.9731,2.0099,2.0842,2.1326,2.1326,2.107,2.0925,2.0917,2.1121,2.1173,2.0917,2.2394,2.2959,2.2372,2.2533,2.24,2.2049,1.951,1.8171,1.8104,1.6596,1.5891,1.5891,1.5891,1.5298,1.2209,0.0,0.0,0.0,0.0,0.0,0.822,0.7265,0.6278,0.5571,0.5729,0.579,0.5279,0.5292,0.5326,0.5098,0.5268,0.5382,0.5382,0.61,0.6434,0.5935,0.7368,0.8192,0.7645,0.9185,1.0339,1.0672,1.1063,1.1597,1.2363,1.2387,1.2387,1.2387,1.2387,1.2713,1.3315,1.39,1.4493,1.4987,1.5624,1.5891,1.5891,1.5891,1.5891,1.5891,1.5684,1.5636,1.5636,1.5838,1.5791,1.5636,1.5838,1.5891,1.5891,1.5891,1.5891,1.5945,1.6418,1.7312,1.8265,1.8952,1.9835,2.0712,2.0873,2.0763,2.0248,1.8788,1.8833,1.8982,1.7523,1.6524,1.5891,1.5891,1.5891,1.5891,1.5891,1.5891,1.5891,1.5891,1.5891,1.5998,1.6311,1.6577,1.7199,1.8582,1.9265,1.9996,2.1097,2.1267,2.1326,2.1326,2.107,2.0968,2.1173,2.107,2.1121,2.1471,2.1512,2.202,2.2967,2.2918,2.2714,2.2424,2.1721,2.0281,1.8104,1.6596,1.5891,1.5891,1.5891,1.5725,1.2,1.1957,1.1785,1.1472,0.0,0.0,0.8377,0.7451,0.6526,0.5541,0.5597,0.5718,0.5218,0.5196,0.5158,0.4881,0.4992,0.5072,0.5033,0.571,0.6098,0.5989,0.7695,0.8796,0.8637,1.0288,1.1387,1.1387,1.1677,1.2006,1.2363,1.2387,1.2387,1.2387,1.2387,1.2822,1.3689,1.4008,1.46,1.5357,1.5731,1.5891,1.5891,1.5891,1.5891,1.5891,1.5636,1.5428,1.5315,1.563,1.5636,1.5535,1.5791,1.5891,1.5891,1.5891,1.6045,1.6258,1.6571,1.7523,1.8624,1.9116,1.9946,2.0771,2.0873,2.0925,2.066,1.9457,1.9406,1.9398,1.7943,1.7107,1.6471,1.5998,1.5891,1.5891,1.5891,1.5891,1.5891,1.5891,1.6205,1.6518,1.6836,1.7569,1.8558,1.9797,2.0261,2.0885,2.1928,2.1632,2.1326,2.1471,2.1121,2.0968,2.1121,2.107,2.1173,2.1369,2.142,2.196,2.3109,2.3232,2.3319,2.3519,2.2931,2.1122,1.8104,1.724,1.6524,1.5891,1.5891,1.5838,1.1957,1.1785,1.1521,1.1073,1.0452,0.0,0.7748,0.7263,0.6828,0.5429,0.5441,0.5647,0.5336,0.5309,0.5204,0.4938,0.4886,0.4796,0.4543,0.4804,0.5421,0.6337,0.784,0.9233,1.0339,1.15,1.2219,1.2382,1.2387,1.2387,1.2387,1.2387,1.2387,1.2387,1.2387,1.298,1.4169,1.4223,1.4761,1.5891,1.5891,1.5891,1.5891,1.5891,1.5891,1.5838,1.5583,1.5261,1.5041,1.5315,1.5428,1.5482,1.5791,1.5891,1.5891,1.5891,1.6258,1.673,1.6783,1.7674,1.8878,1.9264,1.9894,2.0565,2.0822,2.0925,2.0814,2.0344,1.9709,1.8923,1.7996,1.7687,1.7318,1.6152,1.5891,1.5891,1.5891,1.5992,1.6099,1.6099,1.6677,1.7252,1.7457,1.8982,2.0233,2.0585,2.1259,2.1928,2.2493,2.1878,2.1479,2.1674,2.1275,2.0968,2.0976,2.1173,2.1173,2.0968,2.1685,2.2358,2.286,2.3399,2.4048,2.4812,2.3376,2.1269,1.8577,1.8239,1.732,1.5838,1.5838,1.5684,1.165,1.1397,1.1262,1.0814,1.0346,0.0,0.9049,0.8683,0.8317,0.0,0.749,0.7436,0.6765,0.6651,0.6551,0.6257,0.6208,0.577,0.453,0.5332,0.5698,0.4853,0.6803,0.8348,0.8854,0.9955,1.1114,1.2327,1.2387,1.2387,1.2387,1.2387,1.2387,1.2387,1.2387,1.298,1.4169,1.4223,1.4761,1.5891,1.5891,1.5891,1.5891,1.5891,1.5791,1.5535,1.5261,1.5041,1.4987,1.5095,1.5095,1.5148,1.5678,1.5891,1.5891,1.5891,1.6258,1.6783,1.7259,1.8048,1.893,1.9665,2.0197,2.0565,2.0822,2.0925,2.0925,2.1019,2.0019,1.8819,1.8617,1.8101,1.7318,1.6152,1.5891,1.5891,1.5891,1.663,1.7265,1.7265,1.7206,1.772,1.9242,1.9872,2.0388,2.131,2.1768,2.2072,2.2182,2.203,2.1878,2.1725,2.142,2.1326,2.1522,2.1224,2.107,2.1224,2.1194,2.1671,2.2843,2.2996,2.3624,2.4757,2.3376,2.2285,2.1705,1.925,1.7212,1.5583,1.5583,1.5422,1.2112,1.1645,1.1132,1.0472,1.0207,0.0,0.0,0.8609,0.8423,0.7544,0.7576,0.7576,0.6871,0.6813,0.6806,0.6481,0.5939,0.5388,0.4924,0.5637,0.6041,0.5556,0.6958,0.8079,0.8247,0.9684,1.1118,1.2327,1.2387,1.2387,1.2387,1.2387,1.2387,1.2387,1.2387,1.298,1.4169,1.4223,1.4761,1.5891,1.5891,1.5891,1.5891,1.5891,1.5737,1.5482,1.5315,1.5148,1.4987,1.5202,1.5261,1.5309,1.5731,1.5891,1.5891,1.5891,1.6418,1.7213,1.7477,1.8265,1.9153,1.9872,2.0189,2.0403,2.0763,2.0968,2.1121,2.1275,2.0798,2.0122,1.9606,1.9242,1.861,1.6935,1.663,1.6736,1.6736,1.7213,1.7943,1.9027,1.902,1.9183,2.0122,2.0747,2.1259,2.1827,2.2182,2.2283,2.2123,2.1979,2.1827,2.1522,2.1275,2.1173,2.1275,2.107,2.0968,2.107,2.0968,2.1494,2.2843,2.293,2.3494,2.4804,2.4064,2.3321,2.2576,2.035,1.8333,1.6557,1.5851,1.5261,1.2997,1.2406,1.1553,1.0511,1.0346,1.0,0.0,0.0,0.0,0.731,0.7398,0.7516,0.6991,0.7046,0.7085,0.6817,0.5975,0.551,0.5948,0.6353,0.6545,0.6356,0.666,0.7121,0.7532,0.9492,1.1166,1.2159,1.2278,1.2327,1.2387,1.2387,1.2387,1.2387,1.2387,1.298,1.4169,1.4223,1.4761,1.5891,1.5891,1.5891,1.5891,1.5891,1.5737,1.5482,1.5482,1.5369,1.5095,1.5369,1.5535,1.5583,1.5838,1.5891,1.5891,1.5998,1.663,1.7477,1.7687,1.8377,1.922,1.9879,2.013,2.0292,2.0763,2.1019,2.1173,2.1267,2.1471,2.1463,2.0439,2.038,2.0063,1.8087,1.7726,1.7891,1.7891,1.8094,1.8774,2.0577,2.0885,2.0893,2.0842,2.1514,2.2072,2.2072,2.2392,2.2493,2.2123,2.1979,2.1776,2.1471,2.1275,2.1121,2.107,2.1121,2.1121,2.107,2.107,2.1642,2.3003,2.317,2.3745,2.4757,2.4821,2.4174,2.285,2.134,1.9639,1.7646,1.6173,1.5208,1.409,1.3789,1.3275,1.1558,1.1022,1.0444,0.8654,0.0,0.8379,0.8256,0.0,0.8515,0.8459,0.0,0.0,0.8449,0.8462,0.8416,0.8268,0.8141,0.7282,0.5189,0.3857,0.3902,0.596,0.8125,1.0052,1.1583,1.1896,1.2169,1.2382,1.2387,1.2387,1.2387,1.2387,1.298,1.4169,1.4223,1.4761,1.5891,1.5891,1.5891,1.5891,1.5891,1.5737,1.5482,1.5482,1.5482,1.5428,1.5482,1.5636,1.5838,1.5891,1.5891,1.5945,1.6418,1.6677,1.6942,1.795,1.837,1.8684,1.9768,2.0248,2.0514,2.0822,2.0771,2.0668,2.1173,2.1471,2.1522,2.0688,2.0629,2.0526,1.928,1.902,1.902,1.902,1.9797,2.0577,2.0834,2.1717,2.2283,2.1971,2.2021,2.2072,2.2072,2.2392,2.2493,2.2123,2.2333,2.2392,2.2021,2.1979,2.1878,2.1623,2.1827,2.1878,2.1623,2.1623,2.221,2.3525,2.4216,2.4671,2.4821,2.4821,2.4404,2.3632,2.2162,2.0173,1.7646,1.6173,1.5208,1.5569,1.5151,1.4324,1.2951,1.2673,1.2203,1.0264,0.962,0.9237,0.8553,0.0,0.0,0.0,0.0,0.0,0.0,0.7888,0.7388,0.7825,0.6609,0.5915,0.6487,0.5677,0.5482,0.641,0.7495,0.8673,0.9895,1.1054,1.1746,1.185,1.2189,1.2387,1.2387,1.2387,1.298,1.4169,1.4223,1.4761,1.5891,1.5891,1.5891,1.5891,1.5891,1.5737,1.5482,1.5636,1.5636,1.5535,1.569,1.5791,1.5891,1.5891,1.5891,1.5945,1.6152,1.663,1.7312,1.7793,1.837,1.9004,1.968,2.0034,2.03,2.0617,2.0573,2.0565,2.0968,2.1275,2.1369,2.1062,2.1259,2.1302,2.0218,2.0055,2.021,2.021,2.057,2.1089,2.1768,2.2283,2.2544,2.2384,2.2384,2.2384,2.2384,2.2493,2.2493,2.2123,2.2232,2.2182,2.1928,2.2367,2.2707,2.2604,2.3648,2.4275,2.4121,2.4121,2.413,2.4277,2.4516,2.4533,2.4213,2.4204,2.3909,2.3261,2.1745,2.0476,1.9309,1.7171,1.5624,1.791,1.7159,1.5819,1.4474,1.4081,1.3472,1.1397,1.0491,0.985,0.891,0.8813,0.0,0.0,0.0,0.8621,0.8681,0.0,0.6701,0.7302,0.5819,0.5381,0.731,0.7054,0.6727,0.672,0.7162,0.7842,0.8863,1.0447,1.1419,1.152,1.2048,1.2387,1.2387,1.2387,1.2871,1.3954,1.4116,1.4708,1.5678,1.5838,1.5891,1.5891,1.5891,1.5785,1.5636,1.5838,1.5791,1.5636,1.5838,1.5891,1.5891,1.5891,1.5891,1.5945,1.6045,1.663,1.7424,1.7687,1.8534,1.9428,1.9732,1.9931,2.0138,2.0514,2.0573,2.0565,2.0917,2.1224,2.1428,2.1522,2.1878,2.2021,2.1251,2.12,2.1353,2.1353,2.1353,2.1607,2.2443,2.2594,2.2594,2.2594,2.2594,2.2594,2.2594,2.2594,2.2493,2.2283,2.2469,2.2528,2.2325,2.3417,2.4108,2.4056,2.5577,2.6557,2.6445,2.6374,2.5912,2.5058,2.4754,2.4341,2.3761,2.3698,2.336,2.2727,2.1703,2.0987,2.0519,1.8243,1.6465,2.1355,2.0079,1.8162,1.6067,1.4965,1.3808,1.1528,1.0428,0.9841,0.9609,0.942,0.9155,0.8775,0.8551,0.8471,0.8681,0.8145,0.0,0.0,0.7071,0.6748,0.6659,0.6296,0.6116,0.6307,0.6969,0.7959,0.9299,1.0435,1.1217,1.1465,1.2048,1.2387,1.2387,1.2387,1.2713,1.3315,1.3905,1.4493,1.5041,1.5624,1.5891,1.5891,1.5891,1.5891,1.5891,1.5891,1.5891,1.5891,1.5891,1.5891,1.5891,1.5891,1.5891,1.5945,1.6465,1.6677,1.6889,1.7996,1.8945,1.9732,1.9983,2.0078,2.0181,2.0712,2.0719,2.0617,2.1121,2.1471,2.1725,2.203,2.2333,2.2594,2.2544,2.2544,2.2544,2.2544,2.2544,2.2544,2.2594,2.2594,2.2594,2.2594,2.2594,2.2594,2.2594,2.2594,2.2594,2.2603,2.3361,2.3957,2.3948,2.5512,2.6455,2.6199,2.7461,2.8125,2.7864,2.7633,2.7029,2.5792,2.5076,2.4364,2.3744,2.347,2.2975,2.2303,2.2547,2.1881,2.0447,1.8997,1.7733,2.3138,2.1965,2.0298,1.9188,1.7565,1.5763,1.3801,1.2307,1.1081,1.034,0.982,0.949,0.9496,0.8899,0.8433,0.8475,0.7764,0.7219,0.0,0.6785,0.6464,0.6367,0.586,0.5601,0.5684,0.6144,0.6684,0.7372,0.9145,1.0195,1.0241,1.1541,1.2126,1.1836,1.217,1.2713,1.3315,1.39,1.4493,1.4987,1.5624,1.5891,1.5891,1.5891,1.5891,1.5891,1.5891,1.5891,1.5891,1.5891,1.5891,1.5891,1.5891,1.5891,1.5891,1.5897,1.6477,1.7477,1.8586,1.9168,1.948,1.9732,1.9828,1.9931,2.0462,2.0565,2.0617,2.1173,2.1471,2.1776,2.2021,2.2333,2.2594,2.2594,2.2594,2.2594,2.2594,2.2594,2.2594,2.2594,2.2594,2.2594,2.2594,2.2594,2.2594,2.2594,2.2594,2.2594,2.2594,2.343,2.4212,2.4744,2.6474,2.7827,2.8268,2.9779,3.0691,3.0629,3.0136,2.9013,2.7072,2.6314,2.5023,2.3097,2.3141,2.2651,2.1667,2.1915,2.1798,2.1259,2.0798,1.9694,2.5271,2.4051,2.2481,2.1621,2.0154,1.837,1.6352,1.4851,1.3588,1.2406,1.1663,1.1146,1.0925,0.9857,0.8911,0.8655,0.752,0.6634,0.0,0.6237,0.6025,0.5977,0.5912,0.5844,0.5832,0.6228,0.663,0.6982,0.8588,0.9628,0.9832,1.1254,1.1915,1.1628,1.21,1.2604,1.2985,1.3792,1.4385,1.4713,1.5517,1.5891,1.5891,1.5891,1.5891,1.5891,1.5891,1.5891,1.5891,1.5891,1.5891,1.5891,1.5891,1.5838,1.5791,1.5897,1.6743,1.8003,1.8959,1.9279,1.9324,1.9628,1.968,1.9783,2.0359,2.0522,2.0617,2.1173,2.1471,2.1776,2.2021,2.2333,2.2594,2.2594,2.2594,2.2594,2.2594,2.2594,2.2594,2.2594,2.2594,2.2594,2.2594,2.2594,2.2594,2.2594,2.2594,2.2746,2.318,2.4227,2.5326,2.6273,2.8258,2.9836,3.0651,3.1777,3.2443,3.2443,3.1778,3.0597,2.8881,2.7931,2.6401,2.4307,2.3916,2.322,2.2273,2.2097,2.203,2.203,2.203,2.1353]}]]